GFSSW_850_thetae_000.txt.gz
Theta_e
312 312 313 313 313 313 312 313 313 315 316 312 312 312 315 316 316 316 315 313 312 312 314 317 317 315 316 315 316 317 318 317 316 317 317 316 317 318 317 317 318 318 321 333 334
313 313 314 314 314 313 313 313 314 315 315 312 313 315 316 317 319 315 314 314 312 313 317 317 317 316 317 316 317 319 319 317 317 317 317 317 316 316 317 318 319 320 321 326 331
313 313 314 314 313 313 313 313 315 316 315 312 313 315 315 317 320 316 313 313 313 314 318 318 318 317 318 318 318 319 317 317 318 317 316 317 317 317 317 318 319 319 321 323 325
313 313 313 313 313 313 314 315 316 317 316 312 313 314 317 318 320 315 316 314 313 315 317 318 318 319 319 319 319 319 318 318 319 318 317 319 318 318 318 318 318 318 320 322 323
313 313 313 313 314 315 316 316 316 316 316 313 313 316 317 320 318 318 318 319 318 318 318 318 319 320 320 320 320 320 319 320 319 319 319 318 318 319 318 318 318 318 321 321 322
313 314 314 315 316 316 316 314 313 314 314 315 316 317 319 319 318 319 319 319 319 320 319 319 319 320 321 321 321 320 320 320 320 320 319 319 318 318 318 318 318 318 319 320 320
315 315 316 316 316 316 316 316 315 315 315 315 318 320 320 318 318 320 320 319 319 319 318 318 319 321 321 323 320 320 321 322 321 319 317 318 318 317 319 319 318 317 318 318 318
316 316 316 317 318 318 317 317 317 316 316 317 318 321 319 318 319 319 320 320 319 319 318 317 319 320 322 320 322 321 322 320 320 319 318 317 317 319 319 318 318 317 317 318 318
316 317 318 318 318 318 317 317 317 317 317 318 320 322 320 319 319 319 319 320 320 320 320 319 319 320 321 323 323 321 320 320 321 320 318 318 318 318 319 318 318 318 318 317 318
316 318 318 317 318 317 317 317 316 317 317 318 319 320 319 319 318 319 319 320 320 320 321 320 321 322 321 321 320 320 321 321 322 321 320 320 320 320 320 319 319 319 318 318 317
316 317 318 317 317 317 316 317 320 320 319 319 319 318 318 318 318 317 316 319 321 321 321 319 323 321 319 320 319 319 321 321 322 321 321 321 321 321 320 318 318 318 318 318 317
316 317 317 317 316 317 318 325 321 322 319 317 317 316 316 317 318 317 316 319 319 320 319 320 323 319 318 320 319 319 320 321 320 321 321 322 322 321 319 318 318 317 318 317 317
315 317 317 317 317 318 323 316 317 317 325 317 317 317 316 317 317 317 316 317 319 319 318 318 321 318 318 319 319 318 321 320 320 321 322 322 321 321 319 318 317 317 317 317 316
312 315 316 317 317 322 323 313 314 317 327 320 319 318 317 316 319 317 315 317 320 319 317 320 319 318 318 319 318 319 320 320 321 322 323 322 321 320 320 318 318 318 318 317 317
315 312 315 315 323 321 322 316 318 322 337 320 319 317 317 317 317 318 317 318 319 318 318 322 319 316 318 318 318 319 319 321 322 324 323 322 321 321 320 319 319 319 318 317 317
314 313 315 317 318 321 317 317 321 339 335 321 318 319 320 318 318 318 319 318 317 318 318 317 316 317 317 318 320 320 322 323 324 323 329 325 323 322 321 320 319 318 318 317 316
314 315 314 316 325 318 318 321 333 335 321 321 321 319 319 319 319 318 319 321 321 323 324 321 320 318 317 320 321 321 322 330 334 336 332 323 322 322 322 321 319 318 316 316 316
316 315 317 314 314 318 319 329 330 323 322 320 319 319 320 319 320 319 321 322 320 320 322 323 325 319 319 319 320 321 321 329 328 328 326 321 322 321 321 319 317 317 316 316 316
319 323 318 319 315 315 327 334 327 323 320 320 319 320 322 320 318 320 320 320 319 319 321 324 323 321 319 318 319 321 323 321 322 323 324 323 323 323 322 320 318 319 318 317 317
325 325 317 318 316 324 334 325 321 318 318 319 321 319 321 321 320 321 321 318 319 318 318 321 322 321 320 320 321 320 321 323 326 328 325 322 323 323 323 323 321 321 319 318 318
326 327 316 315 320 326 334 322 318 316 317 320 320 320 319 320 320 320 320 319 318 318 318 321 322 322 321 323 322 320 322 323 322 324 326 327 323 322 322 321 321 320 319 318 317
324 328 316 318 327 325 323 320 316 318 318 319 320 320 321 321 321 321 320 320 317 317 320 320 320 323 322 321 320 319 321 322 325 325 323 325 324 320 322 321 320 320 318 317 316
323 323 319 323 331 329 319 319 319 319 319 320 320 320 319 321 322 321 320 319 318 317 319 318 322 323 321 322 320 321 320 321 322 321 322 324 323 320 321 321 320 319 317 316 315
322 327 322 324 323 322 321 321 320 318 318 319 319 319 320 321 321 321 320 319 318 318 316 317 319 321 323 322 321 321 320 320 321 322 322 322 322 321 321 320 319 318 315 314 314
321 321 319 329 324 322 321 321 321 322 319 318 320 320 320 320 319 319 319 320 319 317 318 319 321 320 320 319 319 318 319 319 320 319 320 319 320 319 319 318 316 315 315 314 314
322 322 319 319 319 321 317 320 320 320 318 320 319 319 319 320 319 321 320 319 319 319 320 319 319 318 318 318 318 318 318 318 318 318 318 319 320 318 316 316 315 315 314 314 314
319 315 321 319 320 323 322 319 318 318 319 317 318 319 318 319 319 318 318 318 318 320 320 320 318 315 319 316 315 317 316 317 318 318 318 318 317 316 316 315 315 315 314 313 312

GFSSW_850_thetae_003.txt.gz
Theta_e
311 312 312 312 313 313 312 313 314 315 313 312 312 315 316 316 316 314 313 313 312 314 316 318 317 315 315 315 316 316 310 309 312 312 313 314 313 317 316 316 318 319 331 326 324
312 313 313 313 313 313 312 313 314 316 312 312 314 316 317 318 316 313 313 313 312 316 317 318 318 318 317 317 318 315 308 313 314 313 311 314 314 316 315 315 317 320 329 333 333
313 313 314 314 313 312 313 313 315 315 312 313 315 315 316 318 318 315 312 313 313 317 318 318 318 319 318 318 318 316 313 315 316 317 316 316 317 317 316 314 318 319 322 327 330
313 313 313 313 312 312 313 314 316 315 313 314 315 316 317 319 317 316 314 315 318 318 319 319 319 320 318 317 319 315 318 318 317 317 317 317 318 317 317 317 317 318 322 322 323
313 313 313 313 313 314 315 316 316 316 314 313 314 314 318 319 318 317 319 319 319 319 319 320 320 320 318 319 320 318 318 319 319 318 318 318 317 316 318 317 317 317 319 321 322
313 313 314 314 315 316 315 315 316 316 315 313 315 316 317 319 318 319 319 319 319 319 318 319 320 321 321 320 320 320 320 320 320 320 319 317 317 318 317 317 318 317 318 319 320
315 315 316 316 316 314 313 314 314 314 315 316 317 317 321 317 318 319 320 319 319 318 318 318 319 320 321 322 320 320 318 318 319 319 316 317 314 313 317 317 318 317 318 318 319
316 316 316 316 316 316 315 316 315 315 315 316 316 320 318 319 319 319 319 320 319 319 318 317 319 320 320 321 320 320 319 317 318 318 317 315 313 314 318 318 318 317 317 317 318
316 317 317 317 317 317 317 316 316 316 316 316 319 320 318 319 319 319 320 319 320 320 321 321 319 320 321 320 318 316 316 318 319 316 317 315 315 316 319 318 317 317 317 317 317
317 318 317 317 317 316 316 316 316 316 317 318 318 320 319 319 318 318 318 318 320 320 320 321 321 318 314 314 316 317 316 318 318 318 316 316 316 315 320 318 317 316 317 317 317
317 318 317 317 316 316 316 317 317 318 319 317 317 318 317 318 318 317 316 318 320 321 319 318 317 316 316 317 318 316 316 316 317 317 317 316 315 315 317 316 316 317 317 317 317
316 317 316 316 316 316 318 324 322 322 320 317 317 316 316 317 317 317 315 317 318 317 317 315 318 317 317 317 317 316 317 318 318 318 318 317 317 315 315 315 317 317 317 317 316
316 317 317 316 317 318 319 316 318 317 325 317 317 316 316 317 317 317 315 316 318 317 315 316 318 317 317 318 317 316 318 317 318 318 318 318 317 315 315 316 317 317 317 316 316
314 316 317 317 316 320 324 313 315 318 327 317 318 318 317 317 318 317 317 317 320 318 316 318 318 316 316 318 316 316 318 318 319 319 320 318 318 316 314 314 315 317 317 316 316
312 314 316 316 323 320 322 315 317 319 324 319 317 317 318 317 317 318 318 318 316 316 316 318 315 314 317 316 316 318 318 318 319 319 320 319 318 315 315 315 314 315 317 317 316
314 314 315 315 318 321 320 315 318 326 328 319 318 318 319 318 318 318 320 320 319 319 317 316 317 316 315 317 317 318 320 320 322 319 320 320 318 316 318 316 316 316 316 316 316
315 316 314 318 322 317 316 319 326 323 321 320 320 319 318 318 319 318 319 318 318 319 320 320 317 316 318 318 318 317 319 318 318 318 320 319 318 317 318 316 315 314 315 316 316
317 317 317 313 319 318 319 324 326 324 321 319 319 318 320 317 319 319 319 318 317 318 319 321 320 318 318 318 318 318 319 317 322 317 318 318 320 318 316 316 316 316 316 316 317
322 320 315 316 316 318 327 323 319 321 319 319 319 319 320 319 317 319 318 318 317 317 320 320 322 319 318 317 317 319 319 319 318 309 313 318 319 318 316 319 319 318 318 318 318
325 326 315 317 316 326 324 322 319 317 317 319 321 319 320 319 319 319 319 318 318 318 317 320 321 320 320 319 318 319 318 318 314 320 321 319 319 319 319 318 318 317 317 317 317
327 327 316 317 320 328 320 317 316 315 317 319 320 320 320 320 320 320 320 318 317 318 318 319 319 318 319 321 320 318 317 319 321 318 323 322 320 318 319 317 318 317 317 317 315
326 325 317 323 326 327 318 318 317 318 318 319 319 320 320 321 320 321 321 320 318 317 320 317 317 314 319 318 318 317 320 320 320 323 316 315 321 318 316 318 318 318 315 314 314
324 323 320 323 314 313 319 319 318 319 319 320 320 319 319 320 320 320 320 318 317 318 317 317 313 314 317 317 317 319 318 318 316 312 318 319 319 317 318 318 316 314 314 314 314
323 312 321 323 323 320 319 320 319 318 318 319 319 319 320 320 319 319 319 319 318 318 317 316 317 315 316 318 318 318 318 317 317 309 316 316 318 316 316 314 314 314 314 314 314
321 320 320 316 319 320 319 320 321 321 319 318 319 319 319 316 316 318 319 320 318 317 317 316 315 317 317 318 318 319 317 317 317 315 316 316 316 315 313 313 313 314 313 313 313
321 322 321 318 319 318 317 319 319 318 318 319 318 319 318 318 319 320 318 318 318 318 316 318 313 317 317 317 318 316 314 315 315 314 315 315 314 313 313 314 314 313 313 312 312
319 318 321 319 319 313 315 319 319 318 318 317 318 317 313 319 318 318 318 318 318 317 314 314 310 311 319 315 313 311 312 314 314 313 313 313 312 313 313 313 314 313 313 312 311

GFSSW_850_thetae_006.txt.gz
Theta_e
311 311 311 312 312 312 312 312 314 315 312 312 314 315 317 315 313 312 312 312 313 316 317 317 317 317 317 316 315 314 307 308 312 312 312 313 314 316 316 316 317 325 323 326 329
312 312 312 313 313 313 312 313 314 313 312 312 315 316 317 316 313 312 312 314 315 317 318 318 318 318 316 317 317 311 306 313 313 311 312 313 315 315 314 317 323 329 325 326 327
313 313 314 314 313 312 312 313 315 312 312 315 316 316 318 319 314 313 313 315 317 318 319 319 320 318 317 318 316 314 313 314 315 315 316 316 317 316 315 314 318 328 328 327 328
313 313 314 313 312 312 313 314 315 312 314 315 315 317 318 317 314 316 319 319 319 319 319 319 320 320 316 316 317 315 316 317 317 316 317 316 317 316 316 316 318 320 323 329 329
313 312 312 312 312 313 314 315 315 313 314 314 314 317 319 318 317 318 319 319 319 318 318 319 319 319 318 318 318 316 316 318 318 318 317 317 317 316 316 317 317 318 324 326 327
313 313 313 314 315 315 315 316 316 314 313 313 316 318 320 317 318 319 319 319 318 318 318 318 318 319 320 319 318 319 319 318 318 318 318 316 316 316 318 317 317 317 320 321 322
314 315 315 315 315 313 313 314 315 316 316 317 317 319 319 317 318 319 319 319 318 319 317 316 319 319 319 320 320 319 318 316 317 318 316 316 314 313 317 316 316 317 317 317 317
315 316 316 316 315 314 314 314 315 316 316 317 317 319 317 319 319 319 319 319 319 319 319 320 319 319 319 320 320 319 315 316 316 317 317 314 313 313 317 316 317 317 317 317 317
316 317 317 317 316 316 316 315 315 315 316 316 318 320 319 319 319 319 319 317 318 319 320 320 320 319 319 314 312 312 315 315 316 316 315 314 313 314 318 316 317 317 317 317 317
317 317 317 316 316 316 316 316 316 316 316 318 318 319 318 318 318 317 316 316 318 319 320 320 320 314 311 311 314 315 314 314 318 315 315 315 314 313 316 315 316 316 315 315 316
317 317 317 316 316 316 318 321 319 318 317 316 317 317 317 317 317 316 316 318 318 318 318 317 314 314 315 315 316 315 315 316 316 316 316 315 314 314 315 314 314 315 316 316 316
317 316 316 316 316 317 321 324 322 320 318 317 316 315 316 316 317 317 314 317 317 315 314 314 316 316 315 316 316 315 317 316 315 316 317 316 315 311 311 312 315 316 316 316 316
316 317 316 316 316 317 320 316 319 317 323 316 317 317 316 316 317 317 316 316 317 316 313 315 317 316 315 315 315 315 317 317 317 316 316 317 316 313 314 315 315 315 316 316 316
315 316 317 317 316 320 323 315 318 318 317 316 317 317 317 317 317 317 317 318 316 316 315 316 315 314 316 316 315 316 315 317 317 317 318 317 319 316 313 314 314 315 316 316 316
313 316 316 316 324 319 319 315 316 320 319 318 317 317 318 317 317 317 319 317 315 315 314 316 314 314 316 315 315 316 315 317 318 317 318 317 317 315 314 314 314 313 315 315 315
312 314 316 316 321 321 321 314 318 321 325 318 317 318 318 318 317 318 318 318 318 318 317 315 316 314 315 316 317 316 318 318 317 317 318 318 316 315 315 314 313 314 315 316 315
315 315 316 316 316 318 316 318 323 318 321 318 318 317 318 317 318 317 317 316 316 316 317 318 316 315 317 317 316 315 316 316 316 315 318 318 317 315 314 313 314 314 315 315 315
317 317 313 319 320 317 318 320 322 322 319 318 318 317 318 316 317 317 317 316 315 316 317 321 319 318 316 317 317 317 318 315 321 316 317 316 319 316 314 315 314 314 316 317 316
318 315 317 314 318 318 325 316 315 318 317 317 318 318 319 318 316 317 316 317 316 315 318 318 320 318 317 317 317 318 317 317 316 306 312 316 318 315 314 316 316 316 317 317 316
324 318 317 314 318 326 317 315 316 316 317 319 319 318 318 318 318 318 317 316 317 316 316 319 320 318 318 318 317 318 317 317 313 314 322 318 317 317 317 317 316 315 316 315 314
326 321 316 316 322 325 313 313 315 316 317 318 319 320 319 320 319 319 318 317 317 316 317 316 317 317 316 319 319 315 316 317 319 315 319 321 319 315 318 316 316 316 313 313 313
326 316 317 323 321 320 314 316 317 317 318 318 318 318 319 319 319 320 320 318 317 318 318 316 312 313 317 315 316 317 318 316 312 319 313 314 319 316 315 316 315 314 314 313 313
322 321 321 324 310 308 317 317 318 318 317 318 318 318 318 319 318 319 319 318 316 317 317 315 311 312 314 313 314 317 317 316 314 308 314 311 314 314 315 314 313 313 313 313 313
320 312 319 321 323 316 317 318 318 318 318 319 318 318 317 318 317 317 318 318 317 318 317 315 314 313 313 314 315 317 317 316 314 306 315 316 315 314 313 313 312 313 313 313 313
321 317 320 311 316 316 318 319 319 319 318 317 318 318 318 315 315 318 318 317 317 317 316 314 313 314 314 315 316 317 317 317 317 314 313 314 313 313 312 312 313 313 312 312 312
321 322 319 318 320 316 313 317 318 317 318 317 317 317 317 318 317 319 317 316 316 316 316 314 312 313 315 315 316 316 316 315 314 314 313 312 312 313 313 313 313 312 312 312 312
318 319 319 316 315 310 311 317 317 318 318 317 317 315 312 318 318 318 317 317 317 315 311 313 307 306 315 311 312 315 313 312 312 312 311 311 310 313 312 313 312 312 312 312 311

GFSSW_850_thetae_009.txt.gz
Theta_e
310 311 311 311 311 311 312 312 314 314 312 312 314 316 316 313 312 312 312 313 314 317 318 318 318 317 316 315 313 312 306 308 312 311 312 312 314 315 315 319 317 324 323 327 334
312 312 312 312 312 312 312 312 313 313 312 314 315 316 317 314 312 312 313 317 319 319 319 319 318 317 316 316 315 310 306 311 312 311 312 313 314 314 314 321 326 325 323 326 333
313 313 313 313 313 312 312 313 314 312 313 314 315 317 319 316 313 316 319 318 318 318 319 320 318 317 316 317 314 312 311 312 314 314 314 315 315 315 313 315 325 323 323 326 333
313 313 313 313 312 312 312 314 314 312 313 314 315 317 318 317 311 318 318 318 318 318 318 319 319 319 315 316 316 313 315 315 316 315 315 315 316 316 315 315 317 319 321 324 326
312 312 312 312 312 312 314 315 313 312 313 314 315 318 316 317 318 319 319 318 318 317 318 319 319 319 317 318 317 315 315 316 317 317 317 316 316 315 316 317 317 320 324 324 323
312 312 312 312 313 314 315 315 314 313 313 315 318 319 317 316 318 319 319 318 318 316 317 318 319 319 319 319 317 318 318 318 318 317 317 316 315 316 317 317 316 319 324 324 324
313 314 315 315 315 315 315 315 315 313 316 318 319 318 317 318 318 319 319 319 317 318 319 319 319 319 319 319 320 319 317 314 316 317 316 316 313 312 316 315 316 317 322 325 324
315 315 315 314 314 314 314 314 315 317 317 317 319 318 318 318 318 319 318 318 318 318 319 320 320 319 319 318 317 314 312 313 314 315 315 313 312 312 315 316 315 316 320 321 319
316 316 316 316 316 315 315 315 315 316 316 317 318 319 318 318 318 317 317 316 317 319 320 320 320 318 317 311 311 310 313 314 315 315 315 313 312 312 317 316 316 315 316 317 317
317 316 316 316 316 316 316 315 316 317 318 318 319 318 318 317 317 316 316 317 318 319 319 320 319 311 309 311 313 315 314 314 316 314 314 315 311 311 317 315 314 314 314 316 316
317 316 316 316 316 318 319 318 318 318 316 315 316 316 316 317 317 317 314 317 318 317 315 316 313 314 314 314 314 315 315 316 315 314 316 315 313 313 312 312 312 311 314 316 316
316 316 316 316 316 320 321 322 321 319 317 316 315 315 316 316 317 317 315 317 317 314 313 314 315 315 314 314 314 315 316 315 314 314 315 315 314 309 310 311 311 313 315 316 316
316 316 315 315 317 316 318 319 317 318 318 316 316 317 316 316 316 317 317 316 316 314 313 314 316 314 315 313 314 314 316 316 316 314 315 315 316 312 312 313 313 314 314 315 315
316 316 316 316 316 316 315 316 317 319 312 315 316 317 317 316 317 317 317 317 315 315 314 316 313 314 314 315 314 315 314 315 316 317 318 314 317 314 312 313 313 312 313 314 315
315 315 316 315 316 320 315 315 316 321 314 316 316 317 317 316 316 318 318 317 315 317 313 316 313 314 314 315 315 316 315 315 317 316 316 315 314 315 312 314 312 312 314 315 316
313 315 316 315 319 320 319 314 318 318 321 317 317 317 317 317 316 318 317 317 317 316 315 315 315 314 315 315 316 315 316 315 315 315 317 317 316 312 312 312 313 314 315 315 315
314 314 315 315 319 317 319 316 320 315 319 317 317 316 316 315 316 316 315 315 315 313 316 317 317 316 316 316 315 314 315 314 314 314 317 316 315 313 313 313 313 313 314 315 315
316 314 315 316 319 317 317 317 318 319 318 317 316 316 317 315 315 316 316 315 314 315 316 319 316 318 316 316 317 317 316 313 317 315 315 315 317 315 313 315 313 315 315 314 316
316 317 314 317 318 317 324 313 313 315 316 316 317 317 317 317 316 316 316 316 315 314 317 317 318 316 317 317 316 318 316 315 313 304 310 315 316 314 313 314 316 316 315 314 314
318 316 315 316 318 325 314 314 315 315 316 317 318 317 318 318 318 316 316 316 316 316 315 317 320 317 316 317 316 316 315 316 312 312 319 318 317 317 315 315 314 313 312 312 313
326 316 318 319 323 322 311 310 314 316 317 318 318 319 318 319 318 318 317 316 316 316 316 315 316 315 314 316 317 315 315 315 316 313 319 316 318 314 314 313 313 311 312 312 313
325 315 321 323 321 314 312 315 316 317 318 317 317 317 318 318 318 319 319 318 316 317 317 315 311 312 316 313 314 316 315 314 316 317 312 309 316 313 313 312 312 312 313 313 313
319 320 322 323 311 306 315 316 317 317 316 317 317 317 317 318 318 318 318 317 316 316 316 314 310 311 312 311 312 316 315 314 310 307 313 312 313 311 313 312 312 313 313 313 312
319 311 320 321 318 314 316 317 317 318 317 317 317 317 316 316 314 316 318 317 317 317 316 314 312 312 313 312 313 315 315 315 313 310 313 315 315 314 312 311 312 313 313 312 312
318 315 318 310 314 316 316 318 317 318 317 317 316 316 316 314 314 318 317 316 316 316 315 312 314 313 312 312 313 315 315 316 316 314 315 314 313 312 310 311 313 313 312 312 311
320 319 317 318 318 314 311 316 318 316 317 317 316 316 316 317 316 318 317 316 316 315 314 312 310 313 313 313 313 315 314 314 314 314 313 312 311 309 312 313 312 312 312 311 310
319 320 317 313 311 309 310 316 317 316 316 316 316 313 312 317 318 317 317 317 316 314 311 312 306 306 309 309 308 309 310 312 312 310 311 310 309 311 311 312 312 312 312 311 310

GFSSW_850_thetae_012.txt.gz
Theta_e
310 310 310 311 311 311 311 312 312 314 312 312 315 315 315 312 312 313 318 318 318 318 318 318 318 316 315 313 312 312 305 308 310 311 312 312 313 314 316 321 317 324 324 326 328
311 311 311 311 311 311 312 312 313 313 312 315 315 315 315 312 316 318 318 318 318 318 319 317 317 317 316 314 314 309 306 311 310 310 312 313 313 313 315 320 323 323 323 326 332
312 312 312 312 312 312 312 312 314 312 314 314 314 317 317 314 317 318 318 318 317 318 319 318 318 318 316 316 313 312 311 311 314 313 313 314 315 314 315 317 321 319 324 328 333
313 313 313 313 312 312 312 313 312 313 314 314 315 317 317 316 314 318 318 318 317 318 319 319 319 319 314 314 315 313 313 313 315 314 315 314 315 314 313 315 316 318 321 325 330
312 313 312 312 311 312 313 314 312 313 313 313 317 316 315 318 317 318 319 318 317 318 319 319 319 318 316 316 316 315 314 315 316 315 315 315 315 314 315 316 316 317 323 324 324
312 311 311 311 312 313 314 313 312 313 313 317 319 317 316 316 318 318 318 318 316 318 319 319 319 318 318 318 316 317 317 316 316 316 316 316 315 315 316 317 316 317 321 323 323
312 312 313 313 314 315 315 314 313 313 316 318 318 317 317 318 318 318 318 317 317 318 319 319 320 319 318 318 318 317 317 311 314 314 315 315 313 312 315 315 315 315 321 323 322
314 314 314 313 314 315 315 314 315 316 317 319 319 317 318 318 318 318 316 316 317 319 319 320 319 319 317 317 314 311 310 312 314 314 313 313 312 312 314 315 317 315 318 323 322
316 315 315 315 314 314 314 315 315 317 317 318 318 318 317 317 317 316 315 316 319 319 320 320 319 316 315 310 310 309 312 313 313 313 314 314 312 312 315 315 317 314 314 323 325
316 316 316 315 315 315 315 315 316 317 317 318 318 317 316 316 317 316 314 318 319 318 319 319 317 309 308 310 312 314 313 314 314 313 313 314 312 311 313 314 314 313 313 318 319
316 316 315 316 320 318 316 316 318 316 315 315 315 315 316 316 317 316 314 318 317 315 312 315 311 312 313 313 313 314 314 315 313 313 315 314 312 311 310 310 310 310 311 313 315
316 316 315 316 320 319 317 318 317 318 315 315 315 315 316 316 317 317 317 317 316 313 312 312 314 313 312 312 313 314 315 313 313 313 315 314 314 310 310 310 310 311 314 315 315
315 315 315 316 316 318 319 317 317 318 314 315 316 316 316 316 316 316 317 317 314 312 313 314 314 313 313 312 314 314 314 314 315 313 314 312 314 312 311 312 312 313 314 315 315
315 315 315 317 316 317 318 316 316 319 311 314 316 316 316 316 315 317 318 316 314 313 314 315 312 313 314 315 313 316 313 314 314 316 317 312 316 314 310 312 310 312 314 314 315
316 316 315 315 315 315 315 315 316 323 310 314 315 317 317 316 315 317 317 317 315 315 313 314 313 314 315 315 314 315 314 315 316 316 315 314 313 313 310 312 311 312 314 314 314
315 315 315 317 316 318 314 314 320 313 316 316 316 316 316 316 316 317 316 317 315 314 314 315 314 314 315 314 315 314 315 313 313 313 316 316 314 312 312 312 311 312 313 314 314
313 315 315 318 318 318 317 316 316 314 317 316 316 315 314 314 315 315 314 313 314 313 315 316 316 315 315 316 314 314 312 312 314 313 316 315 314 312 312 311 312 313 316 314 313
314 314 315 315 316 317 316 316 316 317 317 315 315 315 315 314 315 315 315 314 313 314 314 318 314 316 316 316 316 316 314 312 315 313 314 313 316 316 313 313 315 315 314 314 315
316 314 315 319 317 316 323 312 312 314 315 316 316 316 316 317 315 315 315 315 314 314 317 316 317 315 316 315 315 317 315 313 312 302 309 314 315 313 312 312 312 313 313 313 313
315 314 315 317 317 324 313 313 314 314 315 316 317 316 317 318 317 315 316 315 315 315 314 316 319 315 315 316 315 315 313 315 311 313 316 316 315 315 314 313 311 310 310 312 312
322 315 321 320 323 319 310 309 313 316 317 317 317 318 317 318 317 316 316 316 315 315 314 314 314 313 313 314 316 315 314 313 314 312 312 315 315 312 312 311 311 311 312 312 312
320 312 322 323 318 311 311 314 316 316 317 316 316 316 317 317 317 318 318 316 315 316 316 313 310 311 314 313 313 314 315 312 309 313 310 307 314 310 310 311 311 312 313 313 312
318 320 321 322 310 304 314 316 316 316 315 316 316 316 315 316 317 317 317 316 316 315 316 313 310 309 309 310 310 315 315 312 308 307 314 315 313 310 311 312 312 312 313 312 312
318 312 320 318 314 313 314 315 317 317 315 316 316 316 315 314 314 317 317 316 316 316 315 313 310 310 310 310 309 313 314 313 313 314 314 313 314 313 312 309 311 313 313 312 311
316 316 316 310 313 315 315 316 317 316 316 316 316 316 315 314 314 317 316 315 315 315 314 311 314 311 311 311 311 313 313 313 313 312 315 314 312 312 311 308 312 313 313 312 312
317 318 316 316 316 313 309 315 318 316 316 316 315 315 315 315 314 317 316 315 315 314 313 310 309 312 311 309 310 311 311 312 312 312 312 313 312 310 310 312 312 311 311 312 311
319 317 318 310 308 308 309 315 315 315 315 316 315 312 311 315 317 317 316 316 314 314 311 311 305 306 307 308 307 306 308 311 312 310 310 311 309 309 311 311 310 310 311 311 309

GFSSW_850_thetae_015.txt.gz
Theta_e
310 310 310 310 311 311 311 311 312 314 311 313 315 315 312 312 317 318 317 317 317 318 316 317 317 315 314 313 312 312 313 312 311 312 313 311 313 313 318 323 319 323 324 325 330
311 311 310 311 311 311 311 311 313 313 312 314 315 315 313 317 318 318 318 317 317 319 317 317 316 315 315 314 314 311 313 312 311 310 313 312 312 312 315 319 323 323 323 327 329
312 312 311 311 311 311 311 312 313 311 314 314 316 317 313 316 317 318 318 317 317 318 317 317 317 317 315 314 313 313 315 312 312 312 313 314 314 313 316 318 319 319 322 325 330
312 312 312 312 312 312 312 313 312 313 314 314 317 316 315 314 317 318 318 317 318 319 318 318 318 318 315 316 313 315 312 314 314 314 314 314 314 314 314 315 316 318 321 323 328
312 313 313 312 312 311 313 312 312 314 313 316 317 315 317 317 318 318 318 317 318 319 318 318 319 318 317 316 316 316 314 314 314 314 314 315 314 314 315 315 315 317 321 322 323
312 312 312 311 311 313 313 312 313 313 316 318 317 316 317 317 318 318 318 317 318 319 319 319 318 320 318 316 318 316 315 315 315 315 315 315 315 315 315 315 315 315 319 322 323
311 311 311 312 313 314 312 313 313 315 317 318 316 317 317 317 317 317 316 316 318 319 319 319 318 318 318 318 317 315 315 314 313 313 314 313 316 315 314 315 314 314 318 324 323
313 313 314 314 314 314 313 313 315 317 318 318 317 317 318 317 316 315 314 316 319 319 320 319 319 317 315 316 313 314 313 317 315 315 315 315 319 316 313 314 315 315 314 321 326
314 314 314 314 314 314 314 315 316 317 318 318 317 317 317 316 316 315 315 318 319 319 319 319 318 315 314 314 315 314 315 315 316 313 316 317 319 317 314 312 315 315 314 315 323
315 315 315 315 314 314 315 316 317 317 317 317 317 316 316 316 316 314 317 318 318 318 317 318 315 315 314 316 316 316 315 315 316 315 317 317 318 316 310 309 311 312 312 313 322
315 315 316 319 315 315 316 317 317 315 315 314 315 315 315 316 317 316 317 317 316 316 316 314 316 315 314 313 313 314 314 316 315 314 317 316 316 314 311 311 310 310 311 314 319
315 316 317 321 317 317 316 317 316 315 314 315 315 315 316 317 318 317 317 316 315 314 313 316 315 313 312 313 314 314 315 315 315 314 316 317 317 313 312 311 310 312 313 314 315
315 316 318 317 319 317 316 317 317 317 314 315 316 316 316 317 317 317 317 316 313 314 313 316 313 312 313 314 317 316 316 315 316 315 315 315 317 315 312 312 312 313 314 314 315
315 315 316 316 317 318 317 316 318 318 313 314 315 316 316 316 315 316 316 316 315 313 314 313 312 314 316 316 315 317 313 316 316 318 320 314 320 317 313 313 312 313 313 313 314
315 315 316 316 315 317 316 315 317 323 314 314 315 316 316 316 315 316 316 318 316 315 315 313 314 315 317 315 314 318 314 316 316 318 318 319 319 318 314 314 313 312 312 313 313
315 315 315 316 315 315 314 315 322 316 315 315 315 315 316 316 316 316 316 316 315 315 316 315 314 314 315 314 314 314 316 314 314 317 322 317 317 319 316 313 314 314 314 313 313
314 315 315 317 317 315 314 319 318 317 316 315 315 314 313 314 315 314 314 315 317 315 318 316 316 316 314 317 316 317 315 319 323 324 324 315 317 317 314 313 313 314 312 313 313
314 314 315 318 316 316 316 318 318 316 316 314 314 314 315 314 315 315 315 316 315 315 317 319 318 317 316 316 316 317 317 321 319 322 321 315 318 318 314 313 314 313 312 312 313
314 315 315 315 315 316 322 316 315 314 314 315 315 316 316 317 315 315 315 316 315 315 318 319 318 315 316 315 315 318 320 314 315 306 319 318 317 314 313 314 313 312 312 312 312
315 314 318 318 316 320 316 313 314 313 315 315 317 316 317 318 317 316 316 315 315 314 314 316 319 315 315 315 315 317 314 319 319 321 320 319 318 318 315 314 313 312 312 312 312
315 317 320 318 323 319 313 310 313 316 316 316 317 318 317 318 316 316 316 315 314 315 314 313 315 315 314 316 317 318 317 316 316 317 321 319 319 315 315 313 313 312 312 313 313
318 317 322 323 316 309 312 313 316 316 317 316 315 316 317 316 317 318 318 316 314 315 317 313 313 314 315 313 313 314 315 314 316 315 316 316 316 312 313 312 312 312 312 313 312
320 320 321 320 313 308 313 315 315 316 314 315 316 316 315 315 317 317 316 315 316 315 316 313 314 314 311 312 312 316 315 312 311 312 317 318 316 311 311 313 312 312 312 312 311
318 316 319 316 313 313 314 315 316 316 315 315 315 315 315 315 315 317 317 316 316 315 314 313 312 313 314 311 312 314 314 313 315 318 316 316 315 315 314 313 312 311 312 311 310
317 315 315 312 314 313 314 314 316 316 315 315 316 315 315 314 315 317 316 315 314 314 314 313 316 313 313 313 312 313 314 313 315 315 317 316 315 314 314 312 311 311 310 310 310
318 317 315 314 314 313 309 315 316 315 315 316 316 315 314 315 313 316 316 314 315 314 313 310 314 312 312 310 310 311 312 312 313 314 314 314 315 313 310 311 311 310 309 310 309
318 317 318 308 308 310 311 314 315 314 314 315 315 313 311 315 315 315 315 314 313 314 312 312 311 310 312 308 309 312 309 312 312 312 313 313 312 310 311 311 310 310 309 307 304

GFSSW_850_thetae_018.txt.gz
Theta_e
311 310 310 310 310 310 311 310 311 313 312 313 315 314 311 315 317 317 318 317 317 317 315 316 317 316 314 313 313 314 318 317 316 317 317 315 317 316 320 323 323 324 326 328 333
312 311 310 310 310 311 310 310 312 313 312 315 315 312 315 317 317 318 317 317 318 317 317 317 316 314 316 316 316 318 318 317 316 317 317 316 316 316 318 318 320 323 326 330 335
312 311 311 310 310 311 311 311 313 311 314 315 316 312 317 317 318 318 317 317 318 317 317 316 316 317 317 318 318 318 318 317 315 316 316 316 316 315 316 318 318 319 324 331 334
312 312 311 311 311 311 311 313 312 313 314 316 316 313 315 315 319 318 317 318 318 317 317 317 318 318 318 318 317 317 316 316 315 315 316 316 316 316 317 317 317 319 323 329 331
312 312 312 312 311 311 312 312 312 314 315 317 316 315 317 319 318 318 318 317 318 318 319 319 318 319 318 318 319 320 319 318 316 315 317 316 318 318 317 317 316 321 326 327 327
312 312 312 312 312 312 313 312 313 314 317 318 315 317 318 318 317 316 318 317 319 319 319 319 320 320 320 320 321 319 319 319 318 318 317 319 319 318 317 317 317 319 323 326 326
311 312 312 311 312 313 312 313 313 316 317 316 316 317 318 318 316 315 316 317 318 319 320 319 319 320 321 322 319 319 320 321 319 319 319 317 320 319 317 316 317 318 320 324 326
311 311 311 312 313 312 313 313 316 317 318 316 317 317 318 316 316 314 315 317 318 319 319 318 318 318 320 318 318 319 320 320 320 320 319 320 321 320 319 318 318 318 318 322 325
313 313 314 314 313 313 313 316 316 317 317 317 317 319 317 316 316 314 315 318 319 319 319 317 317 319 318 321 320 319 318 318 320 318 320 320 321 321 318 316 319 319 318 319 323
314 314 314 314 314 313 315 316 317 317 317 317 317 317 316 316 315 315 318 318 318 318 319 319 320 321 320 319 317 318 318 319 319 319 319 320 321 319 317 316 318 319 318 317 321
315 315 315 314 314 315 316 315 316 317 316 316 316 316 316 316 317 316 317 316 317 319 321 318 321 321 319 319 319 318 319 319 318 318 320 321 321 318 317 317 318 318 317 318 322
316 319 318 315 315 316 317 319 316 316 316 315 315 316 317 318 318 318 317 318 319 320 319 320 320 318 318 318 318 319 319 319 319 318 320 321 320 318 317 317 317 318 318 319 318
318 317 320 318 318 317 317 317 315 315 317 316 316 316 316 318 318 318 317 317 319 319 320 319 317 316 318 320 321 320 320 320 320 320 320 321 321 319 317 317 317 317 317 317 317
317 318 317 318 318 316 316 317 316 316 318 317 317 317 316 316 318 317 316 317 318 319 318 318 317 319 320 320 320 320 318 320 320 321 322 321 323 320 318 318 317 317 317 316 316
315 316 316 316 318 318 316 316 318 322 321 317 317 317 318 318 317 318 317 319 319 319 319 317 319 320 321 319 319 321 319 320 321 322 322 323 323 322 319 318 318 318 317 316 315
315 315 316 316 317 317 315 316 324 325 319 318 318 318 319 319 318 318 318 317 317 320 319 319 317 319 320 318 318 319 320 320 321 324 326 322 323 323 321 318 318 318 317 317 316
315 315 315 315 316 315 314 321 322 322 319 318 319 319 319 320 319 319 320 320 321 321 321 320 320 320 319 320 320 321 322 324 327 327 326 320 322 322 318 318 317 317 317 317 316
314 315 315 315 315 314 315 326 321 320 319 317 318 319 319 319 319 320 320 320 320 320 321 321 322 321 319 320 321 321 322 325 324 324 323 320 321 321 317 317 316 316 316 316 315
314 315 315 317 315 315 323 326 323 320 318 318 319 320 320 319 320 320 320 320 319 319 322 321 321 319 318 318 319 321 323 319 322 316 325 321 321 319 317 317 316 315 315 315 315
316 315 315 315 315 317 325 319 319 317 318 318 320 320 321 321 321 320 320 318 319 318 318 319 322 318 318 318 319 321 319 323 322 328 319 318 319 319 320 319 317 316 315 315 315
315 319 318 316 320 322 325 320 318 316 318 320 320 321 321 321 321 321 320 318 318 318 318 317 319 318 318 320 321 321 321 320 320 321 321 319 317 320 318 317 316 315 315 315 315
316 322 320 322 322 318 321 319 317 319 318 319 320 321 321 321 321 321 321 320 316 318 319 318 319 317 316 317 317 318 319 318 317 317 319 320 318 316 316 316 315 315 314 314 314
322 322 322 321 327 324 318 318 318 319 318 319 321 320 320 321 322 321 320 317 317 319 320 318 319 316 316 318 317 319 318 317 317 317 319 321 319 315 315 315 315 314 314 314 313
321 329 320 318 316 320 321 320 320 317 318 318 319 319 320 321 320 321 321 318 317 317 314 316 318 316 314 314 315 315 315 315 316 319 318 318 317 316 315 315 314 314 314 313 312
318 322 319 325 321 320 320 320 320 320 318 318 319 320 321 321 320 321 320 319 317 315 317 319 317 317 316 315 315 316 315 315 316 317 318 317 316 316 315 314 314 314 313 312 311
321 321 317 317 318 320 318 320 320 318 319 319 320 319 318 318 317 319 317 317 316 317 318 317 318 316 316 315 314 315 315 315 315 316 316 316 316 314 313 313 314 313 312 311 311
317 317 321 312 317 322 321 320 319 319 317 318 319 319 319 318 317 317 317 317 316 317 318 318 318 317 320 313 314 318 315 315 315 315 315 316 315 313 314 313 313 312 311 310 308

GFSSW_850_thetae_021.txt.gz
Theta_e
312 311 311 310 310 310 310 310 310 311 313 312 314 314 312 316 317 318 320 318 318 316 314 316 318 319 317 317 317 318 321 320 319 319 318 317 318 317 319 321 322 322 326 326 330
312 312 311 310 310 310 310 310 310 312 312 314 314 312 316 317 318 319 317 318 318 316 317 319 319 317 318 318 318 320 320 319 319 319 319 317 318 317 320 320 320 322 323 329 331
312 312 311 311 310 310 310 310 311 313 314 315 314 314 317 317 321 319 317 318 317 316 319 319 317 318 319 319 319 320 320 318 317 317 317 317 317 316 318 319 320 321 322 328 330
313 312 312 311 310 311 311 311 313 312 314 315 314 316 317 316 321 319 317 318 317 317 319 319 319 319 320 320 319 319 318 317 317 316 317 318 317 317 318 319 319 320 323 327 329
313 312 312 311 311 311 311 312 312 314 315 316 314 314 316 321 319 318 317 319 319 319 320 319 319 319 319 319 318 319 318 317 316 316 317 317 318 319 318 318 317 320 323 326 329
313 312 312 312 311 311 312 312 313 314 316 316 314 314 318 321 318 318 317 318 320 319 319 319 320 319 319 319 321 320 320 321 319 319 319 320 320 319 319 318 318 320 323 325 326
312 313 312 312 311 312 312 313 314 316 317 315 315 316 321 319 318 317 317 318 319 320 320 320 320 319 320 322 321 321 321 322 321 321 321 320 320 320 320 319 319 319 320 323 324
311 312 312 311 312 312 313 313 316 317 317 316 316 317 321 317 318 317 317 318 319 320 321 320 320 322 322 321 320 321 322 323 322 321 321 321 323 321 320 321 320 320 320 321 324
311 311 311 313 312 313 313 315 316 317 317 317 317 321 319 316 317 316 317 318 319 321 320 319 321 321 321 322 322 321 322 320 322 321 321 322 323 323 322 320 320 320 321 320 322
313 313 313 313 312 313 314 316 317 317 317 317 319 319 316 317 316 316 317 319 321 321 321 321 321 323 322 322 322 321 320 320 320 322 320 321 321 323 320 320 321 321 321 321 321
314 314 314 313 313 314 315 315 317 319 318 319 318 318 317 316 316 318 318 319 320 321 323 321 323 323 321 320 320 320 320 321 321 321 321 322 322 321 321 321 322 321 321 321 322
315 314 314 314 314 315 316 323 322 319 318 317 317 318 318 318 318 319 319 320 321 322 321 320 322 320 320 320 321 321 321 322 321 321 321 323 322 321 320 321 321 322 322 323 322
319 319 315 315 315 316 324 323 316 317 318 318 318 318 318 319 319 319 319 319 320 319 319 322 321 319 321 321 322 323 322 323 322 322 322 322 323 321 320 320 319 320 320 320 319
318 319 318 317 319 321 324 316 316 317 321 317 318 318 318 319 320 319 319 319 319 319 320 321 320 321 321 322 322 323 321 322 322 322 324 323 325 322 321 321 320 320 319 319 319
317 317 318 320 321 320 319 316 315 320 324 319 319 318 318 320 320 320 319 320 320 320 321 321 321 322 322 322 321 323 322 322 323 324 324 323 323 323 321 321 320 320 319 319 318
315 316 316 317 320 319 316 317 317 329 322 319 319 321 321 320 320 320 320 320 321 321 321 321 320 322 322 321 320 322 323 323 324 325 326 325 324 325 323 322 321 320 320 320 319
315 316 317 318 322 316 315 322 321 327 320 319 320 321 321 321 321 322 322 323 324 324 324 322 322 322 321 323 323 323 324 328 329 328 328 324 322 325 322 321 321 320 319 319 319
315 315 316 315 316 315 315 324 327 322 320 320 320 321 322 321 322 321 322 323 322 322 322 323 326 322 321 322 323 323 324 328 326 326 325 323 321 325 321 319 318 318 318 318 318
315 315 318 315 315 314 322 327 324 321 320 320 320 321 321 321 322 322 322 322 321 322 324 323 324 321 321 321 322 323 325 322 325 323 325 322 323 322 320 320 319 318 318 318 317
319 319 321 317 315 316 327 323 322 320 320 320 322 322 322 322 323 323 323 321 321 319 320 321 325 320 320 320 322 322 321 326 324 326 321 319 319 321 322 321 320 318 317 317 317
320 318 320 315 315 322 327 323 320 319 320 322 322 322 323 323 323 323 322 320 320 320 319 319 320 321 319 322 321 322 323 322 320 321 322 320 319 320 319 319 318 316 316 317 316
320 323 317 316 321 323 325 321 319 320 321 322 322 322 323 323 323 323 323 323 319 320 321 319 320 319 318 319 320 320 321 320 320 317 320 321 320 318 318 317 317 317 316 316 315
321 323 319 321 329 328 322 321 321 321 321 322 323 322 323 323 324 323 322 320 319 320 322 320 322 320 319 320 320 320 320 318 317 317 317 325 320 317 317 317 316 316 316 315 315
322 328 322 323 323 322 323 322 322 320 321 321 322 322 323 323 323 323 323 320 320 320 316 318 320 318 319 318 317 316 316 316 317 319 320 320 318 318 317 317 315 315 315 315 314
323 325 323 326 324 323 323 322 322 321 321 321 322 322 322 323 323 323 322 321 319 317 319 320 320 319 318 317 316 316 316 316 316 317 319 318 318 318 317 316 315 315 314 313 313
321 323 322 324 322 323 319 322 321 321 321 321 322 322 321 322 319 321 320 318 318 319 320 318 320 319 317 316 315 316 315 316 316 317 317 317 317 316 315 314 315 314 313 313 312
318 321 323 319 323 324 323 322 321 321 320 320 321 320 322 320 320 320 319 318 318 319 319 320 320 318 320 317 317 321 317 316 316 316 316 317 316 315 315 314 314 313 312 313 310

GFSSW_850_thetae_024.txt.gz
Theta_e
312 312 312 311 311 310 310 310 310 310 310 313 312 313 312 314 317 317 320 319 318 316 313 314 319 319 319 318 318 319 322 323 322 323 319 319 319 318 320 322 322 325 326 330 331
312 312 312 311 311 310 310 310 310 310 312 312 314 313 313 317 317 321 320 318 317 314 314 319 320 320 319 319 319 320 321 319 320 320 319 318 318 318 320 320 321 325 328 330 329
313 312 312 312 311 310 310 310 310 311 313 314 314 312 316 317 319 320 318 318 315 315 320 321 318 318 319 319 320 320 319 319 318 318 318 318 317 318 320 319 321 322 329 330 329
313 313 312 312 311 310 310 310 311 313 313 314 314 314 316 316 323 319 318 318 315 317 320 319 318 319 320 320 319 319 318 318 317 317 318 317 317 317 318 319 320 321 323 329 329
313 313 312 312 311 311 310 310 312 312 314 315 314 315 316 319 320 318 318 319 318 319 321 320 320 320 320 320 319 319 317 317 317 317 318 318 318 318 318 318 319 322 324 328 328
313 313 312 312 311 311 311 312 312 314 315 316 314 316 316 322 319 319 318 319 320 319 319 320 320 319 319 319 320 319 319 319 318 319 318 319 320 319 319 318 318 321 324 326 328
312 312 312 312 311 311 312 312 314 314 316 316 314 315 321 321 318 318 318 319 320 321 321 320 320 319 320 321 320 320 321 321 321 320 320 319 320 320 319 319 318 319 321 324 325
312 312 312 312 311 312 312 314 313 316 316 315 313 314 323 319 318 317 317 318 319 320 321 320 320 322 323 321 320 320 322 322 322 322 322 321 322 321 320 320 319 320 319 320 324
311 311 312 311 312 312 313 313 316 317 316 315 315 316 323 317 317 317 317 319 319 320 321 319 320 321 321 321 321 321 322 323 323 321 322 322 322 322 321 322 321 321 321 321 321
311 311 311 312 312 313 313 315 316 316 317 317 320 322 319 318 317 317 317 319 320 321 321 321 321 322 322 322 323 322 320 320 320 321 319 320 321 323 321 321 321 321 320 321 321
313 313 313 312 312 313 315 316 318 319 320 320 318 319 317 316 315 318 318 320 321 322 323 321 322 323 321 320 320 320 320 320 321 321 320 320 321 322 321 322 322 322 322 323 324
314 314 313 313 313 314 316 324 324 322 320 318 318 318 318 319 318 318 319 321 321 322 322 320 322 321 320 320 320 321 321 322 322 321 320 322 322 322 321 322 322 322 323 323 322
315 314 314 313 314 315 322 327 324 319 319 318 319 318 319 320 320 319 320 320 321 321 319 323 321 320 320 321 322 322 322 324 322 322 322 321 322 321 321 321 321 321 322 321 320
319 316 314 315 316 320 325 319 321 319 320 317 318 317 318 320 320 319 319 320 319 320 320 322 320 320 321 322 322 322 323 322 322 322 322 323 323 322 321 321 321 320 320 319 319
318 320 317 318 325 322 325 317 316 321 327 319 319 319 318 320 320 320 319 319 321 320 321 322 321 322 323 322 321 322 322 322 322 323 323 323 324 324 322 321 321 321 320 320 319
316 318 318 319 323 325 320 316 315 332 327 319 319 321 320 320 321 320 320 321 322 320 322 322 321 322 322 321 321 321 324 324 324 324 331 324 324 324 322 322 322 321 321 320 320
315 316 320 322 326 317 316 319 322 329 320 320 320 321 321 321 322 322 322 323 324 323 324 322 322 322 321 323 323 323 324 332 334 333 333 325 323 326 323 322 322 321 320 320 319
315 316 317 319 322 316 317 326 328 323 320 320 320 322 322 322 322 322 322 322 322 324 324 324 326 323 322 322 322 324 323 333 329 332 328 324 322 324 322 320 320 319 319 319 319
315 315 317 316 315 315 326 330 326 321 321 321 321 321 322 322 323 323 323 322 321 323 325 323 324 321 321 321 321 323 326 321 324 324 327 320 325 322 321 320 319 319 319 318 318
316 316 322 315 314 315 329 328 324 322 320 321 321 322 322 321 322 323 323 321 321 320 320 321 326 320 320 320 323 321 320 325 330 328 323 319 320 324 322 321 320 319 317 317 317
321 320 323 316 314 322 329 328 322 320 321 321 322 321 323 322 323 323 323 321 321 320 320 320 321 321 320 322 319 321 322 322 320 324 325 323 320 319 320 320 319 317 317 317 317
321 322 322 316 320 321 326 323 319 321 322 323 323 322 323 323 323 323 323 324 320 320 321 318 320 325 319 318 319 319 320 320 328 322 325 325 320 318 318 318 318 317 317 317 316
321 326 316 315 327 333 324 322 321 321 321 322 323 323 324 324 325 323 324 321 320 322 322 320 324 326 321 321 320 318 319 319 319 321 320 322 320 319 318 318 317 316 316 316 315
325 328 320 321 326 323 324 323 323 322 322 322 323 322 323 324 323 324 323 322 321 319 316 319 321 320 322 319 317 317 317 317 317 323 321 321 318 318 318 318 316 316 316 315 314
326 325 321 325 325 324 323 323 323 323 322 322 322 322 323 323 323 324 323 322 320 317 319 321 321 320 319 316 316 316 316 316 317 317 318 318 317 317 317 317 316 315 314 314 314
326 324 323 324 321 324 321 323 323 322 322 321 322 322 323 324 322 323 322 320 321 319 320 319 322 321 319 316 315 315 315 316 316 316 316 317 317 317 316 315 315 315 314 313 313
322 322 324 323 324 327 325 323 322 322 322 322 322 323 324 322 321 320 320 319 319 320 320 321 324 321 322 318 318 323 320 316 316 316 316 318 317 315 316 315 314 313 313 312 310

GFSSW_850_thetae_027.txt.gz
Theta_e
312 312 312 312 311 311 310 310 309 309 309 310 313 312 313 312 313 315 317 320 320 319 315 313 316 316 318 318 319 319 314 314 316 317 317 319 316 318 322 322 326 327 332 331 328
312 312 312 312 312 311 310 310 309 309 310 311 312 313 313 313 315 316 322 322 317 316 313 314 316 319 319 319 318 316 313 315 315 314 314 317 316 317 319 322 329 331 332 331 327
312 312 312 312 312 311 310 310 309 310 310 313 312 314 312 314 317 320 318 318 315 313 316 320 321 320 320 319 319 317 314 314 315 317 317 316 316 319 318 316 329 331 330 329 328
313 313 313 312 311 311 310 310 310 310 312 312 314 313 314 316 324 318 318 316 313 315 319 320 320 319 317 316 319 315 315 316 316 317 317 315 316 316 317 319 323 330 329 328 328
313 313 313 312 311 310 310 310 310 312 312 314 314 314 315 316 320 318 318 319 317 317 320 321 321 318 317 318 318 313 315 316 316 317 318 317 316 317 318 320 322 329 329 328 328
313 313 313 312 311 310 310 310 311 312 314 314 314 314 315 321 319 319 318 319 319 320 321 321 320 319 319 319 316 317 316 316 316 317 318 317 318 318 317 319 322 327 329 328 328
312 312 312 312 311 311 310 311 312 314 314 316 314 314 315 319 319 318 318 318 319 320 320 319 320 320 321 320 319 318 317 315 316 318 317 318 317 317 317 317 320 322 326 327 328
312 312 312 312 311 311 312 312 313 313 316 315 314 315 315 320 319 318 317 318 317 320 320 319 319 321 321 319 319 318 317 317 317 318 318 318 316 316 318 318 319 319 320 326 327
311 312 312 311 311 312 312 313 314 316 316 315 314 315 323 318 316 317 317 319 319 319 320 318 320 321 320 318 316 317 316 319 319 319 319 318 318 317 319 319 319 318 319 319 322
311 311 311 311 312 312 313 314 316 316 316 315 316 323 321 319 317 317 317 319 319 321 320 320 321 318 316 316 319 318 318 320 318 319 317 316 317 317 320 321 320 320 320 321 324
311 311 311 312 312 313 314 316 317 318 318 317 319 321 317 316 316 317 318 319 320 321 320 321 318 318 317 318 318 319 319 317 318 318 319 318 316 317 320 320 320 321 322 322 323
313 312 312 312 312 313 315 321 326 325 320 319 319 318 317 318 318 318 318 320 320 320 320 319 319 318 319 319 319 319 320 321 318 319 318 318 319 317 319 319 321 321 321 321 321
314 313 312 313 313 315 318 327 325 323 320 318 318 317 319 319 319 319 320 320 320 320 320 319 319 319 320 320 321 321 321 320 320 319 319 319 319 318 318 320 320 320 320 320 321
315 314 313 313 314 315 318 326 324 317 316 318 318 317 318 319 319 319 319 319 319 320 319 319 319 320 320 321 319 323 322 321 321 319 319 317 318 318 318 318 319 319 319 320 320
319 315 314 315 325 324 326 324 317 319 318 317 319 317 318 320 319 319 317 320 320 319 320 320 320 321 322 321 320 322 321 321 321 320 320 320 319 317 319 319 318 319 319 319 319
317 317 316 319 324 324 323 316 315 325 321 320 319 319 317 320 321 319 319 321 321 319 318 319 321 320 320 321 320 320 322 322 321 321 321 323 322 322 318 320 320 320 319 319 319
316 318 320 322 326 320 316 315 319 324 321 318 319 320 320 320 321 320 320 321 321 321 321 320 321 320 321 321 321 320 321 322 323 322 322 326 325 325 321 320 320 319 319 319 319
316 317 319 319 323 316 317 323 327 323 319 318 320 321 321 321 321 321 320 320 319 323 323 323 323 319 320 320 320 321 321 319 326 323 322 321 324 321 318 319 320 319 319 319 318
315 315 316 316 317 316 325 324 325 323 320 320 320 321 321 322 322 322 320 320 318 319 323 324 321 320 319 319 320 320 320 319 320 321 317 319 320 319 318 318 319 318 318 318 318
315 315 317 315 315 315 325 325 324 321 320 320 321 321 321 320 321 322 322 321 320 319 320 320 322 319 319 319 322 319 318 319 319 321 322 318 323 324 319 319 319 317 317 317 317
316 318 320 318 314 319 322 327 322 320 321 322 321 321 323 320 321 323 322 321 320 320 317 318 320 319 318 318 318 318 320 319 319 316 318 316 316 318 320 319 319 316 317 316 316
322 319 324 316 318 322 322 325 320 320 321 323 323 321 323 321 323 323 323 321 319 320 319 317 318 315 318 318 318 318 319 319 314 319 313 313 315 316 315 317 316 315 316 316 315
322 323 322 317 316 316 323 322 321 320 321 322 322 323 322 323 323 324 322 320 321 319 319 318 318 316 318 319 319 317 318 318 318 311 314 308 311 315 317 317 316 315 315 314 314
324 320 320 323 326 325 325 322 323 322 322 322 322 322 323 323 323 324 322 321 319 317 315 319 319 316 316 317 315 315 315 315 316 312 314 313 316 315 317 317 314 314 314 314 313
324 322 318 316 318 322 323 322 323 322 322 322 321 322 322 322 323 323 322 321 320 316 319 318 319 318 318 315 315 314 314 314 315 314 313 313 316 316 314 314 314 313 313 313 312
325 326 317 318 316 322 320 322 323 322 321 321 321 321 321 322 322 322 321 319 320 317 319 318 316 316 315 316 314 314 313 315 315 315 315 315 316 315 314 313 312 312 312 310 309
323 321 326 324 318 321 321 323 323 322 321 322 321 320 317 319 318 318 318 318 319 318 318 319 312 310 313 314 313 312 315 316 315 315 315 314 314 313 311 311 311 310 310 308 306

GFSSW_850_thetae_030.txt.gz
Theta_e
312 312 312 312 312 312 311 310 309 309 308 309 309 312 312 312 312 312 314 319 319 318 318 314 314 314 317 318 318 318 313 312 313 318 318 317 318 322 331 332 327 331 327 325 324
312 312 312 312 312 312 311 310 310 309 309 309 310 313 312 313 313 315 320 321 320 317 315 314 314 316 318 318 318 316 311 313 313 315 314 315 319 320 325 330 330 330 328 325 324
312 312 312 312 312 312 311 310 310 309 309 310 312 312 313 313 316 318 321 317 317 317 315 314 315 319 319 319 318 313 312 313 314 315 317 316 317 319 325 327 330 329 327 325 324
312 313 312 312 312 312 311 310 310 309 310 311 312 313 313 315 320 319 318 316 316 315 315 317 319 320 316 315 317 313 313 316 315 315 315 314 316 316 319 326 327 330 330 327 326
313 313 313 312 312 311 310 310 309 310 311 312 313 313 314 316 317 318 318 318 318 318 317 318 320 320 315 316 314 312 314 315 317 316 315 315 315 317 316 325 328 330 328 327 327
313 312 312 312 312 311 310 310 310 310 312 313 313 314 315 318 320 318 318 318 319 319 320 319 320 319 318 316 314 315 315 315 316 317 317 316 316 318 317 325 330 329 328 326 326
312 312 312 312 311 310 310 310 310 312 313 313 314 314 315 317 320 318 318 318 318 319 320 320 319 321 320 316 316 315 313 314 315 317 316 318 317 314 319 328 329 329 328 327 327
311 312 312 312 311 310 310 311 312 313 313 315 314 314 315 320 320 318 317 317 318 320 320 318 320 320 319 318 317 316 314 316 316 315 317 316 315 316 319 326 328 329 328 328 328
311 311 312 311 311 310 311 312 312 313 315 315 314 315 315 320 318 317 317 319 318 318 317 318 320 321 319 314 314 314 315 316 318 316 317 317 316 315 316 321 323 323 321 324 325
311 311 311 311 311 311 312 312 314 315 315 315 318 320 316 319 317 316 316 318 319 320 319 320 320 315 313 314 316 317 315 317 317 317 317 314 316 315 316 316 316 318 322 324 325
311 311 311 311 312 312 313 315 316 317 316 313 315 320 319 318 317 317 316 317 320 321 319 320 317 316 316 315 316 318 316 316 317 317 318 314 315 317 316 320 320 321 321 322 324
312 311 311 312 312 313 315 320 326 325 317 313 317 318 318 316 317 317 318 319 319 319 319 316 317 317 317 318 319 319 319 318 317 318 315 315 315 315 317 319 320 320 321 321 321
313 312 312 312 312 314 319 325 324 323 323 318 318 318 318 319 318 318 319 320 319 318 318 317 317 318 320 318 319 320 319 319 319 318 317 315 317 318 317 319 319 320 321 320 320
313 313 312 313 313 314 316 325 322 320 313 317 317 317 318 319 318 318 318 319 319 318 316 317 318 319 320 319 318 322 320 320 319 317 317 316 315 317 316 316 317 318 320 320 319
314 313 313 314 324 317 324 325 319 324 313 315 317 317 318 319 318 317 318 320 319 318 317 319 319 319 320 320 319 320 319 320 320 318 319 319 315 316 317 318 317 317 319 319 319
317 314 314 320 326 324 323 318 319 321 317 318 318 318 317 319 318 318 319 320 320 318 316 318 320 319 319 319 319 319 321 320 319 318 319 321 319 317 317 318 318 317 318 319 318
318 316 319 322 323 322 318 317 316 319 319 317 317 317 318 318 319 319 319 318 320 318 319 319 320 319 320 320 319 318 320 319 322 319 320 323 324 321 319 319 319 317 317 318 318
317 318 322 321 322 318 316 317 324 323 319 317 319 319 319 319 319 320 319 319 317 321 319 320 321 319 318 319 319 319 320 317 324 320 319 319 322 319 318 319 319 319 318 318 318
317 318 318 318 320 317 321 320 322 321 318 318 319 320 320 320 319 319 319 318 318 318 321 321 320 319 318 318 318 319 318 317 318 315 314 318 319 318 317 318 318 318 318 318 318
315 316 316 315 315 316 322 321 323 319 320 318 319 319 319 319 320 320 320 319 319 318 317 319 320 319 319 318 319 317 316 319 315 319 322 317 321 322 319 318 317 317 317 317 315
316 314 316 315 314 316 319 322 323 320 321 320 320 319 319 319 319 321 320 320 318 319 315 318 317 317 318 316 317 316 318 317 316 313 316 315 315 315 318 318 316 315 316 315 314
320 315 321 319 313 317 318 322 320 319 321 321 321 322 320 319 322 322 321 320 320 320 316 316 314 313 317 317 317 317 318 316 313 317 311 311 313 314 314 315 315 316 314 313 312
320 326 323 317 309 310 317 321 320 319 319 321 321 321 321 321 322 322 320 319 317 318 319 316 315 313 316 316 316 316 317 317 313 308 313 307 310 312 315 314 313 313 313 312 312
321 316 321 322 322 316 323 320 322 321 321 321 321 321 321 321 321 322 321 320 316 315 316 318 316 314 315 316 313 314 314 315 314 310 312 311 313 312 314 312 312 312 312 312 312
324 319 316 313 315 321 321 320 322 321 321 321 320 321 320 321 322 321 320 320 319 316 318 315 317 317 316 313 314 313 313 312 313 313 313 312 313 314 312 311 312 312 311 310 309
324 324 316 314 313 318 318 320 321 321 320 320 320 320 319 320 319 321 319 318 318 316 318 315 314 313 312 314 313 312 311 313 313 314 314 313 315 312 311 312 311 311 310 309 307
323 323 316 320 313 316 318 319 321 320 321 321 319 316 315 318 317 317 317 318 318 316 317 315 309 307 307 310 310 309 314 315 314 312 313 312 312 310 310 310 310 309 308 305 304

GFSSW_850_thetae_036.txt.gz
Theta_e
310 310 311 311 312 311 312 312 311 311 310 309 308 308 308 309 312 312 312 311 317 316 317 316 315 314 315 317 317 315 312 312 313 321 324 325 325 329 329 329 328 328 332 336 334
310 310 311 311 312 312 312 312 311 311 310 309 308 308 309 311 312 312 312 312 315 319 319 316 315 315 317 317 317 314 312 313 314 317 324 326 325 326 328 328 325 326 331 333 325
310 311 311 312 312 312 312 312 311 311 309 309 308 309 311 312 312 315 319 318 318 318 318 316 316 315 317 317 316 313 313 311 314 319 321 319 321 326 328 328 326 328 333 329 318
311 311 312 312 312 312 312 312 311 310 309 308 309 311 312 312 316 318 317 317 317 318 317 316 315 317 318 317 317 314 312 312 313 317 317 320 320 327 326 325 326 326 326 325 319
311 312 312 312 312 312 312 312 311 310 309 309 310 311 312 313 315 318 318 317 317 317 316 315 316 318 317 314 314 312 312 312 313 314 319 317 318 325 317 327 326 326 326 324 323
311 312 312 312 312 312 312 311 310 309 309 309 311 312 313 315 317 319 318 318 317 317 317 316 317 319 318 315 312 312 312 312 313 313 313 314 313 317 317 328 326 326 325 324 323
312 312 312 311 311 312 311 311 310 309 309 311 312 313 313 315 318 318 318 317 317 318 319 319 318 319 317 314 313 312 312 312 313 314 314 316 315 315 323 327 325 325 325 324 324
313 312 311 311 311 311 311 310 309 309 311 312 313 314 313 315 317 318 318 317 317 318 319 319 318 318 316 314 314 313 311 312 313 314 313 313 312 313 326 327 325 324 323 323 323
313 312 311 311 311 311 310 310 310 311 311 313 314 314 315 316 319 318 317 317 318 318 319 318 318 317 315 311 311 311 314 315 316 314 314 314 315 310 326 327 325 325 325 325 324
313 312 311 311 311 310 310 310 311 311 313 314 318 317 315 317 317 317 316 316 319 319 318 320 318 312 311 311 313 314 315 315 316 315 313 312 313 312 316 325 322 323 323 324 325
313 312 311 311 310 310 310 311 314 314 315 313 314 315 318 317 317 316 316 316 319 319 317 317 313 313 314 314 314 315 314 315 314 314 312 315 315 314 317 319 319 320 321 323 325
313 311 310 310 310 310 311 315 318 321 319 314 313 315 314 316 317 316 316 318 318 316 317 314 315 315 316 315 315 314 314 316 316 313 314 316 315 314 316 317 318 318 319 323 325
313 311 310 310 310 311 314 323 322 323 321 318 313 313 317 317 317 316 318 319 317 317 315 315 316 316 317 317 318 318 317 318 317 315 313 314 314 315 316 318 318 319 320 322 324
312 311 310 310 311 312 318 325 324 324 312 314 316 317 317 318 317 318 318 318 316 316 314 316 317 317 316 317 317 320 318 317 316 313 316 313 316 317 316 317 317 318 318 319 320
312 311 311 311 314 314 317 324 322 323 313 313 316 316 317 317 317 317 318 319 316 316 315 318 318 317 317 318 317 319 316 317 316 315 314 315 316 314 316 319 317 317 317 318 318
313 312 312 315 318 315 323 318 321 316 317 315 316 315 316 317 317 317 319 319 317 315 315 316 317 316 317 317 317 316 318 316 315 315 317 318 315 314 316 317 316 316 317 317 317
313 313 312 320 321 317 319 321 313 316 316 316 315 315 316 317 316 316 317 316 316 317 318 317 317 315 317 319 317 316 317 317 320 317 319 317 317 315 314 314 316 316 318 317 317
315 313 313 322 323 319 320 311 316 317 316 314 314 315 317 317 317 317 317 317 315 315 316 318 318 317 315 317 318 318 316 317 324 320 318 316 320 318 314 315 318 318 318 318 317
316 315 317 324 323 316 317 311 313 317 316 316 316 317 318 318 317 316 316 316 316 316 318 318 318 317 316 316 317 318 315 313 315 312 312 315 317 316 314 314 316 317 318 318 317
316 317 323 322 318 318 312 312 318 319 317 316 316 317 318 318 318 317 318 317 316 314 316 317 319 315 316 316 314 315 314 317 312 316 319 315 317 318 317 316 314 314 316 316 315
317 320 320 316 317 316 311 313 321 323 318 317 317 317 317 317 317 318 318 317 316 317 315 315 313 314 316 314 316 315 315 312 313 311 314 312 314 311 316 315 315 314 316 316 314
320 313 320 316 312 311 315 318 321 317 319 319 318 317 316 317 320 319 319 318 317 318 315 314 311 313 316 314 314 314 315 311 307 312 308 309 311 311 310 314 315 315 314 313 312
317 324 322 317 310 309 313 318 319 317 318 319 320 319 318 319 319 319 319 317 316 316 314 313 312 313 314 312 313 316 315 311 308 307 311 307 308 310 311 312 314 312 311 311 310
319 317 323 320 310 311 315 318 319 319 319 318 318 318 318 320 317 318 319 317 314 314 316 313 312 312 314 312 312 312 314 312 311 309 310 309 310 313 312 310 309 310 310 310 310
319 316 319 315 316 311 313 316 319 319 319 318 318 318 318 320 319 319 319 317 314 315 315 311 314 314 311 311 311 311 311 312 312 310 311 310 309 309 311 309 309 310 310 310 309
321 316 313 312 318 315 314 318 318 319 319 319 318 318 318 317 317 318 317 315 312 314 314 311 312 311 313 310 310 311 309 308 309 309 309 310 310 309 310 311 310 310 310 309 308
322 318 317 310 312 313 314 317 318 318 319 318 317 315 316 317 317 316 315 314 313 314 313 310 307 307 308 306 304 305 307 308 309 309 308 311 309 308 309 310 310 310 309 309 306

GFSSW_850_thetae_039.txt.gz
Theta_e
309 309 310 310 311 311 311 311 311 311 311 310 309 308 308 308 309 310 311 312 314 311 313 316 314 313 313 315 317 314 316 316 321 329 328 325 327 325 327 329 328 328 335 336 336
309 309 310 310 311 311 312 312 312 311 311 310 309 308 308 309 311 312 314 312 311 316 318 316 315 315 316 316 317 315 317 317 317 327 328 327 327 326 329 328 325 329 334 337 334
309 309 310 311 311 312 312 312 312 311 311 309 308 308 309 311 311 314 317 315 315 315 317 316 315 314 315 316 315 314 318 315 315 322 326 323 324 328 329 330 326 330 336 334 328
308 309 310 311 312 312 312 312 312 311 310 309 308 308 311 312 316 318 317 318 318 317 316 317 315 315 318 317 316 316 313 312 315 321 319 323 324 328 328 325 327 328 333 328 323
309 310 311 312 312 312 311 312 311 311 310 309 308 310 311 312 312 317 318 317 317 317 316 316 315 316 319 317 313 314 312 311 317 315 321 322 325 328 322 326 326 331 331 323 315
309 311 311 312 312 311 311 312 311 310 309 308 309 311 312 314 315 318 317 317 317 316 317 316 316 316 318 315 314 312 312 310 311 315 318 315 315 323 320 325 328 329 327 323 317
310 311 312 312 311 311 311 311 310 309 309 309 310 311 313 313 317 317 318 318 316 316 317 317 316 318 318 314 312 312 314 313 313 314 314 314 314 314 320 325 327 328 326 323 320
311 312 312 312 311 311 311 311 310 309 309 310 311 312 312 314 315 317 318 317 317 317 317 317 317 316 317 314 314 314 314 315 314 313 313 314 315 312 324 324 324 324 325 323 321
311 312 312 311 310 311 311 310 309 310 310 311 313 314 314 315 318 318 317 316 317 318 317 317 317 316 313 315 316 315 315 316 315 313 314 315 315 314 325 324 323 322 323 323 323
312 312 312 311 310 311 310 309 310 310 311 313 315 317 314 317 318 317 316 316 318 319 318 317 316 315 314 315 317 317 316 315 316 315 316 315 317 316 318 323 321 322 323 323 323
312 313 312 310 310 310 309 310 312 313 313 313 313 315 318 315 317 316 316 316 319 318 319 316 318 318 315 314 313 314 315 316 315 313 319 318 319 318 318 320 320 320 322 323 324
313 313 312 310 310 310 310 313 314 319 319 314 313 314 314 315 317 316 316 317 318 318 316 317 317 315 316 315 316 315 317 317 315 314 318 319 320 319 318 318 319 320 320 323 325
313 313 311 310 310 310 311 319 323 322 322 317 313 313 315 316 317 316 316 318 316 317 315 318 317 315 317 318 320 318 319 318 318 316 316 318 320 320 319 318 317 318 320 324 327
313 313 311 309 310 310 313 317 324 325 314 314 315 316 316 317 316 317 318 318 316 316 315 318 316 316 317 318 318 321 317 316 316 317 320 315 320 319 320 320 319 318 319 321 322
313 313 311 310 312 311 317 316 324 323 316 314 315 316 317 316 316 316 317 317 316 316 316 318 317 317 319 317 316 320 317 317 316 318 318 318 320 318 320 323 321 319 318 319 319
313 313 311 310 314 313 317 324 323 319 318 314 315 315 316 316 316 316 319 318 316 317 317 317 316 316 317 316 316 317 319 318 318 320 323 319 319 319 322 322 322 319 318 317 317
313 313 312 311 317 315 321 321 316 319 316 315 314 315 316 316 316 316 317 318 318 320 320 318 318 316 316 319 317 319 320 323 324 326 324 318 321 322 317 317 322 320 318 317 316
313 313 312 312 324 322 319 313 317 316 317 313 313 315 317 316 317 316 317 319 316 316 318 320 319 317 315 318 320 319 320 326 324 326 324 317 323 322 317 315 319 319 318 317 316
312 313 313 315 325 323 318 314 316 314 316 315 315 317 317 317 317 317 316 317 316 316 320 321 319 316 315 316 317 319 318 315 319 314 319 318 319 318 316 316 317 318 317 317 317
313 313 313 315 324 321 313 313 313 317 316 314 315 316 318 318 318 318 318 317 316 314 315 318 320 315 315 315 315 318 315 321 318 319 318 317 318 321 319 318 317 318 318 317 317
312 316 316 320 322 319 313 312 318 321 318 315 316 317 316 318 317 318 318 317 316 316 315 315 318 317 316 316 318 318 318 315 316 316 317 318 316 316 319 318 318 318 317 316 316
315 314 322 321 312 309 314 314 321 318 317 318 316 316 317 317 319 319 320 318 317 317 318 314 315 318 317 314 314 315 316 315 316 314 313 315 317 312 314 316 316 316 315 315 315
318 320 322 320 313 311 312 317 318 317 317 318 319 317 317 319 320 318 318 316 316 315 317 314 315 318 317 315 314 316 315 312 310 312 315 322 315 311 313 313 315 315 314 314 313
318 318 320 320 311 312 315 316 319 318 318 317 317 317 319 319 318 319 319 316 314 314 314 313 313 317 320 316 314 314 316 312 315 317 314 315 314 311 315 314 311 312 312 312 310
318 317 319 316 313 311 312 316 318 319 318 317 318 318 319 320 319 319 318 316 314 315 314 314 316 314 312 311 311 311 312 314 314 313 317 313 313 313 312 314 312 310 310 309 309
317 315 313 312 313 312 314 317 318 318 318 318 319 317 317 319 318 320 318 315 313 314 314 311 316 311 313 311 310 312 311 310 312 312 312 311 313 310 310 311 310 309 308 308 309
320 317 315 308 312 312 313 316 317 318 318 316 317 316 317 316 316 314 314 313 313 315 313 311 312 312 314 307 306 311 311 312 310 310 313 314 314 311 311 311 311 309 309 310 309

GFSSW_850_thetae_042.txt.gz
Theta_e
308 309 309 309 310 310 311 311 311 311 311 311 311 310 308 308 308 309 310 312 312 313 317 314 314 314 315 316 318 317 319 324 331 332 331 331 328 327 327 329 330 330 335 338 337
308 309 309 309 310 310 311 311 312 312 311 311 310 309 308 308 309 310 313 313 312 313 313 316 315 315 315 317 318 319 320 321 327 331 328 325 327 326 328 329 329 332 336 338 335
308 308 309 309 310 311 312 312 312 311 311 311 310 309 308 309 312 315 317 316 312 315 317 317 315 315 316 317 318 319 320 321 319 328 326 323 327 328 327 331 330 331 336 337 337
308 308 309 309 310 311 312 312 311 311 311 310 309 308 308 311 318 318 317 318 315 315 315 317 316 316 316 317 317 318 318 317 318 326 324 328 327 329 329 326 328 330 337 336 334
307 308 309 310 311 312 312 311 311 311 311 309 308 308 310 315 316 316 317 317 317 317 316 317 317 316 318 317 318 318 317 316 323 323 322 325 327 329 326 328 330 335 336 332 329
307 308 309 311 312 312 311 311 311 311 310 309 308 309 311 317 313 316 317 317 317 317 317 317 317 317 320 320 319 318 314 316 318 322 321 325 327 328 326 329 332 335 332 326 324
307 308 310 311 312 311 311 311 311 310 309 308 309 310 311 316 315 317 316 317 318 317 318 318 317 318 320 319 313 314 314 314 315 319 320 322 325 319 324 328 330 330 328 324 321
307 309 311 312 312 311 311 311 310 309 309 309 310 311 316 313 314 316 317 318 316 316 317 317 317 318 318 315 315 316 317 318 317 320 316 319 319 319 326 328 329 328 326 324 322
308 310 311 312 312 311 311 311 310 309 309 310 311 313 317 315 316 318 317 316 317 316 316 317 318 319 316 317 317 317 317 317 317 317 319 319 319 319 326 326 328 327 326 325 324
309 311 312 312 311 310 311 310 309 310 310 311 313 319 315 318 317 317 316 316 318 317 317 318 319 319 318 318 318 319 316 317 317 318 318 319 321 320 326 326 326 327 327 326 325
309 311 312 312 311 310 310 309 314 315 311 317 315 318 316 316 317 317 315 317 319 319 320 320 321 320 319 319 319 320 320 318 318 318 321 320 322 321 326 327 327 327 326 326 326
310 311 313 312 310 310 310 313 315 318 320 314 314 314 314 314 318 316 316 318 318 319 321 321 321 320 319 319 320 319 320 321 320 318 322 323 324 322 323 327 327 327 327 327 327
311 312 313 312 310 310 309 311 320 322 324 318 317 316 315 316 318 317 317 319 318 319 321 321 321 319 321 321 321 321 322 322 321 320 322 323 324 324 322 323 324 325 327 327 329
311 312 312 311 310 310 310 312 317 323 322 316 317 316 315 318 318 316 317 318 320 320 321 322 319 321 322 322 322 322 320 321 321 322 322 321 322 325 325 323 323 324 326 328 327
311 312 312 311 310 310 313 314 318 324 317 317 317 316 317 318 317 318 317 319 319 320 320 322 321 321 322 321 320 322 320 321 321 322 322 322 322 325 325 325 324 324 326 326 325
311 312 312 311 310 312 314 319 325 325 320 317 317 317 318 318 317 318 319 318 319 321 321 321 319 321 321 320 320 321 323 323 323 323 323 322 322 319 324 325 325 324 326 325 323
311 312 312 311 313 313 318 323 323 322 317 318 318 318 318 319 318 319 320 320 320 322 323 321 321 320 320 322 322 323 322 321 322 324 323 323 323 321 322 322 325 325 325 323 320
312 312 313 311 314 321 322 323 320 317 318 317 317 318 317 319 319 320 321 321 320 321 322 321 322 320 320 322 322 322 322 321 318 321 322 322 324 325 322 321 321 324 324 322 319
312 312 313 311 311 322 321 324 319 319 319 318 317 318 319 319 319 320 322 322 321 321 321 322 321 319 319 321 321 322 322 321 324 320 324 321 323 322 321 321 320 324 323 320 319
312 313 313 312 312 318 322 321 319 320 318 318 317 318 319 320 319 320 321 320 320 319 321 322 322 320 319 319 320 322 320 322 322 321 318 318 319 319 322 322 321 324 322 320 320
313 315 315 312 313 318 323 320 318 321 320 318 317 319 320 321 320 319 321 320 319 320 321 322 322 321 319 320 321 321 322 320 320 321 318 317 317 321 321 322 322 323 321 320 320
315 317 316 314 319 322 322 319 319 321 321 319 319 319 319 321 321 319 321 321 319 320 322 320 323 324 322 318 318 320 321 320 319 318 320 321 317 317 320 321 321 321 321 321 320
316 320 322 317 324 322 318 318 321 319 321 321 321 321 321 322 323 322 323 318 318 320 322 320 322 324 322 320 319 320 320 319 317 319 319 325 316 317 318 319 320 321 320 320 318
316 323 321 318 319 320 319 318 320 320 321 320 322 322 323 323 322 324 323 319 317 318 313 316 321 322 323 321 321 320 319 318 318 319 317 318 315 316 317 319 319 319 320 318 315
318 319 320 324 321 318 319 319 319 322 320 320 322 323 323 324 323 324 322 318 318 316 318 320 322 319 317 316 316 317 318 319 318 318 319 316 315 314 315 316 317 318 318 317 315
318 320 318 321 318 317 316 319 319 321 322 322 323 323 323 324 323 325 323 321 322 319 321 318 321 318 319 316 315 316 316 316 318 318 318 317 317 317 315 315 316 316 316 315 314
318 317 318 315 318 317 318 319 319 322 320 319 323 323 324 322 321 321 319 318 319 322 321 320 320 319 318 313 314 319 317 317 316 317 317 318 317 316 315 315 315 315 315 315 314

GFSSW_850_thetae_045.txt.gz
Theta_e
308 308 309 310 310 310 310 311 311 311 312 312 311 311 310 309 308 310 313 315 315 313 314 317 316 315 315 316 318 318 321 323 326 328 335 331 329 327 326 326 328 331 334 336 338
307 308 309 309 309 309 310 311 312 312 312 312 311 311 309 308 308 313 314 313 312 313 313 317 318 316 316 317 318 320 322 323 329 330 332 331 329 326 326 325 329 334 339 339 337
307 308 308 309 309 309 310 311 312 311 311 312 311 310 308 308 317 318 318 317 313 314 315 317 317 316 316 317 319 320 322 323 329 326 327 325 325 327 328 326 326 329 337 339 339
307 307 308 308 309 310 311 312 311 311 312 311 310 309 308 310 322 320 317 318 312 316 317 318 316 316 317 319 319 321 320 320 321 327 325 325 327 327 327 325 329 331 337 337 336
306 307 307 308 309 310 312 312 311 311 311 311 309 308 309 319 317 319 317 317 316 315 317 318 317 317 318 318 319 319 321 319 324 324 323 326 329 327 324 325 326 335 335 335 335
307 307 307 308 309 311 312 311 311 311 311 310 309 308 315 317 316 317 318 317 318 316 318 317 318 317 319 320 320 320 321 322 324 324 324 326 329 325 326 327 331 334 333 331 328
307 307 307 309 310 312 312 311 311 311 310 309 308 309 317 315 317 320 318 318 319 319 319 319 318 319 320 322 318 319 322 321 322 324 324 325 326 324 326 327 330 330 328 325 322
306 307 308 310 311 312 311 311 311 310 309 309 309 312 318 316 317 318 319 319 319 319 319 320 320 319 321 318 317 318 318 321 321 323 323 324 323 323 326 327 327 326 323 322 321
306 307 308 310 312 312 311 311 310 309 309 309 312 318 319 317 316 318 319 319 319 319 319 318 319 320 321 318 318 319 318 320 320 322 322 323 320 323 325 327 327 325 324 322 321
306 307 309 311 312 312 311 311 310 309 310 311 316 320 318 319 318 319 318 317 320 320 320 320 321 323 321 319 319 319 319 320 321 321 321 319 321 324 325 326 328 327 326 325 324
306 307 310 311 312 311 310 309 315 319 317 318 318 317 318 319 318 318 317 318 320 320 321 321 322 320 320 320 320 320 318 319 319 319 319 319 321 323 325 325 326 328 327 327 327
307 307 310 312 312 311 310 316 318 322 323 316 315 316 317 317 319 318 317 318 320 321 320 322 322 322 321 320 319 319 321 319 320 319 321 320 322 323 326 326 325 326 328 328 328
307 308 311 312 312 310 310 315 320 321 325 320 317 317 318 317 319 318 318 319 320 320 321 323 322 322 321 320 320 320 321 323 322 321 320 323 323 325 325 326 327 327 327 328 328
307 308 311 312 311 313 315 312 318 318 326 320 318 317 317 318 319 318 318 319 320 319 320 323 322 322 320 320 321 322 323 322 322 323 322 323 322 325 326 326 327 327 328 328 330
308 309 311 312 317 315 320 317 320 325 326 318 318 318 318 318 318 318 318 318 320 320 320 322 322 321 321 323 322 324 322 322 322 322 322 324 322 324 327 326 326 327 328 329 330
308 309 312 312 311 316 319 325 323 329 326 318 318 319 319 319 318 318 318 318 320 320 321 321 322 323 324 322 322 323 323 323 323 322 325 322 323 322 326 326 326 326 327 329 328
309 309 312 314 316 318 316 326 327 326 319 318 319 319 319 319 319 318 319 319 320 319 321 322 322 322 322 323 323 323 323 326 325 323 324 324 323 321 323 324 325 326 327 328 327
309 310 312 313 315 317 323 327 327 320 320 318 318 319 319 319 319 318 319 318 319 321 320 322 324 322 322 324 324 323 323 323 320 321 322 324 320 325 325 324 324 326 327 327 326
309 311 313 313 313 321 322 329 325 320 319 318 318 318 319 319 319 319 320 319 320 321 320 324 322 322 322 322 322 324 322 324 324 327 323 319 322 325 324 324 323 326 327 326 324
309 315 315 316 312 321 324 325 323 320 319 319 319 319 319 320 319 319 320 320 321 322 323 322 323 322 321 322 322 323 323 323 322 322 320 319 319 323 323 322 323 326 326 326 323
313 317 316 316 312 321 326 324 322 319 321 319 319 319 319 319 319 319 320 322 322 323 323 322 322 323 321 321 321 324 323 321 322 322 322 319 320 320 320 322 323 324 326 325 323
314 319 319 315 315 320 324 322 320 320 323 321 320 319 320 320 321 320 319 321 322 322 322 322 322 322 323 322 322 322 322 322 322 321 321 324 319 319 320 321 321 322 324 324 323
316 319 321 316 319 326 322 323 321 319 322 322 320 320 320 321 321 321 320 322 321 323 322 323 321 321 323 322 322 322 321 321 321 321 321 328 320 320 319 319 319 320 322 322 322
317 323 319 321 316 323 323 323 321 319 322 321 320 320 321 320 321 322 322 322 321 322 317 319 320 321 323 322 323 324 322 322 321 323 320 319 319 318 319 318 318 318 319 321 322
316 320 319 323 322 323 323 322 320 320 321 322 322 322 322 321 322 323 324 323 321 318 319 323 323 322 321 321 320 321 320 320 321 321 322 320 317 316 317 317 317 317 318 319 321
319 319 318 318 318 323 321 322 320 319 322 323 322 321 322 323 324 323 325 324 324 322 323 322 323 322 322 321 320 320 320 319 319 319 318 318 318 318 317 317 316 316 317 318 320
317 321 319 321 323 324 324 322 319 320 324 323 322 321 324 324 325 324 323 323 324 325 325 324 324 322 322 318 318 320 320 319 319 319 319 320 319 318 318 316 316 316 317 317 318

GFSSW_850_thetae_048.txt.gz
Theta_e
308 308 308 308 309 310 310 310 310 311 311 311 311 312 311 310 309 308 311 315 316 315 312 316 318 316 316 316 317 318 319 321 323 332 332 329 329 328 329 329 329 330 335 336 335
307 307 308 308 309 309 309 310 310 311 311 311 311 311 310 309 308 308 316 315 313 313 313 316 318 318 316 316 317 319 321 321 328 330 328 326 329 328 327 328 327 338 340 341 337
308 307 307 308 308 309 309 310 311 311 311 311 311 311 310 308 315 320 318 318 317 313 312 316 318 318 317 317 318 319 321 323 328 325 325 325 326 329 327 327 327 337 339 339 340
309 307 307 307 308 308 309 310 311 311 311 311 311 310 309 308 324 319 317 317 316 313 314 317 319 317 317 318 319 319 322 322 329 326 326 325 327 325 326 326 324 335 339 337 337
308 307 307 307 308 308 309 311 312 311 311 311 310 309 308 321 319 319 318 317 317 314 318 318 318 317 318 318 319 320 321 321 321 327 325 325 326 325 326 326 329 335 334 336 336
308 308 307 307 308 309 310 311 311 311 311 311 310 308 311 319 317 318 320 318 319 315 317 318 318 318 318 321 320 320 322 323 324 324 323 324 322 321 326 334 335 333 332 332 334
309 308 307 307 308 309 311 312 311 311 311 310 309 309 317 315 318 320 320 320 320 320 319 319 318 319 320 322 320 322 322 322 323 324 325 327 326 325 326 331 331 330 330 331 327
310 307 307 307 308 310 312 312 311 311 310 309 309 310 318 317 317 317 319 321 321 320 320 321 321 320 320 321 318 320 321 322 321 323 324 324 329 326 326 328 329 328 327 324 321
311 307 306 307 309 311 312 311 311 310 309 309 311 319 320 319 317 318 318 319 320 320 320 320 320 321 321 321 320 320 318 319 321 321 323 324 324 324 326 326 326 325 324 322 321
312 308 306 307 309 311 312 311 310 309 311 310 312 318 319 318 318 318 319 319 320 321 321 320 321 322 322 320 319 320 319 320 321 321 322 323 321 323 325 326 326 324 322 321 321
313 309 306 307 310 312 311 312 319 320 314 317 319 317 319 319 319 319 319 318 319 321 323 322 322 321 321 321 320 320 320 321 320 321 320 320 321 320 323 325 327 326 324 323 322
314 310 306 308 311 312 311 317 319 322 323 322 317 318 318 319 319 318 319 319 320 322 321 322 324 322 321 321 320 320 321 321 319 319 319 320 320 322 322 324 327 327 326 326 326
314 310 306 308 311 312 311 312 317 320 323 323 322 315 317 318 319 319 318 319 320 321 321 321 322 322 323 323 320 321 322 323 323 321 319 321 320 322 323 323 324 326 328 327 328
314 310 307 310 311 316 317 316 313 318 324 323 320 317 318 319 319 319 319 319 320 320 323 322 321 322 323 320 321 324 323 322 323 323 320 323 324 325 323 325 325 325 326 328 328
315 311 307 310 318 319 322 318 320 325 332 322 319 318 318 318 319 319 319 319 320 321 322 324 322 323 323 321 323 323 323 323 322 322 322 322 323 325 324 325 326 327 327 327 328
315 311 307 311 312 316 320 324 320 329 328 319 318 318 319 318 319 319 318 319 319 320 321 321 321 323 323 322 321 323 323 323 323 324 325 324 325 325 324 325 326 326 327 328 329
315 311 307 314 316 314 316 326 328 326 321 320 318 319 319 320 319 318 319 319 319 321 321 322 320 323 323 321 322 322 322 326 329 330 328 322 323 323 323 326 326 327 328 329 330
315 312 308 311 318 320 324 326 326 321 323 319 318 319 319 320 319 319 318 318 318 320 319 324 324 322 322 321 324 323 322 328 328 331 328 325 323 326 325 323 326 327 327 329 328
315 312 309 310 315 320 324 328 323 323 322 321 318 319 319 319 319 319 318 319 319 319 320 322 324 322 323 321 323 323 324 323 323 329 333 320 318 326 324 324 324 326 327 328 327
315 312 309 310 313 320 324 326 323 322 321 320 319 319 319 319 319 319 319 320 319 319 322 323 325 323 323 322 322 321 322 324 323 324 323 320 320 327 323 323 323 326 327 328 327
314 312 313 316 316 318 324 324 323 322 322 321 319 319 319 319 319 319 318 319 320 322 322 322 322 324 322 322 319 323 323 320 320 325 328 328 322 321 321 322 322 323 326 327 327
312 314 314 316 318 316 321 321 320 323 321 321 321 320 319 320 320 319 319 320 321 321 322 322 322 325 323 322 322 322 322 322 332 324 326 330 324 320 321 322 321 322 325 326 326
312 316 319 316 318 319 317 321 321 322 323 322 322 320 320 320 321 320 320 323 322 322 322 323 324 325 322 322 323 322 320 320 322 325 325 332 324 321 320 319 319 319 322 324 325
313 319 320 319 317 316 318 321 322 321 321 321 322 320 320 321 322 322 321 323 322 322 319 322 323 321 324 321 322 324 322 321 322 330 325 324 319 319 320 320 319 319 319 321 323
314 318 320 321 321 319 321 321 321 322 321 321 322 321 320 321 321 321 321 324 322 321 320 322 321 319 319 320 321 322 322 321 320 322 324 323 320 319 319 319 318 318 318 318 319
314 318 319 320 319 320 319 324 322 322 320 322 323 321 320 322 321 321 322 325 323 323 323 323 324 323 324 322 321 321 320 319 320 320 319 320 320 320 319 318 317 317 316 316 317
312 316 319 319 321 320 321 324 324 323 321 320 322 323 323 323 324 325 324 324 323 325 325 324 327 327 327 320 318 320 320 319 319 319 320 320 321 320 319 317 317 316 316 317 317

GFSSW_850_thetae_051.txt.gz
Theta_e
310 308 308 308 308 309 309 309 309 310 311 311 311 311 311 311 310 309 309 312 315 316 314 312 318 318 316 316 316 316 312 312 318 332 331 329 328 327 326 328 328 329 332 335 334
310 309 308 308 308 308 309 309 309 310 311 311 311 311 311 310 309 312 318 316 313 313 314 313 317 318 317 317 316 314 311 314 327 327 329 328 328 328 328 328 331 334 328 335 334
309 309 308 307 308 308 308 309 309 310 311 311 311 311 310 309 313 320 317 317 318 316 313 312 315 316 318 318 316 315 313 320 327 326 326 326 328 326 327 327 327 334 332 333 333
309 308 309 307 307 307 308 309 309 311 311 311 311 311 309 308 321 318 318 317 317 315 313 315 316 316 316 313 316 315 317 321 324 326 327 326 324 326 326 325 326 331 333 332 331
311 308 308 307 307 307 308 309 310 311 311 311 311 310 309 313 312 318 318 317 317 313 316 318 318 318 315 315 316 316 317 321 327 326 327 326 324 325 326 325 330 332 334 334 332
312 310 308 308 307 307 308 309 311 311 311 311 310 309 309 318 317 318 318 318 318 316 317 318 318 318 318 318 319 321 321 322 324 323 324 326 325 322 323 325 330 335 334 333 333
313 311 308 308 307 307 308 309 311 311 311 310 309 308 309 309 317 318 321 320 320 319 319 318 319 319 319 320 320 321 319 320 322 323 322 321 323 323 326 331 334 334 334 333 322
316 312 309 307 307 307 308 310 311 311 310 309 309 309 310 315 316 318 318 320 320 320 320 320 320 321 320 321 320 319 319 320 321 324 324 322 326 323 325 329 332 331 332 329 324
318 314 310 307 307 307 309 311 311 311 310 309 309 320 319 319 318 316 318 319 320 320 320 320 320 321 321 320 319 318 318 318 319 324 324 323 324 323 326 329 327 327 324 323 323
320 315 311 307 306 307 309 312 311 312 309 311 310 315 316 316 318 317 318 319 319 321 321 320 320 319 319 317 318 319 319 318 317 320 323 322 320 320 326 327 325 324 322 321 321
321 316 312 307 306 308 310 311 320 322 319 315 316 311 316 318 319 319 319 318 318 321 320 321 320 319 320 319 318 318 319 317 318 318 319 322 320 321 323 324 323 323 322 321 321
321 317 313 308 306 308 311 312 319 317 320 320 322 322 317 318 318 319 318 319 318 319 320 319 322 321 322 322 320 319 319 321 320 318 317 316 317 318 320 323 324 322 321 321 321
319 318 313 308 306 309 312 312 311 317 321 321 319 322 317 316 318 318 319 318 318 320 320 320 321 322 322 322 323 323 323 321 322 321 319 319 317 318 319 322 325 324 323 322 322
317 320 314 308 307 317 316 319 312 316 321 322 322 322 319 315 319 318 319 318 318 320 321 321 321 321 321 322 322 323 322 322 321 320 320 320 320 322 321 320 321 325 324 324 324
317 320 314 307 314 319 322 319 317 321 326 324 321 318 316 318 319 319 319 319 318 320 321 321 321 322 322 323 322 323 321 321 323 322 321 321 321 321 321 322 321 321 326 326 326
317 320 314 308 308 319 319 321 322 327 326 322 319 317 318 318 318 318 319 318 318 320 320 320 320 321 322 323 321 320 321 323 322 323 322 322 322 322 320 322 323 323 325 327 328
316 319 315 308 308 318 317 323 325 328 321 320 317 317 318 318 318 318 317 317 316 318 320 320 320 321 321 321 321 321 321 323 323 322 324 324 324 323 322 321 322 322 323 327 329
316 318 315 309 317 321 317 324 327 321 322 320 318 318 318 318 318 318 316 316 316 316 318 321 321 321 321 321 323 322 323 322 325 326 324 323 326 324 322 322 323 323 323 327 331
317 317 315 311 316 318 322 324 320 322 320 321 318 318 318 318 319 318 316 315 316 315 316 322 324 322 323 322 321 323 323 323 322 323 319 319 321 323 322 322 324 323 324 330 329
317 316 316 314 309 318 321 320 322 321 321 322 321 318 318 318 319 318 317 317 317 316 317 323 324 322 323 323 321 321 321 322 319 319 320 319 320 323 322 322 322 324 328 328 328
316 314 316 315 310 317 318 320 320 321 321 322 321 319 318 318 318 317 319 318 318 321 321 321 319 322 322 323 322 320 320 320 319 321 320 320 318 319 320 320 319 322 328 328 327
314 314 315 311 316 315 316 317 319 320 320 322 321 321 320 318 320 318 319 318 320 321 321 321 320 323 323 321 320 320 320 321 317 320 319 315 318 318 317 318 320 320 326 328 327
313 314 314 311 312 314 315 316 317 320 320 322 321 321 321 320 320 319 318 323 321 320 321 322 320 318 320 319 321 321 320 319 319 318 320 315 317 316 317 317 319 320 325 327 327
313 315 317 316 312 312 315 315 317 318 320 321 322 321 321 319 320 322 323 323 322 320 319 322 322 320 318 318 319 321 320 320 319 316 318 317 319 317 316 316 317 318 319 325 327
312 315 318 319 317 315 314 315 317 320 321 321 322 321 321 320 319 321 323 323 322 320 320 319 319 319 318 318 320 320 320 319 320 319 318 318 319 317 316 315 316 318 318 318 320
312 315 318 319 318 318 316 315 318 319 321 321 322 321 320 319 319 320 323 323 322 320 321 320 320 320 322 321 318 318 318 318 317 317 317 317 317 317 317 316 316 315 315 317 317
311 314 317 317 318 318 317 317 316 319 320 320 320 321 320 319 322 322 324 323 321 321 319 321 320 317 322 314 315 313 316 316 317 317 317 317 315 314 314 314 315 316 317 316 316

GFSSW_850_thetae_054.txt.gz
Theta_e
309 310 310 308 308 308 308 308 309 309 310 310 311 311 311 311 311 310 312 313 314 314 315 314 313 317 318 316 315 315 309 310 312 329 329 330 327 327 327 328 329 330 334 331 333
309 308 309 310 308 308 308 308 309 309 310 310 310 311 311 310 310 318 317 317 313 314 313 313 313 315 316 316 316 311 308 311 314 327 327 327 327 327 328 327 332 335 333 331 332
310 309 308 309 309 308 308 308 309 309 310 311 310 311 310 310 312 318 317 316 317 315 314 313 312 314 315 316 316 312 311 317 326 327 327 326 327 325 327 326 332 334 332 332 332
312 310 308 308 309 308 308 308 309 309 310 310 311 311 310 309 318 318 318 317 316 314 313 313 314 315 315 314 316 314 314 318 325 325 325 324 325 326 326 326 331 329 328 330 331
317 312 310 308 308 308 308 308 308 309 311 310 311 310 309 309 309 315 318 318 316 315 315 314 317 317 315 315 316 313 314 322 324 326 325 323 324 325 323 325 331 326 328 330 328
320 316 311 309 308 308 308 308 309 310 311 310 310 309 309 314 315 317 320 319 318 318 315 317 317 317 317 318 317 318 325 324 326 326 326 325 324 323 325 325 330 331 331 328 328
322 320 314 310 307 308 308 308 309 311 310 310 309 309 308 310 310 316 318 320 320 320 319 320 320 318 320 319 320 319 317 320 321 322 322 324 322 323 326 325 329 333 331 329 328
322 321 317 312 308 307 307 308 309 311 310 310 309 308 310 313 315 316 320 320 321 320 320 320 320 320 320 320 319 317 316 317 322 323 323 320 324 321 328 330 333 333 333 332 331
321 321 319 314 309 306 307 308 310 311 310 309 308 314 315 318 314 315 319 318 318 318 320 320 320 320 320 318 317 317 318 318 322 323 323 321 322 322 325 328 332 332 331 332 331
316 317 321 315 310 306 307 308 311 313 317 311 311 311 313 316 318 317 316 317 318 319 320 320 319 317 317 316 319 319 318 318 318 323 323 323 321 318 324 327 328 331 330 325 325
317 319 321 316 310 306 307 310 315 321 319 320 314 309 311 316 318 319 318 318 318 320 319 320 319 319 319 319 321 319 319 317 317 317 322 322 320 319 323 325 320 323 326 322 324
318 318 320 317 311 306 307 310 316 315 316 317 316 319 319 320 319 319 318 318 317 318 319 318 321 320 320 321 321 321 320 319 318 317 321 318 319 319 320 323 321 319 321 322 323
316 317 320 317 311 306 309 314 316 312 317 316 315 316 317 318 319 317 318 318 317 319 319 317 319 321 321 321 322 321 321 320 319 319 316 315 318 317 319 323 322 321 320 321 323
314 316 319 317 310 307 317 321 314 315 318 320 321 320 317 316 314 318 318 318 317 318 318 319 320 320 320 321 321 321 321 321 321 317 316 317 318 320 317 320 321 321 320 320 321
312 315 318 317 309 316 321 323 317 319 310 318 321 321 320 315 318 318 318 318 316 320 318 318 320 321 320 320 321 321 320 321 321 319 319 320 318 317 319 319 319 321 320 320 321
310 313 319 317 311 314 320 321 319 324 319 323 320 317 314 315 317 318 318 318 318 319 319 318 320 319 319 321 321 320 320 321 320 320 321 322 318 318 318 319 321 320 323 321 322
308 315 318 318 313 309 317 320 322 324 320 321 317 315 316 316 317 317 317 315 315 317 318 319 319 320 321 320 319 320 318 319 320 320 321 321 321 319 320 320 319 320 323 323 323
306 315 317 318 311 319 315 321 322 319 321 321 316 315 316 316 316 316 315 315 315 316 317 319 319 320 320 320 321 321 319 318 322 322 320 321 323 321 320 320 322 321 321 325 325
306 314 317 318 310 316 320 322 317 321 318 318 316 316 316 317 317 317 315 314 314 314 315 319 322 321 321 321 319 321 321 319 320 320 318 319 318 320 320 322 322 321 322 323 327
305 312 314 316 311 311 319 317 320 320 320 321 319 317 317 316 316 316 315 315 314 314 314 319 322 320 321 321 320 318 319 322 319 318 319 317 318 322 322 323 323 321 323 326 330
306 313 312 316 314 311 317 316 317 317 319 322 322 320 317 317 316 316 317 316 315 316 316 318 318 319 321 321 319 319 318 318 317 317 318 318 317 314 320 320 322 322 324 328 329
308 313 313 316 311 313 315 315 315 317 318 320 321 321 319 317 317 317 317 317 318 319 319 318 318 319 320 320 320 319 319 319 315 317 316 313 315 315 316 317 319 322 326 328 328
310 312 313 315 311 310 313 315 315 315 317 320 321 320 319 319 318 317 317 320 320 319 319 318 318 319 320 319 319 321 318 317 318 314 317 314 316 315 314 317 318 319 323 327 328
312 313 314 314 314 310 312 315 316 314 315 316 319 320 320 320 318 319 321 322 321 319 320 320 319 317 319 318 316 319 319 318 316 313 316 315 317 317 315 314 315 317 319 323 327
311 312 313 314 313 312 311 313 315 315 314 318 320 319 320 320 318 319 322 321 321 319 319 317 318 318 317 318 319 319 319 319 318 317 317 316 316 316 315 313 314 316 317 322 326
311 312 313 315 313 313 310 312 313 314 315 315 318 321 320 319 317 318 322 321 320 319 318 317 317 318 319 317 316 317 317 316 317 316 316 316 316 312 313 313 313 314 316 316 319
308 312 315 313 314 314 314 312 313 313 314 315 318 320 320 320 319 318 321 322 320 318 317 318 317 314 317 312 315 314 315 315 316 315 316 315 314 312 311 311 313 315 315 316 317

GFSSW_850_thetae_057.txt.gz
Theta_e
308 309 308 309 310 309 308 308 308 309 309 309 310 310 310 311 311 313 316 316 313 311 311 314 313 314 316 316 314 313 308 309 311 321 326 329 326 327 326 328 330 330 330 330 333
311 309 308 308 309 309 308 308 308 309 309 309 310 310 311 311 311 318 317 316 314 315 315 314 313 314 316 316 314 309 307 310 310 322 327 327 326 326 327 329 331 333 331 332 332
318 312 309 308 308 309 308 308 308 308 309 310 310 310 311 310 311 318 317 317 316 315 313 313 312 313 314 314 315 311 310 310 323 327 327 326 325 325 326 325 331 332 332 333 331
320 319 313 309 308 308 308 307 308 308 309 310 310 310 310 310 313 318 318 317 316 315 313 313 314 315 314 314 315 312 312 317 323 326 326 324 325 325 325 326 331 331 331 330 330
322 320 319 313 310 308 308 308 308 308 309 310 310 310 310 309 310 313 317 318 316 315 314 314 317 317 315 314 314 312 315 316 324 325 324 323 323 323 327 331 331 330 329 330 329
323 322 320 318 312 309 308 308 308 308 310 310 310 310 309 310 313 317 318 319 317 315 315 316 317 317 316 315 316 322 323 324 324 325 325 323 323 322 324 330 331 329 330 330 328
318 322 322 320 316 311 307 307 307 308 310 310 310 309 309 310 311 318 318 319 319 320 319 318 318 318 319 317 319 323 320 320 321 324 323 324 322 323 326 331 329 329 329 330 328
317 320 321 321 318 313 308 307 307 308 311 310 309 308 309 311 311 316 317 318 320 320 320 320 319 319 319 319 317 317 316 321 321 322 322 321 322 323 327 332 331 330 330 328 327
316 315 319 321 320 315 309 306 307 308 311 310 309 309 311 313 316 315 317 318 318 318 318 319 319 319 319 318 314 315 316 319 320 321 321 319 321 320 326 331 332 330 330 328 327
313 314 320 318 320 317 311 306 308 310 313 317 311 312 310 315 317 317 315 318 318 318 319 319 318 316 314 313 316 318 317 318 316 321 322 322 321 319 325 331 332 331 331 330 328
311 317 315 318 320 317 310 306 311 318 318 318 313 310 312 314 317 318 318 316 316 319 318 319 317 318 317 317 320 320 320 318 316 315 320 320 320 317 321 326 327 331 330 331 331
310 316 315 318 320 316 309 306 311 313 313 314 315 316 316 319 319 318 318 317 317 316 318 317 320 319 318 320 320 321 321 320 317 316 319 318 319 317 319 323 328 329 330 330 330
306 315 316 316 320 316 308 309 319 315 313 315 315 316 315 316 318 319 318 318 315 315 317 316 317 319 320 320 320 320 320 319 319 317 318 316 317 317 319 323 324 325 330 329 325
302 314 318 317 318 316 308 320 317 313 314 315 320 317 315 317 316 317 317 318 316 315 316 317 318 318 319 319 319 319 318 320 320 316 315 315 316 317 317 322 320 321 324 325 322
301 311 317 318 314 309 318 319 315 318 308 312 320 319 317 316 316 316 317 317 316 319 317 318 319 319 319 318 319 319 319 320 320 319 318 319 317 316 316 320 321 320 318 321 322
302 308 315 316 319 312 319 317 318 318 313 317 319 319 315 314 315 317 317 318 317 317 318 316 319 318 317 319 319 319 320 318 317 318 319 319 318 316 317 318 320 322 320 319 320
303 306 314 316 317 317 310 318 321 320 314 320 318 315 315 313 314 316 315 314 315 317 318 318 318 319 320 319 318 318 316 317 319 318 320 318 319 319 317 316 316 318 321 320 319
303 304 312 315 317 313 315 321 320 317 318 320 315 314 314 315 315 315 314 313 313 314 315 317 317 318 319 319 320 320 316 316 319 320 318 319 321 319 318 319 319 319 321 322 320
302 304 309 314 317 313 317 321 315 317 318 315 315 314 314 316 315 315 313 313 312 313 314 318 318 320 320 320 318 320 320 317 318 317 318 317 315 318 318 320 319 319 323 323 321
303 304 308 313 316 314 316 318 317 318 319 320 315 315 315 315 315 315 314 314 314 313 313 315 318 320 320 320 319 318 318 319 317 319 319 315 317 318 320 319 321 318 320 324 324
304 305 308 312 314 313 315 315 316 316 317 321 321 319 316 315 315 315 315 315 314 314 313 316 315 317 320 319 318 318 318 317 316 314 317 317 317 312 318 318 320 320 321 323 325
304 307 309 311 312 311 313 314 315 315 315 317 319 321 319 315 315 315 316 316 316 315 315 316 315 316 318 318 319 316 317 316 315 317 314 312 314 313 314 316 319 322 323 323 326
303 307 312 313 315 311 312 313 314 315 316 316 320 320 318 316 316 316 316 316 318 316 317 317 316 317 317 317 318 319 317 317 315 312 315 314 315 313 312 314 318 319 323 324 327
303 310 311 312 313 312 312 313 315 314 314 314 316 318 319 319 318 317 316 320 319 318 317 318 316 317 319 317 318 320 319 316 315 313 314 314 315 315 314 313 314 318 318 320 325
304 308 310 313 313 313 311 312 314 316 314 314 314 316 318 319 318 318 321 320 319 316 317 316 318 316 316 316 316 317 317 316 317 315 316 315 314 315 313 312 313 315 316 318 320
305 310 312 310 311 314 311 312 314 314 314 314 313 317 315 317 318 317 320 319 319 319 317 315 315 316 318 316 316 318 316 316 315 316 315 315 315 311 312 312 311 313 314 318 320
302 309 312 311 310 313 313 311 312 313 314 313 313 313 313 317 319 319 318 319 318 317 316 316 315 312 315 312 314 314 314 315 315 314 314 314 312 311 311 310 312 314 316 317 318

GFSSW_850_thetae_060.txt.gz
Theta_e
312 310 308 308 308 309 309 309 308 308 308 309 309 310 310 310 311 315 316 316 313 309 310 313 313 313 316 315 313 312 307 309 311 313 318 329 326 326 326 329 332 331 330 331 332
319 316 312 309 308 308 308 309 308 308 308 309 309 310 310 310 311 317 316 316 316 315 315 314 313 313 315 316 313 309 306 309 309 313 325 327 325 326 326 330 330 331 330 332 330
322 320 319 314 310 309 308 308 308 308 308 309 309 310 310 310 310 318 317 317 316 314 313 313 312 314 315 314 313 308 310 309 313 322 326 326 325 325 325 325 330 331 330 329 331
323 322 320 319 315 311 308 308 308 308 308 309 310 310 310 310 312 318 317 317 316 316 313 312 314 315 314 314 314 311 310 311 320 325 326 324 324 324 325 324 329 329 331 331 330
318 322 322 320 319 315 311 308 308 308 308 308 310 310 310 309 310 312 315 317 316 315 314 315 317 316 315 314 313 311 316 319 323 325 324 324 321 323 330 331 331 331 330 330 330
319 317 322 322 320 319 314 310 307 308 308 308 310 310 309 308 310 315 316 317 317 315 314 315 317 317 316 315 316 321 321 322 323 323 324 321 322 321 329 331 330 331 329 329 328
314 317 316 321 321 320 318 313 308 307 307 308 310 310 309 310 311 317 317 318 319 319 319 318 317 318 318 316 321 320 321 320 322 324 322 322 321 322 328 330 329 331 329 329 327
309 316 317 317 321 320 320 316 309 307 307 308 310 310 309 310 310 316 317 317 319 319 319 318 319 318 318 317 316 319 314 319 320 321 320 319 319 323 328 330 329 329 331 329 327
305 314 317 315 319 320 320 317 310 307 307 309 310 310 311 312 313 312 315 317 319 318 317 317 317 318 318 315 313 313 315 318 317 321 319 320 319 322 329 329 329 328 329 329 328
301 309 315 315 318 319 319 317 309 307 310 314 314 313 313 314 316 317 315 316 318 317 319 318 318 314 313 312 316 317 316 317 317 319 320 320 319 318 329 331 330 329 329 329 328
299 304 313 317 317 317 317 313 307 314 318 316 314 314 310 315 315 318 317 315 315 318 317 318 316 317 315 314 316 318 319 319 318 317 317 315 318 317 322 330 331 330 330 329 328
298 300 312 317 318 318 320 312 309 312 314 313 314 315 318 319 317 318 317 316 316 314 317 316 318 317 317 319 319 319 320 319 318 316 315 316 317 317 318 324 329 331 330 330 329
299 301 311 317 317 316 319 312 310 318 315 312 312 313 313 314 316 318 317 317 314 314 316 316 317 318 318 319 319 319 319 319 319 316 316 316 315 317 316 321 325 329 329 330 330
300 301 309 316 316 316 318 312 317 317 311 312 316 316 315 315 317 317 318 317 315 314 314 315 316 318 318 318 317 318 317 318 319 317 316 314 315 314 315 320 321 324 328 330 330
300 303 310 313 315 312 314 318 315 316 308 311 319 317 316 317 315 316 317 316 315 316 316 316 318 318 318 317 317 317 318 318 319 318 317 317 315 314 316 320 321 321 323 328 329
304 305 307 313 315 316 318 313 316 315 312 313 318 317 316 314 315 314 316 316 316 317 317 315 317 316 316 317 317 318 319 316 315 316 319 318 316 315 315 318 320 321 321 324 326
305 305 306 312 314 314 318 315 322 317 313 317 318 316 314 313 313 314 313 314 314 315 317 317 318 317 318 319 317 317 315 316 317 317 319 317 318 317 317 316 316 318 322 325 325
304 304 305 309 314 315 314 318 320 316 316 317 315 314 314 312 313 314 312 313 312 313 313 316 316 317 317 318 318 319 316 316 318 318 316 316 320 318 317 318 319 318 318 322 321
304 304 305 307 313 315 315 319 315 315 316 315 314 313 313 314 313 314 312 311 311 312 314 316 316 318 319 319 317 319 318 315 316 315 316 316 315 313 316 319 320 318 318 318 321
304 304 303 304 312 314 313 317 317 315 318 319 315 314 312 313 314 313 312 312 313 311 312 314 316 318 320 319 318 318 316 318 315 320 320 314 314 315 315 316 318 317 319 321 320
304 303 303 303 310 313 314 314 317 316 316 319 321 318 313 314 313 313 313 314 312 312 312 314 313 315 319 318 318 317 318 315 315 313 317 316 316 311 313 316 318 317 320 321 323
304 303 304 302 312 314 315 311 314 316 315 315 317 319 317 313 313 314 314 315 314 313 313 315 312 313 316 317 315 315 317 315 315 316 313 312 313 312 310 312 317 318 321 322 322
304 303 308 305 311 313 314 312 313 314 314 314 317 318 318 316 315 314 314 315 314 313 314 315 313 314 314 314 317 320 317 315 313 311 315 313 315 312 311 311 314 317 320 322 323
302 303 307 309 308 310 313 313 312 313 313 314 314 316 319 318 315 315 315 317 316 315 316 315 314 313 315 314 315 319 317 316 315 313 315 313 314 313 312 312 312 315 318 318 321
302 303 309 310 308 310 311 313 312 313 313 313 313 315 318 318 317 317 319 320 318 316 315 314 316 314 314 315 314 315 316 314 314 314 315 315 313 313 312 311 311 313 315 315 317
301 304 309 308 309 310 313 312 313 312 314 314 314 313 314 315 316 317 320 319 318 315 315 313 315 314 316 315 316 318 315 314 315 315 313 313 313 310 311 311 311 311 313 317 319
300 304 309 309 310 309 311 311 312 312 313 313 313 313 314 314 314 316 318 317 317 317 314 314 313 312 316 312 314 314 313 314 314 313 313 314 312 309 311 310 310 313 315 318 318

GFSSW_850_thetae_063.txt.gz
Theta_e
321 319 316 313 310 309 308 308 308 308 308 308 309 309 310 310 310 314 316 315 312 310 313 313 313 314 315 312 313 312 315 315 314 313 317 328 327 326 326 331 331 331 331 332 334
323 322 320 319 316 312 309 308 308 308 308 308 309 309 310 310 311 316 316 316 315 312 313 314 313 314 315 315 312 313 314 315 313 312 323 327 325 325 327 331 331 331 330 332 335
320 322 323 321 319 318 313 310 308 308 308 308 309 309 310 310 310 317 317 316 316 314 313 312 312 313 314 314 312 310 315 313 313 312 324 326 326 325 326 328 330 331 331 331 334
316 318 321 322 321 319 318 314 310 307 308 308 308 309 310 310 311 319 317 317 316 315 313 312 312 315 315 316 313 313 311 311 314 321 325 326 324 325 325 325 327 331 330 330 333
316 316 317 316 322 321 320 318 313 309 307 307 308 309 310 310 310 311 314 317 315 315 313 314 315 316 317 315 313 312 316 321 320 324 324 323 322 323 330 330 330 330 330 330 330
312 314 315 318 315 321 321 320 318 312 307 307 307 309 310 308 310 311 314 316 316 314 314 314 316 316 316 315 316 321 321 322 322 323 323 322 322 322 328 330 330 330 332 330 328
302 310 312 315 319 316 321 320 319 316 309 307 307 308 310 311 310 312 315 318 318 318 317 317 316 317 317 317 322 320 323 321 322 324 323 321 323 323 326 330 330 331 329 328 328
298 300 308 311 318 316 318 319 319 318 312 307 307 309 310 311 310 312 316 317 317 319 319 318 318 317 317 317 314 321 317 321 321 322 321 322 325 323 328 330 330 329 329 328 327
298 298 301 311 316 316 314 316 318 319 313 307 309 310 310 311 311 310 314 314 317 318 317 316 316 317 316 318 317 316 319 319 318 321 321 322 322 326 329 330 330 329 329 329 327
298 298 299 309 314 315 316 317 316 317 309 310 313 312 311 313 315 316 314 314 317 317 318 317 317 318 316 318 320 319 318 318 319 319 322 322 322 328 329 329 330 329 329 328 328
299 298 298 306 312 316 317 315 314 310 315 312 313 313 311 313 315 316 316 316 316 317 319 317 319 321 319 316 316 317 319 319 319 319 319 320 319 320 330 330 330 329 328 328 328
306 299 298 304 311 315 315 317 311 311 313 311 312 315 315 316 317 317 316 316 315 316 317 319 321 319 316 316 319 320 320 321 319 318 318 319 320 318 327 330 330 330 330 329 329
307 303 301 307 313 314 314 317 316 310 315 316 312 311 312 313 314 316 316 315 315 315 318 319 319 317 318 320 320 320 320 319 319 318 317 317 318 319 318 325 328 330 329 329 328
306 305 305 310 310 313 312 315 311 316 314 311 313 314 312 313 314 314 317 316 314 317 316 317 315 317 319 320 319 320 318 319 319 320 321 315 319 317 318 320 323 326 329 329 328
305 306 304 309 314 313 313 313 315 315 311 310 317 316 315 314 314 316 317 316 316 315 317 317 318 318 319 319 318 320 318 319 320 321 319 318 320 320 316 318 320 322 326 329 329
304 305 304 308 312 313 315 314 314 316 316 312 317 317 317 316 314 315 316 315 315 317 317 315 316 317 319 317 317 317 320 317 317 319 324 320 320 321 319 319 320 320 321 324 327
303 305 304 307 310 312 314 316 320 320 313 313 319 316 315 314 313 313 315 316 318 319 320 317 318 317 317 319 317 318 318 321 322 323 324 318 319 321 319 318 318 319 320 321 323
302 304 304 305 311 313 314 315 319 316 315 316 315 316 315 312 313 313 314 316 313 315 315 318 318 318 317 319 320 319 319 324 320 321 321 317 322 321 318 317 318 319 318 317 321
302 303 304 304 309 311 313 317 316 316 315 315 313 318 316 312 313 314 314 316 315 314 318 317 317 316 318 318 319 320 320 317 319 317 322 319 318 317 316 317 319 320 319 318 317
301 302 304 303 307 310 313 315 317 314 317 318 318 315 318 314 314 315 314 313 314 313 315 317 317 318 319 319 317 319 318 322 319 322 321 318 317 318 319 318 318 319 319 320 321
301 302 303 303 305 309 314 312 315 315 316 318 320 320 314 313 314 314 315 313 314 313 313 315 316 316 319 320 321 320 321 317 318 318 322 321 320 317 318 317 319 319 319 320 320
301 302 303 303 306 308 311 313 313 314 315 315 316 318 318 313 315 315 316 315 313 313 315 316 317 318 319 316 316 318 320 319 324 320 317 318 320 316 316 314 313 318 318 321 321
301 302 303 302 307 308 310 312 312 313 315 315 315 316 318 316 314 315 314 314 312 314 316 316 316 317 316 317 318 320 317 316 315 316 319 324 321 314 314 315 314 314 316 318 321
301 303 305 304 304 307 309 312 314 312 314 314 314 315 318 318 316 315 315 315 312 313 314 315 316 317 318 317 318 320 319 317 319 320 321 319 320 318 318 316 316 315 315 316 318
301 303 305 306 304 306 308 310 312 313 313 313 314 315 317 318 317 316 316 319 316 315 314 318 318 315 315 313 316 318 319 317 318 320 321 321 316 318 317 316 314 312 313 314 315
301 302 303 308 305 305 308 311 312 312 313 313 314 314 314 317 316 319 318 319 318 315 316 314 318 315 316 315 314 317 316 316 317 316 316 315 316 315 313 312 312 312 313 317 318
300 302 303 306 306 306 307 309 312 312 312 312 313 314 314 315 314 314 316 316 317 318 316 316 316 317 319 314 315 317 317 316 316 315 317 318 318 312 312 312 312 313 316 317 317

GFSSW_850_thetae_066.txt.gz
Theta_e
322 322 322 321 319 318 314 310 308 308 308 308 308 309 309 310 310 312 316 316 312 312 314 313 314 316 315 313 314 315 318 318 318 318 319 326 329 329 328 332 332 333 333 335 335
320 322 321 322 322 320 319 316 312 309 308 308 308 309 309 310 310 313 316 316 314 311 311 314 315 315 318 317 315 317 319 318 318 318 318 323 327 328 330 331 332 333 333 334 334
318 318 314 320 322 322 321 319 317 313 309 308 308 309 309 310 311 317 317 316 315 314 314 315 314 315 318 318 318 318 319 319 318 317 317 322 327 328 328 328 329 332 334 333 334
312 316 317 314 318 320 321 321 320 317 313 309 308 308 309 310 314 317 317 316 316 315 313 314 314 316 319 319 318 319 319 318 317 321 322 324 327 327 327 329 330 333 333 333 330
303 306 312 315 315 318 317 321 321 320 317 312 308 308 308 312 313 311 316 317 316 315 314 314 315 318 320 320 319 319 321 323 321 323 325 326 325 325 330 333 333 333 333 329 329
299 301 305 307 313 314 318 314 320 320 319 316 309 307 309 313 311 310 311 316 315 315 315 316 318 319 320 320 321 324 324 323 324 325 326 325 325 325 331 333 333 332 332 330 329
298 298 299 303 308 310 318 315 316 320 319 318 313 307 308 312 311 310 314 317 317 315 315 316 317 319 320 321 323 324 326 326 327 327 325 325 326 326 327 332 333 331 331 331 330
299 298 298 299 303 307 311 315 312 317 317 318 315 307 311 311 310 310 314 317 317 318 318 317 318 319 320 320 320 323 323 322 324 326 324 326 324 325 330 332 332 331 331 330 328
303 299 298 298 300 304 311 313 312 314 316 318 311 309 312 311 311 310 312 316 316 317 317 316 318 320 320 321 321 321 321 321 321 324 324 325 324 326 331 331 332 331 330 330 328
305 302 299 298 301 306 310 311 310 313 315 312 311 313 312 314 314 314 311 314 317 317 318 318 319 322 322 321 320 320 320 320 321 322 323 324 324 323 329 331 331 332 329 329 328
305 306 303 298 300 306 310 315 315 313 312 314 315 315 313 314 315 316 316 315 317 318 321 321 322 322 320 320 321 320 321 321 321 322 322 323 323 322 326 330 329 331 330 329 328
305 306 305 300 302 309 313 315 316 312 313 313 311 315 314 314 317 318 316 317 318 320 321 322 323 322 321 321 321 321 321 322 322 321 322 323 322 322 324 329 329 329 330 330 329
304 305 306 302 307 309 313 315 314 317 314 315 315 313 313 314 315 317 316 317 319 320 320 322 322 321 321 322 322 322 322 322 322 322 323 322 323 322 322 327 330 330 329 330 330
304 304 306 303 306 311 313 313 315 312 319 315 314 315 313 314 316 315 317 317 318 319 320 321 321 320 321 321 322 322 321 321 322 323 323 321 321 321 322 324 327 329 330 330 330
304 303 305 304 312 313 314 315 315 315 315 314 315 315 315 314 315 315 317 316 319 319 320 321 320 320 321 321 321 322 321 322 323 324 324 323 322 322 322 322 323 325 328 330 330
302 303 304 304 308 312 313 316 315 319 317 313 318 318 317 315 316 316 316 316 318 319 320 320 319 321 321 321 321 321 323 323 323 324 324 323 323 321 321 322 323 323 322 326 330
299 302 303 306 307 311 314 316 320 319 313 313 320 318 317 316 316 317 318 318 319 320 320 320 320 321 320 322 321 322 324 324 326 325 324 322 322 321 321 322 323 323 324 323 324
298 302 302 305 307 310 312 316 319 312 314 316 319 318 317 316 316 318 318 319 319 318 319 320 320 320 321 321 322 323 323 324 322 322 322 321 321 321 322 321 322 323 324 322 323
297 302 302 305 305 309 313 317 315 314 315 314 317 320 317 315 316 318 318 318 319 319 319 320 319 319 320 321 322 323 323 322 324 324 324 322 321 321 320 321 322 320 323 324 322
298 302 302 303 304 306 311 315 314 314 315 318 316 320 320 315 316 318 318 318 318 319 319 319 320 319 321 321 321 323 322 323 324 324 322 321 321 320 320 320 320 321 321 323 325
299 301 303 302 304 305 310 312 313 315 316 318 318 321 318 317 315 317 318 317 318 318 319 319 320 321 322 322 322 323 323 323 323 323 323 322 321 320 320 320 321 321 321 322 323
300 303 303 302 304 305 309 312 312 313 316 317 317 319 321 316 316 316 317 317 316 318 319 320 320 320 320 321 321 322 323 324 323 322 323 324 322 320 321 321 320 321 322 321 323
300 301 303 303 305 305 308 310 311 314 314 317 317 317 320 322 317 317 317 317 316 318 319 320 320 320 320 320 321 321 322 322 322 322 322 326 322 321 320 321 320 320 320 320 322
301 303 303 304 304 306 307 308 311 311 313 315 316 316 317 319 320 317 317 316 315 317 318 318 319 320 321 319 319 320 320 321 321 323 321 321 321 320 321 321 321 320 320 319 320
301 304 304 304 306 306 306 308 309 311 312 314 317 317 318 319 320 318 317 319 315 314 317 320 320 320 319 318 318 318 318 319 320 320 320 321 321 320 321 321 321 319 317 317 318
301 305 303 305 305 307 307 309 309 310 313 314 316 316 316 318 319 318 319 320 320 319 319 319 320 320 320 319 318 318 319 319 320 320 321 321 321 320 320 319 318 318 317 319 321
300 303 304 306 307 307 308 305 308 310 311 312 314 315 315 316 315 315 316 316 317 319 321 321 320 321 321 319 320 321 320 320 321 321 321 321 320 320 320 320 318 318 318 320 320

GFSSW_850_thetae_069.txt.gz
Theta_e
321 320 321 321 322 322 321 320 319 315 311 309 308 309 309 310 311 313 318 318 314 313 315 317 316 317 317 316 315 317 319 320 320 320 321 322 324 328 330 329 332 333 334 338 337
313 315 317 319 319 321 322 322 320 319 317 313 310 309 309 310 311 316 317 316 314 311 315 316 317 318 318 318 318 319 321 320 320 320 320 320 323 327 328 329 329 333 335 336 335
303 306 313 317 315 313 320 321 321 320 320 318 314 310 309 310 317 319 317 316 315 312 316 317 317 317 318 319 320 320 320 320 320 320 320 320 323 327 327 327 330 331 336 336 335
300 300 304 307 312 314 315 317 319 321 320 320 318 313 309 311 319 320 317 316 316 315 317 316 316 317 319 321 320 320 320 321 320 320 323 323 327 326 327 330 330 333 334 335 333
299 299 300 303 305 307 311 312 313 316 320 320 319 316 312 316 317 316 316 316 317 315 317 316 317 317 320 321 321 321 323 323 323 323 324 324 326 326 327 331 333 333 333 333 332
299 299 298 299 300 303 306 310 311 311 316 320 319 318 314 316 314 313 312 316 318 317 317 316 318 320 320 321 321 324 324 324 324 324 324 325 325 326 331 331 333 332 332 332 330
301 299 299 298 299 299 302 305 308 307 311 316 318 318 315 315 314 314 310 318 318 317 317 318 319 320 321 322 321 322 323 325 325 324 324 323 325 326 330 331 332 331 331 330 330
304 303 299 299 298 299 299 301 303 306 311 312 315 316 317 314 314 313 314 319 318 317 318 319 319 320 320 321 321 321 323 322 324 325 324 324 328 324 330 332 331 331 330 329 325
305 304 303 299 298 298 299 301 304 309 310 310 313 317 316 315 313 313 313 317 319 318 319 319 319 320 321 321 321 322 321 324 324 324 324 324 325 324 329 331 331 331 330 328 327
304 305 305 304 299 298 299 301 305 306 311 313 315 316 315 315 315 314 313 315 318 319 320 319 320 322 323 322 323 321 322 321 321 324 324 324 325 324 327 329 330 330 329 328 328
305 305 305 306 301 298 299 311 316 319 317 314 316 313 315 314 316 316 314 315 318 320 322 320 322 323 323 323 322 321 322 322 323 323 322 323 325 323 327 329 329 330 329 329 328
305 305 304 306 304 300 305 313 315 316 315 313 314 314 316 316 318 316 317 317 318 322 322 323 323 323 323 321 320 321 322 323 324 322 322 323 323 322 326 329 328 329 330 328 328
303 305 304 305 304 301 311 314 316 315 317 313 312 313 313 314 317 318 317 317 320 321 321 323 323 323 322 322 322 323 323 324 323 324 323 322 322 322 324 327 328 327 328 328 328
299 303 304 305 303 309 313 314 315 317 318 313 317 316 313 314 316 316 317 317 320 321 321 322 322 322 322 322 323 324 323 323 323 324 325 324 323 324 323 325 328 327 328 329 329
300 301 304 304 309 313 316 316 317 317 310 316 316 316 315 315 314 315 317 316 319 320 321 321 321 323 322 322 322 322 323 322 324 325 325 323 322 323 322 322 325 327 328 328 328
300 299 303 304 305 312 315 318 318 318 313 315 318 316 318 316 315 316 317 317 318 320 320 321 321 322 322 322 322 323 323 324 325 325 327 325 323 324 323 322 323 324 325 327 328
301 298 301 305 306 308 312 316 317 313 313 314 319 318 319 318 317 318 318 319 319 320 321 320 321 321 322 322 322 323 325 327 327 327 327 324 323 323 322 323 322 323 324 324 326
302 299 299 303 305 310 312 315 313 312 313 317 318 320 319 318 316 318 318 320 319 320 321 321 321 321 322 323 324 323 324 327 327 327 326 322 320 322 322 321 321 322 323 325 325
303 301 301 304 304 306 307 314 311 312 313 313 317 321 320 318 317 318 319 319 319 320 321 321 321 321 321 322 323 324 325 324 326 325 326 324 323 322 321 320 322 321 321 324 325
303 303 302 304 304 307 308 312 312 311 311 315 314 320 321 318 317 318 319 318 319 319 320 321 322 320 321 322 322 323 325 325 324 325 326 324 323 323 321 322 321 321 321 322 326
303 303 302 305 304 307 308 311 312 310 312 315 316 316 320 321 317 318 318 318 319 319 320 321 321 321 322 322 322 322 325 324 324 324 326 325 323 323 321 321 321 321 320 321 322
302 305 303 304 304 306 308 309 310 311 312 315 318 319 317 320 319 317 318 319 318 319 320 321 321 322 322 321 321 323 323 324 325 324 324 325 325 322 322 322 322 321 321 321 322
302 303 303 304 306 308 308 308 309 311 312 315 317 318 319 322 320 318 318 317 318 319 321 321 320 323 322 321 322 322 323 324 324 324 324 331 325 322 321 321 321 321 320 321 322
301 304 304 305 305 307 308 308 309 308 312 312 316 316 318 321 321 319 319 318 318 319 318 320 320 321 323 322 321 321 321 322 323 328 325 323 322 321 321 322 322 321 321 320 321
300 305 305 305 306 308 308 307 308 309 310 311 314 317 318 319 319 322 318 319 318 317 319 320 321 320 320 320 320 320 320 320 321 322 324 322 321 320 321 321 321 322 322 321 320
300 305 304 306 305 308 308 308 308 308 309 311 314 315 317 317 319 320 319 318 318 319 320 320 322 321 320 320 320 319 319 319 319 319 319 319 320 321 321 320 320 320 321 320 322
301 303 305 305 307 308 310 308 307 308 308 309 311 313 316 317 318 317 315 315 317 321 321 321 323 322 322 320 321 323 319 319 320 320 320 321 321 321 321 320 320 319 321 321 323

GFSSW_850_thetae_072.txt.gz
Theta_e
311 316 318 318 316 318 320 321 322 321 320 319 318 316 312 311 313 313 317 320 321 314 315 319 316 317 317 318 318 317 318 319 321 321 321 321 322 323 322 321 328 332 336 336 336
302 302 304 307 310 310 312 311 315 321 321 320 320 318 316 312 313 315 318 317 317 313 314 319 318 318 319 319 318 319 319 320 322 320 320 320 319 325 325 325 325 324 337 336 335
300 300 300 302 303 305 305 308 310 312 318 319 319 319 318 313 315 321 318 317 315 313 316 318 318 318 318 319 320 320 320 320 320 320 320 321 321 326 327 328 323 327 335 336 333
300 300 299 299 300 301 303 304 307 309 310 311 317 318 317 316 321 320 316 316 316 314 314 318 318 318 318 320 320 320 319 320 322 321 321 321 322 325 324 330 332 333 336 335 332
301 300 299 299 299 299 300 302 304 306 308 309 310 317 316 318 318 318 317 315 316 316 315 318 318 318 318 320 321 321 321 322 321 321 321 321 322 323 324 331 332 333 333 332 332
303 301 300 299 299 299 299 299 300 303 305 306 310 314 318 319 316 316 315 315 317 316 318 318 317 318 320 321 321 321 323 323 323 324 324 323 322 326 326 328 332 332 332 332 329
305 303 301 301 299 299 299 299 300 300 302 303 309 314 317 315 313 316 316 317 319 319 318 317 317 320 320 322 322 321 321 323 324 323 322 325 323 326 323 329 331 331 332 331 327
306 305 304 301 300 299 299 299 300 301 303 306 309 313 315 310 316 316 316 316 319 319 318 319 319 319 320 321 321 322 321 322 324 324 323 325 325 325 323 322 328 330 329 326 326
306 305 304 303 302 300 299 299 300 301 303 306 308 315 316 314 315 315 315 316 319 319 318 319 320 320 320 322 322 321 322 322 325 324 325 324 324 326 323 323 327 330 328 325 326
306 306 305 304 304 302 299 299 301 310 315 313 314 314 315 313 316 316 315 314 318 319 319 319 320 320 321 322 323 323 323 323 322 324 324 324 324 325 327 329 329 330 329 327 326
304 305 305 305 304 304 300 300 314 320 319 318 316 314 313 317 315 316 315 314 317 319 321 320 321 321 322 324 324 323 322 322 323 324 324 323 324 324 325 326 328 329 328 327 327
300 304 304 304 304 305 301 311 312 316 315 313 316 316 316 317 318 317 316 314 317 320 321 322 322 321 323 324 321 321 321 322 324 324 322 322 324 324 324 327 327 329 328 328 327
298 300 302 304 304 303 303 307 314 316 316 312 311 312 312 314 317 318 317 315 317 319 321 322 322 323 323 323 322 322 323 323 324 324 324 324 324 322 324 326 327 329 329 329 328
298 299 300 304 303 308 309 312 314 317 318 311 314 314 313 313 315 316 318 317 318 319 320 322 322 323 323 323 323 323 323 324 323 323 324 324 326 324 323 324 327 328 330 326 327
300 297 300 303 306 310 315 316 316 318 311 313 315 317 316 314 315 315 317 318 319 319 320 321 322 322 323 322 322 323 323 324 324 324 325 325 326 324 324 324 326 327 329 328 328
302 299 300 301 304 305 314 315 316 318 311 314 318 318 317 315 315 316 316 318 318 319 321 321 321 321 321 323 322 322 323 323 323 325 327 325 325 325 324 323 324 326 327 329 330
303 301 300 302 305 307 307 310 316 315 312 312 317 318 317 318 316 317 317 319 320 319 321 320 320 321 321 322 322 322 324 326 330 329 330 326 326 324 325 324 323 324 326 328 328
303 302 301 301 305 306 309 312 314 310 313 316 316 319 319 319 318 317 318 317 320 319 320 321 321 321 321 322 323 323 324 329 333 332 329 325 323 320 323 322 322 322 323 325 326
302 303 302 303 303 305 307 311 312 311 311 313 317 319 321 319 319 319 319 318 319 319 320 322 321 320 322 321 322 324 324 325 328 329 332 326 325 323 322 321 321 321 322 324 325
302 303 303 303 302 305 307 308 310 311 311 312 314 318 321 321 319 318 318 319 319 319 320 322 323 321 321 322 321 322 324 326 326 329 329 323 323 326 323 322 321 321 322 322 324
302 303 303 303 303 305 308 308 309 308 311 312 312 314 315 320 320 318 318 319 319 320 319 321 323 323 322 321 321 322 323 326 325 325 328 329 326 324 323 321 322 322 321 321 323
303 303 303 304 305 306 307 308 307 308 308 312 314 315 316 317 321 318 318 318 319 319 319 321 322 323 322 321 321 322 323 325 328 326 328 330 328 324 324 323 322 322 321 321 321
303 302 303 304 306 305 306 307 308 308 309 311 313 315 317 320 319 320 319 319 318 318 319 321 322 323 323 322 322 322 322 323 324 325 327 330 326 324 323 322 321 321 321 320 321
301 303 304 305 305 307 307 307 308 307 309 310 312 313 316 319 320 321 320 319 317 319 318 319 323 323 325 324 323 322 321 322 325 328 327 327 324 324 323 322 322 322 321 322 321
300 304 305 306 306 307 308 307 308 308 307 308 311 313 313 318 317 319 320 319 317 317 319 321 324 323 321 321 321 321 322 322 322 323 325 327 323 322 322 321 322 321 322 322 321
300 304 305 306 305 307 308 309 308 308 308 309 310 312 313 317 318 319 318 320 320 320 319 319 322 322 323 321 321 321 322 322 321 321 321 322 322 321 320 320 321 320 320 321 321
302 303 305 306 307 307 308 308 308 308 308 308 309 311 315 316 315 318 317 318 318 319 322 321 321 321 323 322 320 320 321 321 320 321 320 321 322 321 322 321 321 320 320 320 322

GFSSW_850_thetae_075.txt.gz
Theta_e
300 301 302 304 306 308 306 306 308 309 309 316 317 317 317 317 316 315 315 314 320 320 314 316 317 315 317 317 318 318 311 311 315 318 318 323 320 322 323 324 326 324 322 328 331
300 300 300 300 300 301 302 302 303 305 307 308 311 313 313 315 315 316 319 317 317 318 314 317 318 318 318 318 318 315 310 313 316 317 318 319 319 323 326 326 325 324 323 332 335
300 300 300 300 300 300 300 301 302 303 304 306 307 307 308 312 314 321 318 316 317 315 313 318 318 317 318 318 317 317 314 315 317 320 320 318 319 324 324 327 325 325 329 334 332
300 300 300 300 300 300 300 300 300 301 302 303 305 306 307 309 318 319 318 316 316 315 313 316 318 318 316 314 317 317 318 318 318 323 323 319 320 321 331 329 330 331 333 333 332
304 302 300 300 300 300 300 300 300 300 301 302 303 304 307 315 314 312 318 317 315 316 314 314 317 318 315 316 317 319 319 321 322 323 323 323 320 321 327 326 332 332 332 331 330
305 305 303 301 300 300 300 300 300 300 300 301 302 304 311 318 310 317 317 315 315 316 315 314 318 318 317 319 318 319 320 320 322 322 323 323 322 324 324 325 326 330 330 328 326
306 305 305 303 301 300 300 300 300 300 300 301 305 311 311 306 309 317 317 316 316 317 317 316 317 317 317 318 320 320 319 318 322 322 322 321 322 323 323 323 323 324 330 325 325
304 304 306 305 303 301 300 300 300 300 300 301 306 312 312 306 307 310 315 316 316 319 319 318 318 318 319 319 320 319 317 318 317 322 322 322 322 324 324 324 324 329 326 324 323
300 303 304 305 304 302 300 300 300 299 300 307 308 312 314 315 314 312 315 316 316 317 319 318 318 320 320 318 318 318 318 318 319 321 323 321 323 324 324 324 323 324 325 323 322
300 300 305 305 304 303 301 300 301 300 303 317 316 313 311 314 314 316 315 315 316 317 319 318 318 317 316 316 319 320 320 322 321 323 323 322 323 324 324 324 325 324 324 322 322
297 299 302 304 303 303 302 301 312 317 319 318 316 308 310 313 317 315 316 315 314 315 318 319 317 318 316 317 319 320 322 319 320 322 321 320 320 321 324 324 325 326 324 325 324
296 297 299 300 303 302 302 302 311 313 313 315 315 318 317 311 317 317 316 315 314 313 318 319 319 319 319 319 320 322 319 319 319 323 322 320 319 320 320 325 326 326 326 326 326
302 300 298 299 301 304 305 305 308 311 314 313 312 311 310 311 316 315 317 316 313 313 316 319 320 320 320 320 321 320 320 319 321 321 321 321 320 321 322 325 327 328 327 326 326
300 302 298 299 300 308 310 313 312 314 316 312 312 312 311 310 314 312 316 317 314 314 316 317 319 321 321 321 322 321 321 322 323 320 320 321 322 322 322 323 325 328 327 326 327
295 302 301 298 301 305 310 315 316 316 308 310 311 314 313 311 313 314 312 316 314 315 315 317 319 320 321 322 321 321 322 323 323 321 321 323 325 322 321 323 324 328 328 327 326
298 298 302 299 299 300 306 312 314 316 316 312 316 317 315 312 313 314 313 314 317 316 316 317 318 318 319 321 321 321 321 321 322 321 322 323 325 321 320 321 323 326 328 328 327
301 300 302 301 299 305 307 309 313 315 309 309 316 317 317 314 313 313 314 314 315 317 317 318 317 318 319 319 320 320 321 323 325 323 324 324 325 323 322 321 321 324 329 326 326
301 302 302 302 299 304 306 310 312 309 310 312 313 314 317 316 314 314 314 314 316 316 316 317 318 318 319 319 320 319 320 324 328 328 329 326 326 320 322 322 321 322 327 328 327
302 303 303 303 302 303 305 309 309 308 310 309 310 310 316 317 317 315 315 315 316 317 317 317 318 319 319 320 320 322 321 322 327 326 327 325 323 322 320 318 319 320 321 327 328
302 302 302 303 302 303 305 306 307 308 308 309 309 311 311 316 318 317 317 317 316 316 317 319 321 320 319 319 319 320 322 322 323 327 329 325 323 323 321 322 319 317 320 322 324
302 303 302 303 303 303 305 305 306 306 307 308 308 310 312 314 314 317 317 317 316 316 317 317 318 320 320 319 320 320 320 321 324 324 322 322 322 321 321 320 318 317 321 321 322
302 303 303 303 304 303 303 304 305 306 306 307 307 309 312 312 313 315 320 317 317 317 318 316 320 320 319 319 320 320 320 321 325 325 323 320 321 321 319 320 319 319 320 322 324
301 301 303 303 305 304 303 304 304 306 307 307 307 309 309 311 314 317 321 318 317 317 318 318 319 320 320 319 320 319 320 320 322 322 323 321 324 322 321 319 320 320 321 321 322
300 302 303 305 304 305 304 305 306 305 306 306 307 308 309 311 314 316 317 320 317 317 317 318 320 320 320 320 321 320 320 320 320 320 321 322 323 322 321 320 318 319 320 321 321
300 301 304 305 305 305 305 305 306 306 306 306 307 307 309 310 314 314 318 318 318 317 317 318 319 318 319 320 321 321 321 319 319 321 325 322 323 322 319 318 319 321 321 321 321
300 302 304 304 304 306 305 307 306 306 306 307 307 307 308 309 313 314 316 319 319 317 316 317 318 318 319 320 319 320 320 319 319 320 319 319 322 320 320 319 320 320 321 321 321
301 302 304 304 305 304 305 305 307 307 307 306 307 307 306 308 313 314 317 316 316 317 318 318 318 319 319 320 320 318 317 320 319 320 319 318 317 317 317 318 319 319 320 321 322

GFSSW_850_thetae_078.txt.gz
Theta_e
300 300 300 300 301 300 301 301 301 302 303 303 305 306 307 308 311 312 314 316 315 320 317 313 314 314 313 316 316 317 311 311 311 312 315 320 318 322 322 327 326 326 322 325 326
300 300 300 300 300 300 300 301 301 301 301 302 303 304 305 306 308 311 319 318 316 317 318 313 316 318 317 317 317 314 309 312 312 313 316 318 316 322 324 324 324 323 323 331 333
302 301 300 300 300 300 300 300 301 301 301 301 302 302 303 305 307 317 318 316 317 316 315 313 318 317 317 317 316 314 313 315 316 316 319 320 321 324 325 326 326 324 329 335 331
303 303 302 301 300 300 300 300 300 300 300 301 301 302 302 304 308 320 318 317 316 316 314 312 317 317 316 315 316 315 315 315 316 320 322 321 321 329 329 329 329 332 332 331 330
305 303 302 302 301 300 300 300 300 300 300 300 300 301 302 311 309 309 315 315 316 316 315 313 315 317 316 315 315 315 316 319 319 322 321 322 321 328 327 333 328 323 325 327 328
302 305 304 301 300 301 301 300 300 300 300 300 300 302 307 313 309 310 313 316 315 315 315 315 313 316 318 316 316 318 318 318 319 321 321 322 322 324 328 332 325 323 323 328 327
300 300 303 302 302 301 300 301 300 300 300 299 301 305 308 305 307 308 317 317 316 318 317 315 314 316 317 315 318 319 317 315 316 320 321 321 320 322 325 324 324 325 330 329 325
299 300 300 302 301 300 300 300 301 300 299 299 302 308 307 306 306 308 310 315 316 316 317 316 317 318 317 318 318 317 316 316 316 318 321 320 319 323 323 324 323 328 329 324 325
296 298 299 301 301 301 300 300 300 300 300 299 306 312 309 309 313 314 311 310 315 316 316 318 319 319 318 317 316 316 317 317 318 317 320 320 320 322 324 326 328 328 325 322 323
295 296 298 299 300 300 300 300 301 301 300 302 315 314 310 309 315 316 315 312 315 316 316 317 318 315 314 314 318 317 318 319 319 319 321 320 320 322 323 324 326 326 324 322 321
295 296 296 297 298 299 301 300 310 315 311 315 317 314 310 311 314 315 315 315 315 315 316 318 315 316 315 315 317 317 318 318 319 317 322 321 320 318 323 324 322 325 325 321 319
294 296 297 296 297 299 304 304 306 309 309 310 311 314 315 315 317 313 315 315 314 312 316 317 318 316 316 316 317 318 318 319 318 319 320 319 317 317 322 324 323 324 324 321 321
294 294 300 296 296 301 307 309 311 311 310 311 310 310 309 310 317 313 313 315 313 312 313 317 319 318 318 318 319 319 318 318 318 319 319 320 318 319 320 323 324 325 325 323 324
294 295 302 300 297 304 309 310 312 312 311 310 312 309 310 310 313 308 310 315 313 313 312 313 316 318 319 319 319 319 318 320 321 320 320 319 320 319 320 323 325 325 324 325 325
298 296 298 301 297 297 302 305 313 314 299 306 310 310 311 309 310 312 310 313 313 313 313 314 316 317 318 319 319 319 320 321 322 321 319 320 321 319 319 323 326 325 326 325 326
299 299 298 300 299 297 303 308 312 314 309 309 312 311 311 310 312 313 312 314 316 313 313 313 315 316 318 319 319 319 320 320 320 319 321 320 322 320 319 320 325 325 326 325 325
299 300 300 300 300 299 306 308 314 313 310 308 315 311 313 311 311 312 312 312 314 316 315 313 314 315 316 317 317 318 318 320 321 321 322 323 323 322 321 318 322 326 325 326 326
300 300 301 301 300 300 304 309 311 309 310 310 309 308 308 311 312 313 312 311 312 314 315 316 317 315 316 316 318 317 318 320 324 324 325 324 325 321 318 320 321 324 326 325 325
300 300 301 301 301 301 303 307 307 307 307 308 309 309 310 312 312 313 312 312 312 313 316 316 316 316 316 317 318 319 319 320 323 325 323 324 322 320 318 318 318 321 327 326 325
301 301 301 301 302 301 303 305 305 306 306 307 307 309 311 309 312 313 313 314 313 313 314 316 317 316 317 317 317 319 319 321 322 327 327 324 323 321 320 319 317 317 324 326 326
302 302 302 302 303 302 301 303 304 303 304 306 307 307 307 308 311 313 313 312 313 314 314 316 316 317 317 316 317 318 319 320 321 323 323 322 321 318 320 319 316 315 322 325 326
302 303 303 302 303 303 302 301 303 303 304 305 305 306 306 307 309 310 311 313 316 315 314 315 316 317 317 317 317 318 319 319 321 323 321 319 322 317 318 316 315 316 321 321 323
302 301 303 303 304 304 304 303 302 303 304 305 307 306 307 307 308 313 314 314 313 317 317 314 316 317 317 317 317 318 318 319 320 321 322 322 322 319 317 319 318 317 319 320 322
299 302 302 303 303 304 304 305 304 303 302 303 305 305 306 307 308 311 315 314 315 316 317 317 317 317 317 318 318 319 319 319 320 320 320 320 320 321 321 319 319 318 319 320 321
299 300 303 303 304 304 303 305 305 304 305 305 305 304 305 307 308 308 312 315 314 315 317 317 318 318 317 319 319 319 319 319 320 319 320 319 320 319 319 319 319 320 318 320 321
299 301 302 302 303 304 304 305 305 305 304 304 305 305 305 306 307 308 312 314 315 315 317 316 316 318 319 319 319 319 319 320 319 317 318 320 320 319 320 320 318 319 320 320 320
300 301 303 303 303 304 304 303 306 304 305 304 305 306 306 306 306 307 311 314 314 314 314 316 317 317 318 319 319 319 319 320 319 318 318 318 317 317 317 316 315 318 319 320 321

GFSSW_850_thetae_081.txt.gz
Theta_e
301 300 300 301 300 300 300 300 301 301 301 302 302 303 304 305 307 308 311 318 316 314 318 313 314 312 311 313 315 315 311 311 312 312 313 316 317 322 322 326 326 327 325 323 334
305 303 301 300 301 301 300 300 300 301 301 301 302 303 303 304 306 309 314 316 315 318 319 316 315 317 317 316 315 311 309 312 311 311 313 315 315 321 324 326 325 323 322 328 330
305 305 304 303 301 301 300 300 300 300 300 301 301 302 303 303 305 311 317 316 316 316 316 315 313 317 316 316 315 312 313 312 314 315 315 315 318 323 323 323 325 326 324 331 331
305 304 303 302 301 301 301 301 300 300 300 300 300 301 302 302 305 319 317 317 317 316 315 314 312 316 314 314 314 314 313 314 315 318 317 317 321 329 325 328 328 328 329 332 331
301 302 301 302 301 300 300 301 301 300 300 300 299 300 301 306 305 307 314 315 315 316 315 314 312 316 315 315 314 313 314 317 318 318 319 320 320 327 328 329 329 330 332 332 329
300 300 300 301 301 300 300 300 300 301 300 300 299 299 303 311 308 308 309 309 308 315 315 315 314 313 315 316 314 316 317 317 318 318 319 321 325 324 325 331 328 323 326 329 328
297 298 300 300 300 300 300 300 300 300 300 300 299 299 304 303 306 306 306 316 313 315 315 316 315 314 316 316 317 317 316 314 315 317 318 320 320 321 322 331 330 325 324 328 326
298 296 297 298 299 300 300 300 300 300 300 300 299 300 304 304 305 307 306 307 317 316 316 317 317 316 316 317 316 316 316 316 315 316 318 319 317 318 325 327 324 325 329 327 322
296 296 296 297 298 299 299 300 301 301 300 300 299 303 306 305 308 312 314 312 312 316 315 315 318 318 317 315 314 314 315 316 317 316 317 318 317 317 323 324 324 325 328 324 320
295 295 295 296 296 297 299 301 304 305 301 300 309 308 303 305 312 315 315 315 310 313 315 315 316 314 312 313 316 315 316 317 317 316 318 319 318 321 323 325 327 328 326 322 318
295 295 295 296 296 297 299 301 307 310 309 311 312 309 308 312 311 314 316 315 312 315 313 315 314 316 315 313 316 316 317 316 316 316 317 317 319 317 321 323 323 325 324 321 318
295 295 295 295 296 296 304 308 306 306 308 308 308 309 311 311 313 312 314 314 313 313 313 315 317 316 314 314 315 316 316 316 316 316 317 317 318 314 319 321 322 323 324 321 318
294 294 295 295 296 296 305 308 308 309 309 309 306 309 308 309 311 311 310 314 312 312 313 314 316 316 316 316 317 316 317 317 316 317 316 318 317 317 320 322 323 322 324 323 319
294 294 294 295 297 301 308 307 306 310 309 309 311 309 309 311 313 309 311 313 312 313 311 312 314 316 316 317 317 318 317 318 317 317 320 318 319 317 318 322 323 323 324 324 320
294 295 295 295 298 297 297 300 308 312 298 304 309 310 311 308 308 311 309 312 312 312 311 312 313 314 316 318 317 318 318 318 318 318 318 319 319 317 319 322 322 323 324 324 323
297 298 300 296 297 297 297 300 311 311 307 306 310 310 311 309 310 312 311 312 312 313 312 311 314 314 315 316 317 318 318 318 317 317 320 319 319 318 316 319 323 323 324 324 324
298 298 300 299 298 298 300 306 311 309 308 308 310 308 308 310 310 310 311 311 313 313 315 312 312 313 316 316 316 317 317 318 319 319 320 319 321 320 318 317 321 324 324 326 325
298 299 300 300 300 300 301 306 310 309 309 309 307 307 307 311 312 313 310 310 310 314 313 315 314 312 312 315 316 316 317 318 322 321 320 323 325 322 318 317 319 324 325 326 325
299 300 300 299 301 301 302 304 303 307 307 306 306 308 309 308 311 313 313 312 309 310 315 315 314 314 313 315 316 316 317 317 319 322 322 322 321 319 317 317 317 321 324 325 326
298 300 300 299 301 302 301 300 302 305 305 305 306 306 307 306 308 312 313 313 312 314 311 315 316 315 315 314 315 316 317 320 320 324 326 322 322 322 319 317 315 318 323 325 325
300 301 300 300 300 302 301 299 302 301 302 305 306 305 305 305 306 311 312 311 314 314 316 313 314 316 315 315 315 317 318 318 319 319 321 322 319 316 319 317 315 314 323 324 325
300 301 301 300 302 302 301 300 301 303 304 303 304 304 305 305 306 307 310 310 313 314 315 317 314 315 315 315 315 315 317 319 319 321 319 319 320 317 316 316 316 315 319 324 324
300 301 301 301 301 302 302 302 300 301 303 304 306 305 305 304 305 306 307 312 313 314 315 316 316 315 316 315 315 316 317 317 318 318 320 321 320 317 316 316 315 315 317 319 323
300 301 302 302 302 301 303 304 304 302 301 302 303 304 304 305 305 307 309 311 312 314 315 315 318 319 317 315 315 317 317 317 319 318 318 321 320 319 318 317 317 319 319 318 321
300 299 302 303 303 303 302 303 305 304 302 302 302 302 302 303 304 305 305 307 312 313 312 316 317 317 316 315 318 318 318 318 318 317 318 318 320 320 318 317 317 321 321 319 317
299 300 302 301 302 303 303 304 303 304 304 304 305 305 303 303 304 304 305 304 311 313 312 312 316 316 317 315 316 318 320 319 318 318 317 317 318 317 317 318 318 320 319 319 319
300 300 302 302 302 304 304 303 304 303 304 303 304 304 304 304 304 304 304 305 309 313 309 308 313 314 317 318 319 320 319 319 319 317 316 318 317 317 317 316 316 319 320 318 319

GFSSW_850_thetae_084.txt.gz
Theta_e
302 302 302 301 301 300 301 300 300 300 301 301 301 302 303 304 306 307 309 311 317 315 314 313 311 311 312 312 315 314 310 310 312 311 313 314 315 319 322 324 325 327 326 323 326
301 301 301 301 301 301 301 301 300 300 300 300 301 301 302 303 305 308 311 312 316 315 316 316 315 314 315 315 314 310 309 311 310 310 312 314 313 314 322 324 325 326 325 323 328
304 302 301 300 300 300 300 301 301 301 300 300 300 301 302 302 305 310 316 316 316 318 318 316 314 317 316 316 314 311 312 311 313 315 314 312 315 318 321 322 324 325 325 323 329
303 302 301 300 300 300 300 300 300 300 301 300 300 301 301 302 305 317 317 317 317 316 316 314 313 316 313 313 314 313 312 312 314 316 316 316 318 325 322 323 327 326 326 328 329
300 300 300 300 300 300 301 300 300 300 300 300 300 300 300 303 304 306 313 316 316 316 315 314 312 315 314 313 313 311 312 315 317 317 317 317 317 321 326 325 328 329 330 330 329
299 298 297 299 299 300 300 300 300 300 300 300 300 300 301 304 307 307 307 308 311 314 315 314 312 313 315 315 313 314 314 315 316 316 315 318 320 324 322 325 331 325 327 328 330
299 297 297 296 297 298 299 300 300 300 300 300 300 300 301 303 305 306 305 308 314 310 314 314 314 315 315 315 316 316 315 312 313 315 316 317 317 323 321 323 329 325 324 326 327
295 295 296 296 296 297 298 299 300 300 301 301 300 300 302 303 303 305 305 305 307 313 314 314 317 315 314 315 315 316 313 314 313 315 316 317 317 315 319 322 329 328 327 327 326
295 295 296 296 296 296 297 298 300 303 302 300 300 301 302 303 306 311 314 315 314 309 316 315 315 317 315 314 314 312 314 314 315 315 317 318 317 316 322 326 324 323 326 326 324
295 295 295 296 296 296 297 298 303 310 303 300 306 304 301 303 307 313 315 314 312 308 314 314 316 313 311 312 314 315 316 315 316 316 315 316 316 314 321 323 323 324 326 325 321
295 295 296 296 295 296 297 301 303 306 306 309 308 308 304 309 310 314 315 314 312 313 312 313 312 314 314 313 313 314 316 316 314 314 316 314 313 314 318 322 322 325 326 325 320
295 295 295 296 295 296 300 306 305 304 306 306 304 307 307 309 311 310 313 314 312 312 312 314 314 314 313 313 314 315 316 315 314 314 315 315 315 315 316 320 322 323 325 325 321
297 295 295 295 295 296 301 307 303 305 308 308 308 308 308 307 309 308 307 313 312 312 312 314 315 315 314 314 315 314 315 315 314 314 314 315 315 315 317 320 322 322 323 324 323
298 294 295 295 295 298 300 307 300 307 308 307 310 309 309 309 310 307 309 309 312 312 312 312 313 314 315 315 315 315 314 315 316 316 317 316 318 316 316 316 321 321 322 323 325
299 296 294 295 296 296 297 297 300 309 302 304 309 310 310 309 308 311 310 310 310 311 311 312 312 313 314 316 315 316 315 316 317 316 316 317 318 316 317 318 318 320 322 323 325
298 297 296 297 296 296 297 297 307 310 307 306 310 310 310 309 309 310 311 311 311 312 310 310 312 311 312 315 315 317 317 317 316 316 318 317 317 316 316 317 319 319 322 323 323
297 295 298 299 298 298 299 302 311 308 306 308 308 307 307 310 311 311 310 310 310 312 311 312 311 312 314 314 314 316 315 317 319 319 320 316 318 318 317 315 316 317 321 322 324
296 297 298 299 299 299 300 304 308 307 309 306 306 307 308 306 311 312 310 309 309 312 309 308 309 311 311 314 316 315 315 317 322 321 319 319 321 320 318 317 318 318 319 323 323
295 298 299 298 300 300 301 300 305 305 306 305 305 307 308 305 307 310 312 312 311 310 314 314 312 312 312 313 314 314 317 316 317 319 321 319 319 318 318 316 315 316 322 324 324
297 298 298 299 300 301 301 300 299 303 304 304 304 305 304 303 303 305 310 312 313 314 314 311 315 314 314 312 312 314 315 318 317 321 323 320 321 320 320 318 315 316 320 323 324
298 299 299 299 299 301 300 298 301 301 301 303 305 304 304 305 304 306 307 310 312 313 314 315 311 311 312 313 313 314 315 317 317 317 320 321 319 315 318 317 317 313 318 322 323
298 300 299 300 301 301 300 299 300 301 302 301 303 303 303 304 304 304 308 308 309 313 315 315 316 314 313 312 312 313 314 315 317 319 317 317 318 316 315 316 315 315 317 321 321
298 299 300 301 301 300 301 301 301 300 301 302 304 304 303 303 302 303 304 307 312 314 314 312 317 318 314 314 314 313 314 315 317 316 318 320 318 316 315 315 316 316 319 318 320
298 300 299 301 300 299 300 301 302 301 300 300 302 302 303 303 304 305 305 305 305 304 312 312 314 317 319 317 316 316 314 315 317 317 318 319 318 319 317 317 315 316 317 318 319
297 299 300 297 301 300 299 301 301 303 301 300 300 301 301 302 302 302 302 303 303 305 312 313 313 313 314 316 316 317 316 315 316 316 317 317 317 317 316 316 316 320 319 319 318
298 299 299 301 301 301 301 301 301 302 303 302 302 303 301 301 302 303 304 304 305 310 311 310 311 312 313 311 315 316 316 316 316 316 316 315 315 315 316 318 316 318 320 319 319
297 298 299 301 300 302 302 302 302 302 303 303 303 303 304 304 302 302 303 303 303 304 309 310 312 312 312 312 314 316 314 317 317 316 316 317 315 314 315 314 315 318 319 319 321

GFSSW_850_thetae_087.txt.gz
Theta_e
302 301 301 301 301 301 301 301 301 301 301 301 302 303 303 303 304 305 307 308 310 315 314 313 310 314 315 313 315 314 316 316 316 314 317 314 315 316 319 323 324 325 324 325 324
302 302 301 301 301 300 300 300 300 300 301 301 302 302 303 303 304 306 311 310 310 315 314 314 311 311 311 312 314 314 316 316 314 314 316 315 314 315 319 323 324 324 324 326 325
300 301 300 300 300 300 300 301 300 300 300 301 301 301 302 303 304 307 317 312 316 314 315 316 314 314 315 314 313 312 316 314 314 314 314 314 315 315 320 322 322 323 324 325 324
299 299 299 299 299 300 300 300 300 301 300 300 300 301 301 302 305 313 316 316 316 317 318 315 315 316 315 316 313 314 314 314 314 315 314 315 317 322 321 322 323 325 325 325 326
301 299 298 298 298 298 299 299 300 300 300 300 300 300 301 301 304 306 305 316 317 317 316 314 313 314 316 314 313 313 314 313 314 314 315 315 316 318 321 321 323 324 327 328 328
299 297 297 297 297 297 297 298 299 299 300 300 300 300 300 301 305 307 306 307 315 314 315 314 312 312 314 315 314 315 313 314 315 316 315 316 318 322 322 321 325 328 329 328 327
296 296 296 296 296 297 297 297 297 298 300 300 300 300 300 303 304 304 304 305 308 309 310 313 312 313 313 316 314 315 317 316 316 315 316 316 319 322 320 326 328 328 325 326 327
296 296 296 296 296 297 297 297 297 299 300 302 302 301 300 303 303 303 303 304 304 313 312 312 313 314 314 314 315 316 315 317 314 316 316 318 322 318 318 327 328 326 326 325 326
296 295 295 295 296 296 297 298 298 301 303 303 301 300 301 302 303 309 313 312 309 305 314 314 315 316 315 316 315 315 316 315 316 316 318 319 320 319 319 326 328 328 326 325 325
298 296 295 295 295 296 296 297 300 306 308 303 306 303 301 303 307 313 314 314 313 311 311 313 314 317 315 316 315 314 317 316 317 317 316 317 318 318 317 322 324 323 325 325 325
301 297 295 295 295 295 296 299 302 305 303 305 306 305 302 306 308 312 315 314 312 308 313 314 316 318 318 317 315 315 316 317 317 316 316 317 317 318 317 320 322 323 325 325 324
300 299 295 295 295 295 297 305 301 301 304 305 305 305 305 307 308 311 312 313 312 312 313 314 316 316 315 315 317 316 317 317 316 315 316 318 319 319 317 320 321 323 325 325 323
299 299 296 295 295 295 299 306 298 301 306 307 307 307 306 305 307 308 307 312 312 312 313 315 315 315 315 315 317 317 318 317 317 316 316 317 320 320 318 319 321 322 323 324 324
298 298 298 294 295 297 299 306 298 304 309 307 309 308 309 308 309 306 307 307 312 314 313 313 313 315 315 316 316 317 316 316 316 317 316 318 322 320 320 319 321 322 322 323 324
298 298 298 297 296 296 296 297 297 309 305 304 309 309 309 309 308 311 309 308 308 312 313 314 313 314 315 316 315 316 316 317 317 318 318 319 320 321 317 320 321 320 322 322 322
297 297 297 297 297 296 296 297 304 311 306 306 310 310 310 309 309 310 311 310 310 309 311 312 311 313 314 314 315 316 317 317 317 319 322 320 320 321 321 321 321 320 321 322 322
295 296 296 297 298 299 298 300 311 308 305 308 307 307 307 308 312 312 311 311 311 310 310 312 312 312 314 314 315 317 318 320 322 322 322 319 320 322 320 319 319 321 320 321 322
296 297 296 297 298 299 299 304 307 304 308 306 305 306 309 305 308 312 310 310 311 311 311 309 309 312 312 315 316 317 319 320 319 323 322 318 322 321 320 320 319 318 317 318 321
297 296 295 296 298 300 301 303 303 304 305 305 304 307 308 304 306 307 313 313 313 314 313 315 310 312 312 314 316 316 317 317 318 320 323 322 322 320 320 320 318 317 319 321 322
295 295 295 297 299 300 300 298 299 302 302 304 304 305 304 303 303 304 310 312 313 312 314 315 314 313 313 312 313 316 316 318 318 318 320 321 322 321 321 321 320 319 319 322 322
295 296 297 297 298 300 299 299 300 300 302 301 305 304 304 304 305 305 309 310 310 310 314 314 315 314 313 313 314 314 315 317 318 319 320 321 322 321 322 321 320 321 317 319 322
296 298 297 299 299 299 299 298 299 300 300 302 303 303 302 303 303 302 304 306 304 313 312 314 316 319 316 315 314 313 314 315 317 317 321 321 321 317 321 319 320 319 319 317 319
296 297 298 299 300 298 299 299 300 300 300 302 303 304 304 302 300 302 304 304 306 308 306 308 313 311 316 314 315 316 315 315 316 317 318 321 320 317 317 317 317 318 319 321 318
296 298 297 299 300 299 299 300 300 301 300 300 301 302 304 304 304 305 305 304 304 303 304 311 312 308 310 317 315 314 315 316 318 319 318 319 318 320 319 319 319 318 319 319 319
295 298 298 299 299 300 299 299 299 300 301 301 300 301 303 303 303 303 302 303 304 306 306 312 312 312 313 312 313 314 314 315 317 319 317 317 317 318 319 320 320 320 319 319 320
296 296 298 299 299 300 301 300 300 299 302 302 301 302 301 301 302 302 303 304 305 307 311 311 312 311 311 312 313 313 313 314 317 318 318 316 317 317 318 317 317 317 318 318 320
295 295 297 298 298 300 300 300 300 300 301 301 302 302 303 303 302 302 302 303 304 304 304 306 308 310 312 312 312 313 314 316 317 317 317 318 318 317 317 317 316 317 317 318 319

GFSSW_850_thetae_090.txt.gz
Theta_e
300 300 301 301 300 300 300 300 301 301 301 301 302 303 303 303 304 304 308 308 307 309 313 315 312 315 315 316 316 316 318 319 318 318 319 319 319 320 321 323 324 326 326 327 329
300 300 300 300 300 300 300 300 301 301 302 301 301 302 302 303 304 306 311 312 308 311 312 315 313 314 315 315 316 317 319 319 319 319 319 319 320 320 320 321 322 324 327 327 331
300 299 299 299 299 299 299 300 300 301 301 302 302 302 301 302 305 309 315 315 310 314 314 314 314 314 315 315 315 316 318 318 318 318 318 319 319 320 320 322 322 322 324 328 331
303 300 299 298 298 298 298 298 299 300 300 300 301 302 301 301 310 311 315 316 316 314 314 315 315 315 317 318 317 317 317 316 317 318 318 319 319 320 320 321 321 325 327 328 331
300 298 298 297 297 297 297 298 298 298 299 300 300 301 301 308 305 306 305 307 316 316 315 316 317 317 318 318 318 318 318 317 317 317 317 318 319 320 319 319 321 327 327 329 332
297 297 296 296 297 297 297 297 298 298 299 299 299 300 302 307 305 304 306 305 314 317 317 315 315 316 316 317 318 318 317 317 317 317 318 319 319 320 320 324 326 329 330 332 332
299 296 296 296 296 297 297 297 297 298 299 299 300 303 305 305 305 304 305 306 307 312 314 315 315 314 315 317 317 317 318 318 318 318 318 318 319 320 322 326 328 331 331 331 330
301 297 296 296 296 297 297 298 298 298 299 300 301 303 307 303 302 303 303 303 304 305 310 312 313 314 316 316 317 318 319 320 319 318 319 320 322 323 322 325 327 329 329 329 329
301 300 296 296 296 296 297 297 298 299 300 304 303 305 306 303 303 308 307 306 307 304 310 314 314 314 316 317 318 319 320 320 320 318 318 321 322 323 323 324 325 327 329 329 329
300 301 299 296 296 296 297 297 299 302 305 306 307 306 305 305 310 314 315 314 314 308 311 314 315 318 318 318 319 320 320 319 319 319 320 321 322 323 322 323 325 326 328 329 328
300 300 300 297 295 296 296 299 304 307 305 307 307 307 306 308 307 313 314 315 313 310 310 314 317 318 318 318 318 318 319 319 319 319 319 318 319 322 322 322 324 325 327 328 329
300 299 299 298 295 295 296 305 302 301 304 304 305 305 305 306 307 308 313 315 314 315 313 317 317 316 317 318 318 318 317 318 319 319 318 319 320 322 323 323 324 325 327 328 328
299 299 299 298 295 296 298 304 301 299 305 306 308 308 308 307 307 306 309 314 316 316 314 317 317 316 317 317 317 318 319 319 319 319 319 319 320 321 322 322 323 324 325 327 328
297 298 298 298 299 298 302 303 302 300 310 309 310 310 311 309 310 308 307 309 315 315 315 315 315 316 316 316 316 317 318 318 318 319 320 319 320 322 323 323 323 323 325 326 328
298 297 297 297 300 301 300 296 297 307 305 306 311 310 311 311 311 312 310 308 309 315 315 315 315 315 316 317 315 317 317 317 318 320 320 319 318 321 322 322 323 324 324 326 327
298 297 296 298 299 300 297 297 304 310 305 307 311 311 311 311 311 311 311 310 308 310 313 315 314 315 315 316 317 318 318 319 319 320 322 320 319 321 323 322 323 323 324 325 327
298 296 295 298 300 300 299 302 308 304 305 308 310 309 309 311 313 312 312 313 312 309 308 311 312 314 314 315 315 317 317 320 322 323 322 319 320 321 323 323 323 323 323 325 326
296 296 297 298 299 299 302 304 304 302 306 308 307 307 310 306 309 313 313 312 314 313 313 310 310 310 313 314 316 317 317 322 323 323 322 321 322 322 323 322 323 324 324 324 326
297 297 297 297 295 298 302 302 301 303 305 307 306 307 310 306 306 311 315 314 312 312 313 314 310 313 312 313 314 317 319 319 321 319 322 323 323 323 323 323 323 323 322 323 326
298 298 297 298 295 300 302 300 301 304 304 305 304 306 309 306 306 306 314 314 312 309 316 314 316 314 315 314 314 314 317 319 320 320 321 322 323 323 322 322 322 322 323 324 326
297 298 298 296 297 300 301 300 300 300 302 303 306 305 305 304 304 303 308 311 308 310 312 313 317 315 315 316 316 316 317 318 319 320 321 322 322 322 322 322 322 323 323 324 326
297 299 298 298 300 300 300 300 299 300 301 302 303 302 303 303 303 303 302 305 305 305 308 308 315 317 317 316 316 316 317 317 320 320 321 322 322 321 322 323 323 323 322 322 325
297 297 297 299 301 300 300 300 299 300 300 302 303 304 304 302 301 302 304 306 307 308 307 308 314 314 314 316 317 317 318 318 319 319 319 323 321 320 319 320 321 321 322 322 322
296 299 298 298 299 300 300 300 300 300 300 300 301 302 302 302 302 301 305 307 306 306 305 306 309 308 310 312 314 314 316 316 317 321 320 320 319 319 319 319 321 321 322 322 322
296 298 298 299 300 300 301 300 300 301 301 301 302 301 302 303 304 304 304 306 306 308 309 308 307 309 310 310 311 311 312 314 316 316 320 320 320 319 319 319 318 318 320 321 320
296 298 298 298 299 300 300 301 300 301 301 302 302 302 302 303 304 304 304 305 306 307 310 311 311 310 311 311 311 311 311 311 313 315 316 317 319 319 318 317 318 319 320 321 321
296 297 297 298 299 300 301 301 301 301 301 301 302 303 303 303 303 303 304 304 306 307 307 308 310 309 309 311 312 312 313 312 312 314 317 320 319 319 319 318 318 319 320 320 321

GFSSW_850_thetae_093.txt.gz
Theta_e
300 300 300 300 300 300 300 300 301 301 301 302 302 303 303 303 305 306 311 312 314 309 310 317 318 316 316 318 319 319 320 321 322 322 322 321 321 320 321 321 321 321 324 326 328
300 300 299 299 299 298 299 299 300 300 301 301 302 303 303 303 304 309 313 312 311 307 311 318 319 316 317 318 319 320 321 321 323 321 320 321 321 320 321 321 321 322 324 327 329
302 300 300 299 298 298 298 298 298 298 300 300 301 302 302 303 309 315 312 315 314 312 313 318 318 317 318 318 319 319 320 321 321 320 319 320 320 320 321 322 322 323 323 325 329
299 299 298 298 298 297 297 297 298 298 299 299 300 301 301 303 313 313 313 310 315 313 317 317 317 317 319 319 318 319 319 320 320 319 319 320 319 320 320 321 321 321 325 327 328
300 298 297 297 297 297 297 297 298 298 298 299 299 300 300 309 312 311 308 307 307 315 317 317 318 318 319 320 319 320 320 320 320 319 319 319 319 319 319 320 321 323 327 327 329
302 299 297 297 297 297 297 297 298 298 298 299 299 300 306 309 309 308 308 309 312 317 317 317 319 320 320 320 320 320 320 320 320 320 320 320 319 319 319 320 323 326 328 329 332
301 301 297 297 296 297 297 297 297 298 298 299 299 300 309 307 307 309 310 309 312 313 317 318 318 317 318 319 318 319 320 321 321 320 321 320 320 320 319 321 324 326 330 330 331
301 301 301 297 296 296 297 297 297 298 299 299 300 305 309 307 307 307 308 308 310 312 313 316 317 317 317 318 319 320 320 321 322 322 321 320 320 323 322 324 324 328 330 330 330
301 301 301 301 297 296 297 297 297 298 299 300 307 310 310 307 306 308 309 307 307 307 308 310 314 316 317 319 319 320 321 322 323 322 321 321 322 324 325 325 324 326 328 329 330
301 301 300 300 298 296 296 297 302 305 308 309 311 310 310 307 309 311 315 314 311 311 308 311 313 316 317 319 320 320 321 322 323 323 321 321 321 322 322 324 324 324 326 329 330
300 300 300 300 298 296 296 305 307 310 310 308 309 310 308 308 309 309 313 317 317 314 312 312 315 317 317 318 319 320 321 323 323 323 321 322 322 321 322 323 324 324 325 327 330
300 299 300 299 299 296 299 306 304 304 305 305 305 305 306 306 307 309 312 315 317 317 314 313 315 316 319 319 320 320 321 322 322 322 321 321 322 321 321 322 323 323 325 326 329
300 298 298 298 297 299 303 306 305 304 306 306 307 309 310 309 308 309 309 314 316 317 317 315 315 317 317 319 319 320 321 322 321 322 321 321 322 321 321 321 322 323 323 325 328
299 298 298 297 300 304 304 305 305 304 310 309 311 311 311 310 311 310 308 310 314 316 316 317 316 317 318 318 319 322 320 319 320 322 323 323 323 322 323 324 324 324 323 324 326
298 298 298 297 299 301 304 303 303 307 306 309 311 312 313 312 313 311 311 308 311 314 315 316 316 316 317 318 318 320 319 318 319 321 322 321 322 322 323 323 323 323 323 324 326
298 298 298 299 300 301 302 303 305 311 306 309 312 313 313 313 313 313 312 312 310 311 313 316 316 317 316 317 317 318 318 319 320 321 323 323 323 323 323 324 324 324 324 325 326
298 299 297 299 300 303 302 304 307 305 306 307 311 312 311 313 314 314 314 313 313 310 310 314 316 316 316 316 318 318 320 322 325 327 325 323 323 323 324 323 324 324 323 326 327
299 298 298 299 300 300 302 305 305 305 307 310 310 311 311 311 313 314 315 315 315 312 314 311 312 315 316 317 318 318 320 321 323 327 328 324 322 322 324 324 323 323 323 326 327
297 298 300 300 300 300 302 305 303 304 305 307 309 310 312 310 310 315 315 315 315 314 316 315 312 313 313 313 315 317 319 319 321 323 325 325 323 323 323 324 323 323 324 325 327
298 299 300 300 300 300 303 303 303 304 306 306 307 308 309 311 310 310 316 315 313 312 316 317 319 315 312 313 314 314 317 319 320 323 325 324 323 323 323 324 323 323 323 323 325
298 300 300 300 300 301 304 303 302 302 302 305 305 307 308 309 309 309 312 314 312 312 314 314 318 317 316 316 315 314 315 316 319 320 322 325 323 323 323 323 324 324 324 324 326
298 301 301 300 301 301 303 302 301 301 301 304 305 306 307 306 306 306 306 308 307 307 310 312 317 318 317 317 317 318 317 316 319 320 321 322 323 323 322 322 325 324 324 323 327
298 299 300 300 302 302 302 302 302 302 301 302 304 305 305 306 304 304 304 306 308 309 310 310 314 317 315 316 317 318 318 318 319 320 321 325 324 322 321 320 320 321 322 323 324
298 301 299 300 300 302 302 301 301 301 301 301 302 303 304 304 304 303 304 306 309 309 307 308 311 313 313 314 314 317 318 318 318 321 321 320 319 320 320 320 320 319 320 322 324
297 299 299 302 301 301 302 302 301 301 302 302 302 302 302 302 302 303 303 304 307 308 309 310 309 310 310 309 311 312 313 314 315 317 319 319 320 320 321 320 320 319 319 319 321
296 298 298 299 300 301 301 302 303 302 301 303 303 303 303 302 304 305 305 306 306 307 309 311 311 309 309 310 310 310 310 311 311 313 316 317 317 317 318 318 318 318 318 319 320
296 297 298 300 300 301 302 301 301 302 302 302 303 303 304 304 303 304 304 305 306 308 309 310 311 311 310 309 311 313 312 312 311 311 312 315 316 316 319 319 319 318 318 318 319

GFSSW_850_thetae_096.txt.gz
Theta_e
303 301 299 299 299 299 299 299 300 300 300 301 301 302 302 304 307 308 309 312 314 315 311 313 317 318 318 318 319 320 322 322 321 322 323 322 322 321 321 321 321 321 321 323 329
299 300 300 299 299 299 298 298 299 299 299 300 300 301 301 302 305 310 314 313 313 312 310 314 318 319 318 318 319 321 322 321 321 323 322 321 321 322 321 321 322 321 323 325 327
300 298 298 299 299 298 298 298 298 299 299 299 300 300 301 301 307 318 315 312 315 314 315 314 319 320 319 318 319 320 321 321 321 321 321 321 321 321 321 321 321 322 322 323 326
300 299 298 298 298 298 298 298 298 298 299 299 299 300 300 301 315 315 311 311 309 312 312 316 318 320 320 320 320 320 320 320 320 320 320 320 320 321 320 320 320 321 322 325 326
301 299 299 298 297 297 297 298 298 298 298 299 299 299 300 308 310 309 311 311 309 308 317 318 319 320 320 320 320 320 320 320 320 320 321 321 321 320 320 319 319 320 323 326 327
302 302 301 299 298 297 297 297 298 298 298 299 299 299 303 310 308 310 309 310 311 315 317 318 318 319 319 320 320 320 321 321 321 321 321 321 322 321 320 319 319 320 324 327 328
302 302 301 301 299 297 297 297 298 298 298 298 299 300 308 306 307 309 310 311 310 312 315 318 318 319 320 321 321 321 321 321 321 321 321 321 322 321 321 320 320 322 324 328 328
302 301 301 301 300 298 297 297 298 298 298 298 299 302 308 305 309 308 309 309 310 311 314 315 318 319 319 319 319 320 321 321 321 322 322 322 322 323 322 322 321 324 325 328 329
301 300 301 301 301 299 297 297 298 298 301 303 303 310 311 310 309 309 308 308 308 310 311 313 315 317 318 319 320 320 321 321 321 323 323 322 321 322 323 324 324 324 325 327 329
301 301 301 300 300 299 297 297 299 304 307 311 310 311 312 310 309 311 311 316 312 309 309 309 309 314 316 318 321 321 321 321 321 322 323 323 322 322 322 325 325 324 324 326 329
300 301 301 300 299 298 297 300 308 310 312 313 315 312 312 310 308 309 310 313 316 314 313 311 310 312 315 317 317 320 321 322 322 323 324 324 323 322 323 322 323 324 324 324 328
300 302 301 300 299 297 297 305 307 305 306 305 305 306 306 306 306 308 310 313 317 318 317 314 311 313 314 316 318 318 319 321 322 322 323 323 322 322 323 323 322 321 323 325 327
298 302 301 299 298 302 305 304 306 306 306 305 305 306 308 309 308 308 309 310 315 317 318 314 314 314 314 314 316 320 321 322 322 322 323 323 323 322 322 323 322 321 323 324 327
296 300 300 298 299 303 304 306 304 305 308 306 310 310 310 311 311 311 310 310 312 314 315 317 317 316 315 316 315 317 320 321 322 322 322 322 325 324 324 323 323 322 322 323 323
298 298 299 298 298 301 303 305 304 307 305 311 312 312 313 311 314 312 311 310 310 314 314 316 316 316 316 316 318 318 319 320 322 322 322 322 324 323 323 323 323 324 325 324 324
297 297 298 298 300 302 302 304 306 308 306 307 312 313 313 314 313 314 314 310 310 310 311 313 314 315 316 317 317 318 319 319 319 321 323 322 324 324 323 324 324 324 324 324 325
297 297 298 300 300 302 303 303 305 304 307 306 310 313 313 314 315 313 315 314 313 311 311 311 312 314 316 317 317 317 318 321 323 325 326 323 324 325 324 324 324 325 325 325 326
296 298 298 300 299 301 302 304 305 305 306 307 310 311 312 311 313 314 315 315 314 314 313 312 311 311 315 317 317 317 318 322 323 328 326 327 326 325 323 323 323 323 323 325 327
296 297 299 300 300 300 301 305 303 305 306 307 308 308 309 311 312 314 315 315 315 315 315 316 316 313 314 316 316 317 319 319 321 322 327 326 326 326 323 324 324 324 323 326 327
296 298 299 300 301 300 301 304 303 304 305 306 307 309 309 310 311 312 315 315 315 313 314 319 319 314 314 315 316 316 318 319 320 322 323 323 326 326 325 325 325 324 324 325 326
296 299 300 301 301 301 302 302 303 303 304 304 306 306 307 310 311 311 312 316 314 313 312 315 316 318 313 312 313 313 314 315 316 319 321 324 325 324 325 324 325 325 324 324 324
296 302 301 301 302 300 302 302 302 304 302 303 304 306 307 308 308 309 310 312 308 309 309 313 313 319 318 317 317 318 315 315 317 318 320 321 322 322 323 322 323 323 322 323 325
297 299 300 301 303 302 302 302 303 303 303 302 302 304 304 305 307 307 307 308 309 309 310 310 313 316 316 316 317 317 319 317 316 317 320 323 322 323 323 320 320 321 320 321 324
298 301 300 301 301 302 303 303 302 302 303 302 302 303 303 305 306 306 305 307 309 308 308 309 309 311 316 314 314 317 318 319 319 321 320 321 320 322 322 321 321 320 320 320 320
297 299 300 303 302 302 302 303 303 302 302 302 301 302 302 303 304 304 305 304 305 307 308 309 307 308 309 310 310 310 313 315 316 318 319 319 319 320 320 319 318 318 319 319 319
297 298 298 299 300 302 302 302 302 304 303 303 303 303 302 302 302 302 303 305 305 306 308 310 310 310 309 309 308 309 310 311 312 313 313 316 317 317 317 317 318 318 318 318 318
296 297 298 299 301 302 302 302 301 302 302 303 303 304 304 303 304 303 305 306 307 308 309 310 310 311 311 310 309 311 310 309 309 310 310 312 314 315 317 317 318 319 319 319 319

GFSSW_850_thetae_099.txt.gz
Theta_e
300 299 299 299 299 299 299 299 299 299 300 300 300 301 301 302 304 305 308 312 312 314 314 313 312 314 317 318 318 318 314 315 316 318 319 320 318 320 321 321 320 321 321 321 328
300 299 298 298 298 298 298 298 299 299 299 300 300 300 300 301 303 306 313 314 313 312 312 313 313 317 318 318 317 315 313 316 318 319 319 320 318 320 320 319 320 320 324 325 328
301 300 298 298 298 298 298 298 298 298 299 299 300 300 300 300 303 315 312 313 314 314 312 311 312 317 318 318 318 317 316 317 319 320 320 318 317 320 318 317 319 320 321 324 327
302 302 301 299 298 298 298 298 298 298 299 299 299 299 300 300 308 314 309 309 311 312 309 315 312 313 317 317 319 315 317 318 318 320 319 317 319 318 319 319 320 319 319 323 326
302 302 302 301 300 298 298 298 298 298 298 299 298 298 299 304 304 306 308 310 310 310 309 313 316 317 317 318 318 317 317 319 319 319 319 319 319 319 319 320 320 319 319 322 325
302 302 301 300 300 299 298 298 298 298 298 298 298 298 301 308 306 309 310 310 309 311 315 317 317 318 318 318 317 318 318 318 319 319 319 319 319 320 320 320 320 320 319 322 326
302 301 301 300 300 299 298 298 298 298 298 298 298 299 302 302 305 305 308 310 311 310 311 314 317 318 318 318 320 320 318 318 318 318 318 319 318 318 320 321 320 320 320 324 327
300 300 301 301 301 301 299 298 298 298 298 298 301 303 305 304 306 305 308 308 309 309 310 313 313 315 317 319 319 318 317 317 318 318 319 319 319 320 321 321 320 320 321 323 327
298 299 300 301 301 300 299 298 298 298 298 298 304 306 310 309 311 309 310 309 308 307 309 311 313 314 316 316 316 317 318 317 318 318 319 319 319 319 321 321 321 322 322 323 326
300 298 298 301 301 300 297 297 299 305 303 308 310 310 308 308 309 309 312 311 314 313 308 310 309 309 313 314 318 317 318 318 319 319 319 318 318 318 321 320 322 323 324 324 327
301 299 299 301 301 299 296 301 308 308 307 313 313 308 310 313 312 311 307 310 310 315 308 309 306 306 307 313 315 316 317 318 318 318 320 319 319 319 318 319 318 323 323 323 324
298 299 297 300 300 298 301 305 306 306 306 305 305 308 311 310 310 307 306 306 311 316 315 309 308 308 309 310 314 315 316 315 316 317 319 320 319 319 318 319 320 320 320 322 329
298 297 296 298 300 298 303 304 305 305 304 303 303 303 304 304 305 304 306 307 309 314 317 315 315 311 310 310 311 312 314 316 316 318 320 320 321 318 320 320 321 321 321 322 330
297 298 298 297 299 299 301 303 305 305 306 305 306 306 305 306 309 310 309 307 309 310 314 316 316 315 310 311 312 312 313 315 318 320 321 321 323 320 320 320 320 320 321 321 330
297 298 297 297 298 298 300 302 304 305 306 305 308 311 309 309 312 312 311 309 308 309 312 313 314 315 315 315 313 313 314 315 316 318 319 321 322 319 320 322 321 317 321 320 331
298 297 297 297 298 298 301 303 303 305 306 306 312 311 311 311 311 312 311 310 310 309 309 309 311 311 313 314 314 316 316 317 317 318 321 322 321 319 320 322 322 321 322 321 330
296 297 296 297 297 299 300 301 303 305 303 303 306 312 312 314 313 313 314 310 309 310 309 309 309 309 311 311 313 314 314 319 321 319 319 320 321 320 320 321 321 322 322 323 330
296 296 296 297 297 299 300 301 304 303 301 304 307 308 312 312 313 313 312 313 311 311 310 309 310 309 311 311 314 315 315 319 321 323 322 321 326 323 322 322 322 322 323 326 330
295 296 295 296 298 299 300 301 301 302 304 304 305 307 308 311 310 313 313 313 313 312 313 314 313 316 311 310 314 316 316 315 319 320 324 324 322 322 323 323 323 321 324 328 329
296 296 296 297 298 300 302 300 302 303 303 303 304 307 307 307 312 311 312 315 314 313 313 317 318 317 317 311 312 315 316 317 318 319 320 321 325 327 323 323 324 323 321 326 329
295 296 297 299 299 300 300 299 300 301 302 303 303 303 305 308 309 312 311 312 310 310 308 314 315 317 317 312 313 314 315 314 317 318 319 320 321 322 324 322 321 321 320 321 328
295 296 300 300 301 300 300 300 300 301 302 303 303 302 303 305 307 308 310 311 309 310 309 309 312 318 318 316 316 314 314 313 315 314 317 318 318 321 321 321 320 321 321 320 320
296 297 298 299 301 298 300 301 300 301 302 303 303 303 303 303 304 308 308 309 309 309 308 308 311 315 320 316 316 317 317 318 313 314 315 317 318 320 321 319 320 321 320 319 319
296 297 300 300 300 301 301 303 303 303 302 302 303 302 302 302 304 306 306 307 307 309 308 309 308 308 311 314 313 311 312 318 316 315 314 314 315 321 321 321 319 318 317 319 318
296 296 298 300 301 300 301 302 302 303 303 302 302 301 301 301 302 303 304 304 305 307 307 308 309 309 309 309 308 308 308 312 314 317 320 319 317 318 320 319 317 316 320 321 321
296 296 298 298 299 300 301 302 302 301 302 303 303 302 301 300 301 301 302 302 307 307 307 308 310 311 310 311 310 309 308 308 309 310 311 312 312 313 315 316 315 321 321 321 322
294 296 296 297 297 297 298 301 302 302 302 302 303 303 303 304 305 304 305 305 306 306 308 309 309 310 312 311 311 310 309 309 309 309 308 308 310 311 310 316 318 318 317 318 319

GFSSW_850_thetae_102.txt.gz
Theta_e
300 300 299 299 299 299 299 299 299 300 300 300 300 300 301 301 303 304 305 309 311 312 313 315 313 312 315 318 317 317 312 311 312 315 316 318 316 319 319 319 320 320 320 320 326
302 300 300 299 298 298 299 298 299 299 299 299 300 300 300 300 302 306 311 313 312 312 312 313 314 313 316 317 318 313 310 313 313 314 316 318 317 318 317 318 318 319 322 322 327
301 301 300 300 299 298 298 298 299 298 298 299 299 300 300 300 302 309 310 309 311 312 312 312 314 312 317 317 317 313 315 315 315 317 318 317 316 318 317 316 318 319 323 325 329
301 302 301 300 300 299 298 298 298 298 298 298 298 298 299 300 302 315 311 309 308 310 310 310 312 311 312 315 317 314 315 315 316 317 317 316 318 316 318 318 320 319 318 324 328
303 303 301 300 299 298 297 298 298 298 298 298 298 298 298 301 302 305 305 306 310 310 311 310 314 312 313 314 316 315 316 317 317 317 317 317 315 315 317 319 320 321 319 321 325
300 300 299 299 299 299 299 298 298 298 298 298 298 297 300 305 305 306 309 310 310 311 310 314 314 315 316 316 315 317 317 316 317 317 316 316 316 317 319 320 320 320 320 320 322
299 298 297 298 298 298 298 298 298 298 298 298 297 297 302 302 305 304 303 306 308 310 310 310 312 316 317 315 317 317 316 315 315 317 316 319 316 316 320 319 319 320 320 320 320
300 300 299 297 297 298 298 297 298 298 298 297 297 298 303 303 303 305 305 305 307 309 310 310 310 310 313 315 317 317 316 316 317 317 318 317 318 317 320 319 319 320 321 320 320
300 300 300 298 297 297 298 297 298 298 298 298 297 303 306 307 308 309 309 308 309 308 308 308 310 311 314 315 315 315 318 317 317 317 316 317 317 316 320 319 319 319 320 319 322
298 298 298 297 296 297 297 297 301 306 307 304 307 309 305 305 308 311 309 311 310 312 311 307 309 307 311 313 317 317 316 316 317 317 316 315 317 316 318 318 317 320 320 320 325
299 298 298 297 296 296 299 301 304 306 305 306 309 308 307 308 310 311 311 307 308 310 311 308 305 306 306 313 315 316 316 316 316 316 315 315 314 315 316 317 315 318 320 321 321
297 297 297 297 296 297 301 303 302 303 304 305 304 304 306 307 308 308 309 308 307 308 311 309 307 307 307 307 310 314 315 315 315 314 314 314 316 315 317 316 318 318 319 321 320
297 296 297 298 297 297 301 301 302 304 304 303 302 302 302 302 304 304 304 305 304 307 312 315 312 309 308 307 308 310 313 314 314 314 314 314 317 318 318 318 320 320 319 318 322
297 297 296 297 297 299 298 299 302 304 302 303 304 303 302 303 305 304 303 304 305 305 307 314 315 315 311 308 308 307 309 310 312 313 314 318 320 318 318 319 319 319 320 319 323
297 297 298 297 296 297 297 299 302 305 302 302 304 304 305 305 308 311 307 303 305 307 308 309 315 316 316 314 309 309 310 311 312 312 315 317 319 317 318 319 319 319 320 319 323
295 295 296 297 296 296 298 300 302 303 301 303 308 308 305 305 309 311 309 307 307 307 307 308 309 310 313 314 312 310 310 311 312 313 317 319 320 318 317 319 319 320 321 321 321
295 295 295 296 296 296 297 299 301 301 301 301 304 305 306 309 309 310 311 308 307 307 308 308 308 308 308 308 309 311 312 314 316 317 317 317 319 318 318 319 319 319 320 321 321
295 296 296 295 295 296 298 301 302 298 300 301 303 304 306 311 312 312 311 308 307 308 308 308 308 307 308 308 309 311 312 314 317 320 318 317 320 321 321 321 322 321 321 322 326
295 296 295 296 295 297 298 300 302 301 302 302 303 305 306 307 309 312 313 312 309 308 311 312 309 313 308 309 309 311 314 313 315 319 319 319 320 320 322 322 322 321 319 324 328
295 295 295 297 296 298 300 300 300 300 300 301 302 303 303 304 307 311 311 312 311 310 310 313 316 315 316 313 309 312 313 315 314 316 317 318 320 321 323 324 321 321 319 324 328
295 295 296 299 297 298 299 298 300 299 300 301 302 302 303 303 303 311 309 310 311 310 310 309 314 315 316 314 310 310 312 314 316 316 316 318 317 321 322 321 321 321 321 319 320
295 295 297 298 298 298 301 300 299 300 300 300 302 303 303 303 303 309 309 308 309 308 311 309 310 315 317 315 314 316 314 316 317 317 316 317 317 320 319 321 322 320 321 321 319
296 296 296 298 295 300 299 300 301 301 302 300 302 302 302 302 302 306 309 307 308 308 308 307 311 313 317 316 315 312 313 318 316 314 316 317 315 320 320 318 318 319 320 319 321
295 295 297 299 299 299 301 300 301 302 302 302 303 302 301 300 302 303 305 306 305 307 305 306 309 307 311 316 314 310 310 315 316 314 315 314 314 321 321 320 318 318 319 318 321
294 294 296 290 295 298 300 300 301 302 302 302 302 302 301 299 299 300 302 302 303 306 309 307 310 309 309 310 310 309 308 309 315 314 315 317 319 320 320 320 320 319 320 318 321
294 296 296 296 297 297 298 300 301 300 302 303 302 302 302 302 302 304 305 304 304 306 307 308 310 309 310 309 310 311 310 309 310 312 311 310 309 313 317 317 317 317 318 318 319
294 294 295 295 295 294 296 299 299 300 301 301 302 302 302 304 304 304 304 304 303 305 305 308 308 309 310 310 311 308 309 309 309 310 311 309 316 315 318 317 316 316 316 318 317

GFSSW_850_thetae_105.txt.gz
Theta_e
301 301 300 300 299 299 299 299 299 299 299 299 299 300 300 301 302 304 305 308 308 308 310 309 314 313 313 317 316 316 312 312 313 313 314 317 316 318 319 317 318 319 319 321 323
301 300 300 299 299 299 299 299 299 299 299 299 299 299 300 300 302 305 310 312 313 308 310 311 315 314 314 316 317 312 309 313 311 312 314 316 316 317 317 316 317 318 319 321 322
301 301 300 299 298 298 298 298 299 299 299 299 299 299 299 300 301 307 310 308 310 311 310 311 312 315 316 316 314 312 314 314 313 315 316 315 315 316 315 314 316 318 319 323 325
299 299 299 298 297 297 297 298 298 298 298 299 299 299 299 299 301 314 311 310 309 310 310 311 313 312 311 314 316 313 312 315 316 316 315 313 316 315 316 316 318 318 318 320 326
297 297 297 296 296 296 297 297 298 298 298 298 298 298 298 300 302 305 304 304 305 309 309 310 311 311 309 311 314 313 314 316 316 317 316 316 313 314 315 318 319 318 318 318 321
299 298 298 298 297 297 296 296 298 298 298 298 297 297 297 303 304 303 305 308 308 308 311 312 312 313 312 312 312 315 315 316 317 317 316 314 315 315 318 319 319 319 319 318 320
297 299 299 297 297 296 296 296 297 297 298 298 297 297 297 300 303 303 303 304 305 304 308 312 312 315 315 315 317 316 315 314 313 315 314 317 313 313 319 319 318 319 320 320 319
297 296 297 296 295 295 295 296 297 298 299 298 297 296 299 302 301 303 305 304 304 304 306 310 309 308 309 311 314 316 315 316 315 314 315 315 318 316 319 318 318 319 319 320 320
298 299 297 297 296 296 296 296 297 302 303 303 299 297 300 303 305 310 310 309 308 306 308 309 308 308 310 313 313 313 315 315 316 315 316 314 315 315 318 317 317 319 320 319 319
296 296 296 296 296 297 296 297 298 305 305 306 306 306 303 305 309 308 310 309 309 308 311 308 307 306 308 311 314 313 315 315 316 315 315 314 315 313 316 315 317 318 320 319 319
296 296 296 296 296 296 296 301 300 302 301 302 304 307 306 306 306 308 310 311 309 308 309 307 304 305 307 310 312 313 314 314 316 315 315 313 313 313 312 314 314 318 320 320 319
297 296 296 296 296 297 298 299 299 300 301 302 302 302 301 302 304 303 304 307 306 305 308 310 307 305 305 306 310 312 314 315 314 314 314 314 315 314 312 314 316 318 319 320 319
297 296 297 297 296 297 297 298 298 301 303 303 301 302 302 302 303 303 302 306 304 305 307 308 311 311 306 306 306 307 310 312 314 314 312 311 313 313 313 315 318 319 319 319 320
295 296 296 296 297 296 296 297 298 302 302 302 303 302 301 302 303 302 302 303 302 304 304 307 309 311 307 306 306 306 306 308 310 312 312 312 314 314 316 316 316 317 319 319 319
295 294 294 294 296 296 296 296 298 303 300 301 302 302 303 302 303 307 303 303 302 303 305 304 314 312 312 313 306 307 308 307 308 308 309 309 315 314 316 317 317 317 318 318 319
293 294 294 295 295 295 296 296 299 301 301 300 302 303 304 304 304 308 303 303 303 302 305 304 308 311 313 314 311 309 308 308 309 308 310 310 313 312 313 316 317 317 318 318 319
292 293 294 295 296 295 295 297 299 299 299 299 300 301 303 306 308 305 306 304 304 304 304 305 306 306 308 307 308 310 309 311 314 315 313 313 317 315 315 316 317 319 319 319 319
293 293 293 295 295 295 295 299 296 298 298 299 299 301 305 305 307 308 309 306 306 306 305 304 304 306 306 307 307 308 309 312 315 316 316 316 317 316 316 320 320 321 319 323 323
293 294 295 298 295 295 296 292 297 300 302 301 300 303 303 304 304 307 311 311 309 308 308 308 307 307 306 307 308 309 309 310 312 316 317 316 317 316 319 321 320 320 320 319 327
294 294 296 299 295 296 298 298 298 300 299 300 299 303 302 304 305 304 311 308 310 310 309 310 313 312 314 307 306 309 310 312 313 315 317 315 318 316 318 322 322 320 320 320 318
294 294 298 297 296 297 294 298 299 299 299 299 300 300 302 303 304 304 310 307 309 308 308 307 310 313 315 313 310 307 310 312 313 312 315 316 314 314 316 321 321 321 320 321 320
294 288 297 296 296 297 298 300 300 300 300 301 300 301 303 303 302 304 310 307 307 308 310 306 308 311 314 314 313 313 309 310 314 316 314 313 313 316 317 320 319 321 320 320 319
294 295 295 297 295 294 299 300 300 300 301 301 301 302 302 302 302 302 303 305 306 307 307 306 309 311 314 314 313 312 310 315 314 314 316 316 315 318 317 317 319 320 321 320 320
294 293 295 297 298 297 298 299 300 300 301 301 302 302 302 300 302 301 302 303 303 305 306 306 308 309 311 310 314 312 309 314 315 313 315 313 316 320 321 320 319 319 318 319 320
294 294 294 289 294 297 298 298 299 300 301 302 301 302 302 301 301 303 304 304 304 307 306 305 308 308 309 309 312 313 309 309 315 314 314 313 312 318 319 317 319 319 319 319 318
294 295 296 295 295 295 296 296 299 298 300 302 302 301 301 302 303 304 304 303 304 304 306 308 309 308 309 310 310 312 311 310 311 314 315 316 310 314 316 316 316 318 320 319 316
294 293 294 294 294 293 295 298 297 298 300 300 300 300 301 301 303 302 302 303 303 304 304 307 309 309 307 309 308 309 310 310 310 311 314 315 314 316 315 315 315 317 317 317 316

GFSSW_850_thetae_108.txt.gz
Theta_e
299 299 299 299 298 298 299 299 299 299 299 299 299 300 300 301 302 303 304 305 305 306 307 308 309 313 313 315 314 314 310 310 312 311 313 315 315 316 317 317 317 318 318 319 320
298 298 298 298 297 298 298 298 298 298 298 298 299 299 300 300 302 305 310 310 312 308 306 308 309 314 313 316 315 311 309 311 310 310 312 314 314 315 316 315 316 317 318 318 320
297 297 297 297 297 297 298 298 298 298 298 298 298 299 299 300 301 305 309 308 309 308 308 311 313 315 314 314 314 311 312 311 312 314 315 314 313 315 315 313 316 317 318 318 319
296 296 296 297 297 297 298 298 298 298 298 298 298 299 299 299 301 309 312 310 310 306 311 310 311 314 313 312 314 311 310 314 314 315 315 312 315 314 314 315 317 318 317 317 317
297 296 296 296 296 297 298 298 298 297 297 298 298 298 298 299 301 302 303 304 303 305 309 311 312 312 309 308 311 312 312 314 314 315 314 315 313 313 314 319 318 318 318 319 317
297 296 296 296 296 296 297 298 298 297 298 298 298 298 297 301 302 303 303 305 307 307 310 310 310 311 310 309 310 313 313 314 315 315 315 315 315 315 316 317 318 319 319 319 318
298 297 296 295 295 296 296 297 298 297 298 298 300 298 297 300 302 301 300 301 305 308 306 305 312 313 314 313 314 314 313 312 312 314 313 315 312 312 317 317 317 318 318 318 319
296 295 295 296 296 296 296 298 298 297 297 299 301 299 297 301 300 303 310 309 306 303 303 304 307 311 311 311 310 314 313 314 314 313 314 316 317 315 317 316 317 317 318 319 320
295 295 296 296 295 295 296 297 298 298 301 302 303 300 299 301 303 307 310 309 309 309 304 304 308 307 308 309 310 310 312 314 315 313 315 314 317 314 316 316 315 317 318 318 318
295 296 295 295 295 296 296 297 299 301 303 303 306 305 303 304 306 308 307 309 309 308 307 306 306 304 305 308 309 311 312 314 314 315 314 313 314 312 315 314 314 315 317 317 318
295 295 295 295 295 295 296 297 299 300 299 300 300 301 300 301 301 301 304 308 307 307 307 305 303 304 305 306 308 310 311 312 314 314 314 313 313 311 311 312 311 314 315 316 318
295 295 294 294 294 296 295 299 297 298 300 300 301 301 300 301 302 301 301 302 305 305 307 308 305 305 303 305 308 309 310 311 312 313 314 314 315 314 311 310 312 314 315 316 319
295 294 294 293 293 295 296 296 296 300 301 301 300 301 301 301 302 302 302 303 304 304 305 306 308 309 306 305 306 307 310 311 312 313 311 312 312 310 309 310 313 314 316 318 319
294 294 292 292 294 294 295 295 296 301 300 300 302 301 301 302 302 302 302 302 303 304 303 305 306 307 308 307 305 306 306 308 309 310 308 309 310 311 311 312 314 315 317 317 318
293 292 292 293 293 295 294 294 296 301 295 300 301 301 299 302 301 303 302 302 301 300 303 305 305 305 307 308 305 306 306 306 306 307 307 308 306 307 311 315 314 314 317 319 319
292 292 292 293 294 295 295 294 297 297 297 298 300 300 299 300 304 305 304 302 302 299 300 302 306 306 307 307 307 306 307 307 306 306 308 307 307 307 309 312 316 318 318 321 321
292 292 292 293 295 295 295 296 294 296 297 298 300 300 300 301 305 305 305 301 301 301 299 300 302 304 307 307 309 308 308 311 311 309 311 308 309 310 312 313 319 319 319 318 322
292 292 294 296 296 295 296 292 291 296 297 300 300 299 300 301 304 304 308 307 304 304 302 300 301 303 304 306 307 309 311 312 315 316 314 312 311 313 312 316 319 319 319 319 320
292 293 297 298 295 295 296 287 295 297 299 299 300 300 302 301 301 305 304 309 311 309 309 305 303 304 304 305 307 307 309 309 309 314 314 312 315 314 317 318 318 319 319 319 320
294 293 298 299 295 296 294 297 296 299 299 300 300 300 300 300 303 304 305 306 307 308 308 309 312 311 309 305 305 307 308 310 309 313 314 312 316 316 320 320 319 318 318 319 319
294 293 297 296 296 296 293 296 297 298 298 300 300 300 301 301 304 304 304 305 305 306 308 307 309 311 313 310 305 305 307 309 310 310 313 313 312 312 314 318 319 319 319 319 318
294 287 297 296 294 295 296 298 299 299 299 300 300 301 301 303 304 304 304 303 303 304 309 307 308 310 311 313 312 310 308 308 311 312 312 312 312 315 317 317 317 318 321 319 317
294 294 295 296 294 291 296 299 299 299 300 301 301 301 302 303 303 302 303 302 302 305 306 306 308 311 313 312 311 310 310 313 309 311 313 314 313 316 317 317 318 319 319 319 316
294 289 294 297 297 296 292 296 298 299 300 300 301 301 302 302 302 302 303 304 303 305 306 306 309 308 310 309 309 313 309 308 310 310 311 313 318 319 318 318 318 319 319 319 318
293 289 294 291 292 295 295 297 297 298 299 300 301 300 301 302 302 303 304 304 304 305 307 306 309 308 307 308 310 312 313 310 314 312 312 313 311 312 319 318 317 318 318 318 317
294 294 294 294 294 295 294 295 297 296 298 300 300 299 300 301 301 302 302 303 303 304 304 306 306 308 307 306 305 311 311 310 311 313 314 312 314 315 315 318 318 320 319 317 317
293 294 294 293 294 292 294 296 295 296 297 299 299 299 300 300 299 300 301 301 302 303 303 304 307 307 307 307 307 309 310 310 311 311 312 312 314 315 315 317 317 316 316 316 316

GFSSW_850_thetae_111.txt.gz
Theta_e
298 298 298 298 299 298 299 299 299 299 299 299 300 300 300 301 303 304 304 305 306 305 305 305 312 313 313 314 313 313 314 314 314 314 315 315 317 316 316 316 317 318 317 318 318
297 297 298 298 298 298 298 298 298 298 298 299 300 300 300 300 302 304 309 309 310 311 305 306 310 312 313 315 314 314 314 313 313 314 315 315 315 315 316 316 316 316 317 318 318
297 297 297 298 298 298 298 298 298 298 298 299 299 300 300 300 301 304 310 308 308 307 306 307 310 312 313 314 313 313 314 313 313 313 313 315 315 315 316 317 316 317 317 318 318
297 297 297 297 297 298 298 299 298 298 298 298 299 300 300 300 302 306 308 310 310 307 307 310 313 314 315 314 313 314 312 314 314 313 314 315 314 316 315 316 316 317 318 318 318
297 296 297 297 297 297 298 299 299 299 299 298 298 299 299 299 301 302 302 302 303 303 305 310 311 312 312 311 312 313 313 313 314 314 314 314 315 315 314 316 316 318 318 318 319
296 296 296 296 296 297 298 298 298 299 299 299 299 298 300 298 302 302 302 302 303 306 310 310 311 311 310 310 312 312 313 313 313 313 313 315 315 314 315 315 316 318 318 318 319
295 296 296 296 296 297 298 298 299 299 299 299 299 300 301 301 301 299 300 302 304 301 305 307 307 310 312 313 312 313 314 314 314 314 315 314 317 316 316 317 316 317 318 318 318
295 295 295 295 295 296 298 298 299 299 299 299 300 301 300 301 300 303 310 309 308 308 306 305 304 304 312 311 309 312 313 314 315 315 315 316 318 318 317 315 316 316 317 317 318
295 295 295 295 295 296 298 298 299 299 299 300 303 303 302 301 303 304 307 306 308 308 308 306 304 307 308 309 309 310 311 314 315 315 316 316 318 317 315 315 316 316 316 317 317
294 294 295 294 294 295 297 298 298 299 300 300 303 303 303 302 301 302 304 302 305 308 306 304 306 307 307 309 309 309 311 313 314 316 315 317 317 316 316 315 316 315 315 316 317
294 294 294 293 293 294 297 297 297 299 298 298 298 299 298 300 299 300 300 302 305 305 308 305 306 306 307 308 309 309 311 313 314 315 316 317 317 317 315 315 314 316 316 315 314
293 294 294 293 293 294 294 295 296 296 298 297 298 300 300 301 301 301 301 301 301 301 306 307 308 308 306 307 308 308 309 309 310 312 313 314 315 315 315 315 315 315 314 314 315
293 293 293 293 293 294 294 295 296 300 299 298 299 300 300 301 301 301 301 302 302 301 303 308 309 309 306 305 306 307 308 308 309 311 313 314 313 312 312 313 312 312 313 314 314
293 293 293 293 294 294 294 294 296 299 297 297 300 301 299 299 302 300 302 302 303 303 302 304 306 308 308 308 307 307 307 307 309 311 310 310 311 311 312 313 314 315 316 319 322
292 292 292 292 293 294 295 294 295 300 293 297 300 300 298 299 299 302 305 302 302 302 303 304 306 307 308 309 307 309 308 308 309 310 310 309 310 310 311 314 314 320 319 320 323
292 292 292 292 293 294 294 294 296 295 293 296 299 298 299 299 302 303 304 304 302 302 301 302 301 306 307 307 308 307 307 307 307 308 308 308 308 310 312 313 321 320 319 320 321
291 292 292 293 294 294 294 295 294 293 296 297 298 299 299 301 302 300 301 304 305 302 302 302 301 302 308 307 307 307 308 309 311 311 312 310 309 311 313 317 321 321 320 320 320
291 292 293 296 295 295 295 294 293 295 296 298 299 299 300 301 300 300 303 304 307 304 304 306 305 301 303 307 308 308 309 310 309 311 311 310 311 312 313 315 320 319 320 320 320
292 293 297 297 295 295 295 293 294 296 298 298 299 299 299 299 300 302 304 305 305 304 308 309 303 302 302 305 311 310 310 311 312 314 315 315 314 316 317 321 320 320 320 319 321
293 296 297 297 295 296 295 297 296 297 298 298 299 299 299 300 301 304 305 303 305 303 302 309 311 310 308 304 306 310 312 312 312 313 314 314 316 316 321 322 321 321 319 318 321
293 295 296 296 296 296 295 296 297 297 298 299 300 300 300 301 302 304 304 303 303 303 305 306 309 311 311 306 304 305 310 311 313 313 312 312 314 315 317 321 322 321 318 318 319
293 291 296 296 294 295 296 297 298 299 299 300 300 300 301 302 303 304 303 303 302 303 305 307 309 311 310 313 312 307 307 311 313 313 314 314 314 317 319 320 319 320 317 317 316
293 293 294 295 293 294 296 298 299 299 299 300 301 301 302 302 302 303 302 303 303 304 305 306 310 312 311 312 311 312 310 310 310 312 312 315 313 318 319 319 320 320 318 318 317
293 290 293 297 296 295 295 296 297 297 299 299 300 301 300 301 302 302 302 303 302 303 305 304 309 310 311 310 310 312 313 313 312 310 311 314 319 320 319 320 320 319 319 319 317
293 291 293 292 295 295 295 296 296 297 297 299 300 299 300 301 301 302 302 302 302 304 303 306 307 308 308 307 310 311 312 312 313 312 310 311 313 320 319 320 319 319 319 318 318
293 293 293 293 294 295 295 295 296 296 297 298 300 299 299 300 300 301 300 300 302 303 302 303 308 307 308 307 306 307 312 312 310 314 314 314 317 316 317 318 319 318 318 318 317
293 294 294 292 294 294 295 295 295 295 296 297 297 297 300 299 298 298 299 299 300 302 302 303 305 306 306 307 307 309 311 311 310 310 313 314 317 318 319 319 318 317 316 315 313

GFSSW_850_thetae_117.txt.gz
Theta_e
299 299 299 299 299 299 299 299 300 300 301 301 301 302 302 303 304 308 309 308 308 309 309 310 313 314 316 317 318 319 321 322 322 322 322 321 320 320 320 321 322 322 323 325 326
298 298 299 299 299 299 299 299 300 300 300 301 301 302 302 303 303 311 308 309 309 309 313 313 313 315 316 318 318 320 322 322 322 322 321 321 320 320 320 321 321 322 322 322 323
298 298 299 299 299 299 299 299 300 300 300 301 302 302 302 303 311 313 309 309 309 308 313 313 313 314 316 318 319 320 321 322 322 321 320 320 319 319 320 321 321 322 322 322 322
298 298 298 299 299 299 299 299 300 300 300 301 302 302 302 303 308 311 302 302 302 304 310 310 314 315 316 318 318 321 321 321 321 321 321 320 319 320 319 319 319 320 321 322 321
297 298 298 299 299 299 299 299 300 300 300 301 302 302 302 308 306 303 302 302 303 305 310 311 311 313 317 318 318 319 320 320 320 320 319 319 320 320 320 319 319 318 319 319 320
298 298 298 298 298 298 299 299 300 300 300 301 301 301 308 309 303 304 306 308 308 308 306 306 311 311 312 314 316 317 318 319 319 320 319 320 320 319 320 319 319 319 319 319 319
297 298 298 298 298 298 299 299 300 300 300 300 301 302 309 308 305 310 308 308 310 309 311 311 306 310 312 314 314 315 317 318 318 318 319 319 320 321 321 320 320 320 320 320 319
297 298 298 298 298 298 299 299 300 300 300 300 300 308 309 303 305 304 304 304 304 305 307 310 309 307 308 309 311 312 316 318 319 319 319 319 321 322 322 322 322 322 322 321 321
297 297 297 298 298 298 298 299 299 300 299 300 310 307 308 306 304 304 304 305 304 305 305 309 309 309 308 309 310 311 312 314 317 318 320 320 321 321 321 322 322 323 323 323 323
296 297 297 298 298 298 298 299 302 301 301 304 307 304 304 304 303 304 304 304 305 305 306 307 309 311 310 309 309 310 312 313 315 316 317 318 319 321 321 321 322 322 322 323 323
296 296 296 296 297 297 299 303 303 307 302 302 302 303 304 302 304 303 304 303 306 307 308 308 308 310 309 310 310 309 309 310 313 315 316 317 317 318 320 321 321 321 322 322 323
296 296 295 295 296 296 300 301 299 297 304 302 303 304 302 302 302 302 303 304 304 307 308 308 308 308 309 310 310 309 308 310 311 312 313 314 315 318 318 318 319 320 321 321 321
295 295 295 295 295 299 300 299 298 300 306 302 303 303 302 302 302 303 303 304 305 306 307 307 308 308 308 308 309 309 309 310 310 311 312 313 313 314 315 316 316 316 317 319 320
295 294 294 295 300 299 301 299 300 301 309 303 303 304 302 302 304 303 304 303 305 306 306 306 307 306 307 307 308 308 310 310 309 309 310 313 313 314 316 317 318 318 317 317 317
294 294 294 294 297 300 298 298 300 305 308 302 302 300 302 303 303 304 303 303 306 307 308 308 307 306 307 308 308 307 309 311 310 310 311 311 311 313 316 316 318 318 317 318 320
293 293 293 299 300 297 296 296 303 311 305 302 302 302 303 303 303 303 303 305 306 306 306 306 306 308 306 307 308 308 308 310 311 311 311 312 312 313 315 316 318 320 319 321 324
292 293 295 297 302 294 296 302 307 304 301 302 301 302 303 303 303 303 304 305 306 305 305 306 307 307 308 307 307 308 308 309 311 313 313 312 312 313 315 316 318 322 324 324 326
292 293 293 297 296 295 302 305 306 301 301 302 302 303 302 303 303 304 304 305 305 305 306 306 308 306 306 307 307 307 308 310 310 311 311 311 311 313 315 316 318 322 324 325 326
292 299 300 295 295 299 304 308 303 302 301 302 303 302 303 303 303 304 304 305 304 304 306 307 306 306 308 309 309 307 309 309 311 311 311 312 312 314 315 316 322 324 324 326 327
300 301 301 295 295 303 305 302 302 301 301 302 302 302 302 303 303 304 304 305 305 304 304 306 308 307 308 311 311 308 308 309 311 311 311 311 313 314 315 316 321 323 324 326 328
299 302 300 295 298 302 307 303 302 301 301 303 302 302 303 303 304 304 304 305 304 304 304 306 308 307 308 311 310 308 308 308 309 311 311 311 312 315 316 317 319 322 324 326 327
299 303 299 298 303 302 303 301 299 302 301 302 302 303 303 303 303 304 305 304 303 303 304 306 307 308 307 310 312 314 308 309 309 309 310 310 312 319 318 319 320 324 324 325 325
299 300 298 299 305 302 302 301 301 301 302 302 302 303 303 303 303 303 304 303 303 304 304 304 306 308 309 310 310 312 311 309 310 310 309 312 312 319 319 321 324 324 323 323 322
299 302 299 298 301 303 302 301 301 300 300 300 302 302 303 302 303 303 303 304 303 303 302 304 306 307 309 311 309 311 313 311 311 314 310 311 312 321 319 319 325 322 322 322 322
299 301 301 301 301 301 301 301 300 300 300 301 301 302 302 301 302 302 303 303 303 303 303 304 306 306 305 306 308 311 314 311 313 314 314 313 312 317 320 321 323 322 322 321 321
297 299 298 300 300 301 299 300 300 300 300 300 300 301 301 301 301 302 303 303 303 304 304 305 306 305 306 308 309 313 315 313 311 311 312 312 313 313 316 318 321 322 322 321 319
297 297 298 299 300 301 301 300 299 299 299 298 299 300 300 301 300 301 300 301 303 305 305 306 307 307 306 307 309 315 313 314 315 315 312 314 314 319 316 315 322 321 320 318 317

GFSSW_850_thetae_120.txt.gz
Theta_e
299 299 299 299 299 300 300 300 301 301 302 302 302 302 303 303 304 311 313 309 309 310 312 311 312 314 314 316 319 320 322 321 321 322 322 322 323 322 321 321 321 323 324 328 331
298 299 299 299 299 299 300 300 301 301 302 302 302 303 303 303 306 314 309 309 308 309 313 314 315 315 316 317 318 320 322 321 322 323 323 323 322 321 321 320 321 323 323 324 326
298 299 299 299 299 299 299 300 301 301 302 302 302 302 303 303 313 313 305 304 304 304 305 311 313 315 315 316 318 320 322 321 322 322 323 323 323 321 320 320 321 321 322 322 323
298 298 298 298 298 299 299 300 301 301 301 302 302 302 303 305 311 309 304 302 303 306 313 313 311 313 316 317 317 319 320 321 321 321 322 322 322 321 320 320 320 320 321 322 322
297 298 298 298 298 299 300 300 301 301 302 302 302 302 303 313 307 305 306 308 307 306 306 306 308 312 313 314 316 318 318 318 319 320 321 321 322 321 321 321 321 320 319 319 322
297 298 298 298 298 299 300 300 301 301 302 302 302 302 310 312 306 310 309 308 311 311 311 311 310 308 310 312 313 314 315 317 318 319 320 321 321 321 320 320 320 321 320 319 319
297 297 297 298 299 299 300 300 301 301 301 301 301 302 312 309 308 306 306 306 306 308 308 309 311 311 308 311 312 314 315 315 316 317 319 319 320 321 321 321 321 321 321 320 320
297 297 297 298 298 299 300 300 301 301 300 301 301 310 311 305 306 305 306 306 306 306 306 306 309 310 310 309 310 311 311 312 313 316 318 318 319 320 320 320 321 322 322 321 321
297 297 297 298 298 299 300 300 302 300 302 303 312 309 310 307 306 305 306 305 305 307 307 306 308 309 309 309 308 309 310 309 311 314 314 318 320 320 320 320 321 323 323 322 322
297 297 297 298 298 299 300 302 303 304 304 306 309 307 307 305 304 305 305 305 305 307 308 308 309 310 310 309 309 308 309 311 311 312 314 315 318 319 320 320 321 322 323 323 323
296 297 297 298 298 298 301 304 304 309 304 303 304 305 305 304 303 304 305 304 305 306 308 308 309 309 309 310 311 310 310 309 310 311 313 314 315 317 318 319 320 321 322 322 323
296 296 297 297 297 299 302 303 301 301 306 304 305 305 304 303 304 304 304 305 306 306 307 307 308 309 309 309 309 309 309 310 311 311 310 311 312 314 315 317 319 320 320 322 322
295 296 296 297 298 303 301 300 300 302 308 305 304 304 302 303 304 304 305 305 305 305 306 307 307 308 307 307 308 309 309 309 310 310 311 311 311 312 314 315 316 317 316 316 320
295 295 295 299 303 303 304 301 302 300 311 306 306 306 303 303 305 304 305 304 305 306 308 308 308 308 308 308 308 308 308 309 309 310 308 310 310 312 313 314 316 316 315 316 317
294 294 294 295 301 304 302 300 302 308 312 304 304 302 303 304 304 304 304 304 305 307 306 306 306 305 306 306 306 308 309 309 308 308 311 310 309 310 313 314 315 316 317 317 316
294 294 296 302 303 301 300 298 305 313 311 304 303 303 304 304 304 304 304 305 305 307 307 305 305 306 306 307 308 308 308 307 309 309 309 311 310 310 311 313 315 318 318 318 319
293 293 295 300 305 301 297 306 309 311 303 304 304 303 304 305 304 304 304 305 306 307 306 304 305 306 307 306 307 307 309 307 309 310 310 311 311 312 313 314 314 319 323 324 325
293 293 296 301 301 297 305 308 310 305 303 304 303 303 304 304 304 304 305 304 305 306 305 304 306 305 306 306 308 310 309 309 308 310 309 311 311 312 314 314 315 322 325 325 325
293 298 303 302 295 299 307 311 307 305 303 303 303 304 304 304 304 304 304 305 305 305 306 306 304 305 306 307 307 312 309 308 309 310 311 311 312 313 314 314 315 325 325 325 327
300 302 304 298 294 304 308 308 304 303 302 303 303 303 303 304 303 304 304 304 304 305 305 305 306 305 306 307 310 311 311 310 309 308 309 310 312 313 313 314 316 325 325 327 329
301 303 303 295 296 306 309 306 304 302 302 303 303 303 304 303 304 303 304 304 305 304 304 306 306 305 306 309 311 312 314 311 309 309 309 312 313 314 316 315 321 324 325 327 328
302 305 302 294 305 306 307 304 301 303 302 303 303 303 304 304 303 304 304 304 303 304 303 305 306 305 306 308 308 309 310 312 309 308 310 312 312 314 319 319 321 322 325 327 327
301 303 300 298 307 306 304 303 301 302 302 303 303 303 303 303 303 303 303 303 303 304 304 304 303 307 305 307 306 307 308 310 312 314 311 313 313 313 316 320 319 325 326 326 323
301 304 301 299 302 304 305 303 302 301 301 301 302 302 302 303 303 302 302 303 303 303 302 303 305 306 307 307 307 307 309 311 314 313 311 310 311 311 317 318 324 323 320 320 322
301 303 303 303 303 303 303 302 302 302 301 301 302 302 302 302 303 301 302 302 303 303 303 305 306 306 306 305 306 309 310 313 314 313 315 312 311 312 317 319 322 321 323 322 320
298 301 300 301 302 303 302 302 302 302 301 301 301 301 302 301 302 301 301 302 302 302 303 305 306 307 307 306 307 307 312 314 313 312 311 313 313 316 316 314 317 316 321 321 318
299 299 300 301 302 302 302 302 301 301 300 300 300 300 300 301 300 300 300 300 301 302 304 306 306 307 308 306 307 312 312 311 312 315 316 316 315 315 319 318 314 309 314 317 316

GFSSW_850_thetae_123.txt.gz
Theta_e
299 299 299 299 299 300 300 300 301 301 302 302 302 303 303 304 306 312 313 308 309 309 313 315 314 313 313 314 318 318 315 318 316 317 318 320 320 322 321 320 321 321 323 331 330
299 299 299 299 300 300 300 301 301 301 302 302 303 303 304 304 312 311 308 306 305 304 305 312 312 313 314 315 315 314 314 317 317 318 319 321 320 321 320 319 320 320 328 330 330
298 299 299 299 299 300 300 301 301 301 302 302 303 303 303 304 315 313 307 303 303 304 311 313 312 311 312 315 315 316 316 316 318 319 320 320 320 321 319 315 319 319 321 327 326
298 299 299 299 299 300 300 301 301 301 302 302 303 303 303 309 308 305 307 308 308 307 306 306 307 308 309 310 315 313 314 317 318 319 319 319 320 320 320 320 320 320 320 321 324
298 298 298 299 299 300 300 301 301 301 302 302 303 303 303 313 305 310 309 309 310 311 310 311 310 308 306 308 309 310 311 315 316 316 317 318 318 319 319 320 321 320 320 320 320
298 298 298 299 299 299 300 300 301 301 301 302 302 302 306 311 308 307 307 306 308 310 309 308 308 311 312 307 307 310 311 311 312 313 314 315 316 317 318 320 320 320 320 320 320
297 298 298 299 299 299 300 300 301 301 301 301 301 302 309 308 307 305 306 306 306 306 306 306 306 306 310 309 309 309 307 308 309 313 313 314 314 316 317 318 320 320 320 320 320
297 297 298 298 299 299 299 300 301 301 301 301 303 309 309 308 306 305 305 305 305 305 306 307 307 306 309 310 309 307 305 306 308 309 311 312 314 315 317 317 318 319 320 320 321
297 297 297 298 298 299 299 300 302 301 303 305 308 308 308 306 304 304 305 305 304 305 307 306 307 307 308 306 305 305 303 304 306 308 309 309 309 310 316 317 318 318 319 320 320
296 296 297 297 298 299 300 302 304 305 304 307 307 308 307 306 303 304 304 304 305 305 306 307 308 307 305 305 306 305 304 306 306 307 308 309 309 310 313 315 318 318 319 319 320
296 296 297 297 297 299 301 303 304 309 304 303 304 304 305 304 304 304 304 305 305 306 304 306 303 303 304 305 306 305 306 306 307 308 308 308 308 308 311 313 312 315 318 319 321
295 296 296 297 297 300 301 302 300 302 305 304 305 305 304 303 304 304 304 305 304 303 304 303 303 305 307 307 306 306 305 306 306 307 307 308 308 308 309 310 312 312 312 315 318
295 295 296 296 300 302 302 300 299 299 305 305 304 304 302 303 303 304 304 305 303 302 303 305 306 307 306 305 306 307 306 306 306 306 306 306 307 307 309 310 311 312 312 313 316
295 295 295 299 302 303 304 302 298 300 308 304 305 305 303 303 304 304 305 304 304 303 304 305 306 305 304 304 304 304 306 307 307 307 305 306 305 307 308 310 311 311 312 313 314
295 295 295 299 303 303 302 299 300 308 313 305 303 303 303 303 303 304 304 304 303 303 305 305 305 303 303 304 305 306 306 306 307 307 306 306 305 306 308 309 309 310 312 313 314
294 294 296 300 303 302 297 300 306 311 311 303 303 303 303 304 304 304 304 304 305 306 305 305 305 303 303 305 304 305 307 307 307 307 307 306 306 305 307 309 310 311 312 313 314
294 294 299 302 305 304 299 306 308 310 305 303 303 303 303 304 304 304 304 302 302 305 304 304 304 304 304 303 304 305 308 309 308 307 307 306 307 307 309 310 310 311 313 322 318
293 293 298 301 303 297 306 306 309 307 304 304 303 302 303 304 304 304 303 302 304 303 304 305 305 303 303 303 305 305 306 309 312 308 307 306 307 307 309 311 311 311 323 325 328
293 297 302 301 295 301 306 304 307 305 304 303 302 302 304 304 303 303 303 303 304 304 303 304 304 303 303 304 305 308 311 310 312 310 309 307 307 308 308 310 311 312 324 327 330
301 303 303 303 294 306 305 308 304 303 302 302 303 303 303 303 303 303 303 304 304 304 304 304 303 303 304 304 306 307 309 313 309 308 308 307 308 308 309 311 311 316 323 329 329
302 303 304 301 295 306 304 305 304 302 302 302 303 303 303 303 303 303 303 304 304 304 303 303 303 303 303 304 304 307 309 310 312 310 307 308 307 308 311 311 316 320 328 327 325
302 302 303 295 304 305 304 306 302 303 302 302 303 303 303 304 303 303 303 303 304 303 303 303 301 303 302 303 305 307 306 308 312 313 310 308 307 309 310 318 321 324 327 324 323
301 303 301 300 303 303 304 303 301 302 303 303 303 304 303 302 302 304 302 303 302 303 303 302 299 303 304 304 306 305 306 306 311 312 311 311 309 310 317 321 321 324 324 321 318
302 302 300 297 301 303 304 303 302 301 301 302 302 301 301 302 303 303 303 302 302 302 302 303 303 305 304 303 304 306 306 307 310 314 312 310 312 315 318 320 320 315 313 320 318
301 302 302 301 302 302 302 303 303 303 301 300 301 301 301 301 302 302 301 301 301 301 301 301 300 301 303 305 305 306 308 311 312 313 313 313 313 315 317 318 318 316 312 318 317
299 301 301 300 302 302 302 302 303 302 302 302 301 301 301 300 300 299 299 299 300 300 300 300 301 303 305 305 306 307 310 311 312 312 314 314 314 314 314 312 312 310 309 308 315
299 299 300 301 300 301 301 302 301 301 301 300 300 299 299 300 299 299 299 299 299 299 299 300 301 303 305 306 306 311 310 309 309 309 310 311 314 315 315 312 309 309 309 309 308